<?xml version='1.0' encoding='UTF-8'?>
<gpx version="1.1" creator="https://www.komoot.de" xmlns="http://www.topografix.com/GPX/1/1" xmlns:xsi="http://www.w3.org/2001/XMLSchema-instance" xsi:schemaLocation="http://www.topografix.com/GPX/1/1 http://www.topografix.com/GPX/1/1/gpx.xsd">
  <metadata>
    <name>63_780LehnackerSteinen</name>
    <author>
      <link href="https://www.komoot.de">
        <text>komoot</text>
        <type>text/html</type>
      </link>
    </author>
  </metadata>
  <trk>
    <name>63_780LehnackerSteinen</name>
    <trkseg>
      <trkpt lat="47.541279" lon="7.870900">
        <ele>339.208101</ele>
        <time>2021-11-17T21:33:19.825Z</time>
      </trkpt>
      <trkpt lat="47.541410" lon="7.870791">
        <ele>339.208101</ele>
        <time>2021-11-17T21:33:22.216Z</time>
      </trkpt>
      <trkpt lat="47.541576" lon="7.870664">
        <ele>339.208101</ele>
        <time>2021-11-17T21:33:24.655Z</time>
      </trkpt>
      <trkpt lat="47.541550" lon="7.870601">
        <ele>339.208101</ele>
        <time>2021-11-17T21:33:25.457Z</time>
      </trkpt>
      <trkpt lat="47.541521" lon="7.870517">
        <ele>339.208101</ele>
        <time>2021-11-17T21:33:26.492Z</time>
      </trkpt>
      <trkpt lat="47.541606" lon="7.870424">
        <ele>339.208101</ele>
        <time>2021-11-17T21:33:28.150Z</time>
      </trkpt>
      <trkpt lat="47.541910" lon="7.870106">
        <ele>339.181652</ele>
        <time>2021-11-17T21:33:33.813Z</time>
      </trkpt>
      <trkpt lat="47.542014" lon="7.870126">
        <ele>339.086401</ele>
        <time>2021-11-17T21:33:35.284Z</time>
      </trkpt>
      <trkpt lat="47.542118" lon="7.870135">
        <ele>338.991783</ele>
        <time>2021-11-17T21:33:37.006Z</time>
      </trkpt>
      <trkpt lat="47.542181" lon="7.870131">
        <ele>338.934511</ele>
        <time>2021-11-17T21:33:37.878Z</time>
      </trkpt>
      <trkpt lat="47.542317" lon="7.870012">
        <ele>338.791051</ele>
        <time>2021-11-17T21:33:39.997Z</time>
      </trkpt>
      <trkpt lat="47.542348" lon="7.869983">
        <ele>338.757751</ele>
        <time>2021-11-17T21:33:40.436Z</time>
      </trkpt>
      <trkpt lat="47.542329" lon="7.869820">
        <ele>338.656335</ele>
        <time>2021-11-17T21:33:42.198Z</time>
      </trkpt>
      <trkpt lat="47.542372" lon="7.869746">
        <ele>338.596471</ele>
        <time>2021-11-17T21:33:43.012Z</time>
      </trkpt>
      <trkpt lat="47.542657" lon="7.869354">
        <ele>338.243249</ele>
        <time>2021-11-17T21:33:47.813Z</time>
      </trkpt>
      <trkpt lat="47.542696" lon="7.869257">
        <ele>338.174028</ele>
        <time>2021-11-17T21:33:48.748Z</time>
      </trkpt>
      <trkpt lat="47.542722" lon="7.869201">
        <ele>338.132357</ele>
        <time>2021-11-17T21:33:49.340Z</time>
      </trkpt>
      <trkpt lat="47.543049" lon="7.868759">
        <ele>337.730308</ele>
        <time>2021-11-17T21:33:54.253Z</time>
      </trkpt>
      <trkpt lat="47.543105" lon="7.868711">
        <ele>337.671546</ele>
        <time>2021-11-17T21:33:54.991Z</time>
      </trkpt>
      <trkpt lat="47.543201" lon="7.868657">
        <ele>337.578280</ele>
        <time>2021-11-17T21:33:56.069Z</time>
      </trkpt>
      <trkpt lat="47.543657" lon="7.868359">
        <ele>336.906580</ele>
        <time>2021-11-17T21:34:01.865Z</time>
      </trkpt>
      <trkpt lat="47.543801" lon="7.868269">
        <ele>336.695364</ele>
        <time>2021-11-17T21:34:04.344Z</time>
      </trkpt>
      <trkpt lat="47.544214" lon="7.867988">
        <ele>336.081171</ele>
        <time>2021-11-17T21:34:11.961Z</time>
      </trkpt>
      <trkpt lat="47.544246" lon="7.867967">
        <ele>336.033872</ele>
        <time>2021-11-17T21:34:12.557Z</time>
      </trkpt>
      <trkpt lat="47.544410" lon="7.867825">
        <ele>335.777158</ele>
        <time>2021-11-17T21:34:15.810Z</time>
      </trkpt>
      <trkpt lat="47.544469" lon="7.867776">
        <ele>335.685749</ele>
        <time>2021-11-17T21:34:16.832Z</time>
      </trkpt>
      <trkpt lat="47.544568" lon="7.867693">
        <ele>335.532018</ele>
        <time>2021-11-17T21:34:18.759Z</time>
      </trkpt>
      <trkpt lat="47.545003" lon="7.867278">
        <ele>335.267739</ele>
        <time>2021-11-17T21:34:27.608Z</time>
      </trkpt>
      <trkpt lat="47.545160" lon="7.866985">
        <ele>335.403821</ele>
        <time>2021-11-17T21:34:32.258Z</time>
      </trkpt>
      <trkpt lat="47.545240" lon="7.866887">
        <ele>335.459762</ele>
        <time>2021-11-17T21:34:34.532Z</time>
      </trkpt>
      <trkpt lat="47.546096" lon="7.866147">
        <ele>335.993854</ele>
        <time>2021-11-17T21:34:59.602Z</time>
      </trkpt>
      <trkpt lat="47.546327" lon="7.865959">
        <ele>336.122357</ele>
        <time>2021-11-17T21:35:06.022Z</time>
      </trkpt>
      <trkpt lat="47.546510" lon="7.865766">
        <ele>336.171747</ele>
        <time>2021-11-17T21:35:12.408Z</time>
      </trkpt>
      <trkpt lat="47.546819" lon="7.865489">
        <ele>336.251155</ele>
        <time>2021-11-17T21:35:20.562Z</time>
      </trkpt>
      <trkpt lat="47.546889" lon="7.865225">
        <ele>336.293249</ele>
        <time>2021-11-17T21:35:24.348Z</time>
      </trkpt>
      <trkpt lat="47.546894" lon="7.864837">
        <ele>336.350842</ele>
        <time>2021-11-17T21:35:29.524Z</time>
      </trkpt>
      <trkpt lat="47.546885" lon="7.864500">
        <ele>336.400895</ele>
        <time>2021-11-17T21:35:35.165Z</time>
      </trkpt>
      <trkpt lat="47.546974" lon="7.864423">
        <ele>336.423556</ele>
        <time>2021-11-17T21:35:36.752Z</time>
      </trkpt>
      <trkpt lat="47.547320" lon="7.863864">
        <ele>336.317112</ele>
        <time>2021-11-17T21:35:46.677Z</time>
      </trkpt>
      <trkpt lat="47.547568" lon="7.863151">
        <ele>335.492239</ele>
        <time>2021-11-17T21:35:55.690Z</time>
      </trkpt>
      <trkpt lat="47.547930" lon="7.861711">
        <ele>333.911992</ele>
        <time>2021-11-17T21:36:12.064Z</time>
      </trkpt>
      <trkpt lat="47.548049" lon="7.860929">
        <ele>333.196124</ele>
        <time>2021-11-17T21:36:20.764Z</time>
      </trkpt>
      <trkpt lat="47.548334" lon="7.859801">
        <ele>332.155016</ele>
        <time>2021-11-17T21:36:34.245Z</time>
      </trkpt>
      <trkpt lat="47.548611" lon="7.858381">
        <ele>331.358640</ele>
        <time>2021-11-17T21:36:52.202Z</time>
      </trkpt>
      <trkpt lat="47.548686" lon="7.857973">
        <ele>331.292641</ele>
        <time>2021-11-17T21:36:57.591Z</time>
      </trkpt>
      <trkpt lat="47.548701" lon="7.857893">
        <ele>331.279682</ele>
        <time>2021-11-17T21:36:58.711Z</time>
      </trkpt>
      <trkpt lat="47.548743" lon="7.857692">
        <ele>331.246842</ele>
        <time>2021-11-17T21:37:01.485Z</time>
      </trkpt>
      <trkpt lat="47.548887" lon="7.857308">
        <ele>331.178280</ele>
        <time>2021-11-17T21:37:07.519Z</time>
      </trkpt>
      <trkpt lat="47.549362" lon="7.855774">
        <ele>330.860712</ele>
        <time>2021-11-17T21:37:31.564Z</time>
      </trkpt>
      <trkpt lat="47.549566" lon="7.855225">
        <ele>330.723344</ele>
        <time>2021-11-17T21:37:40.181Z</time>
      </trkpt>
      <trkpt lat="47.549883" lon="7.854434">
        <ele>330.521704</ele>
        <time>2021-11-17T21:37:51.635Z</time>
      </trkpt>
      <trkpt lat="47.550221" lon="7.853833">
        <ele>329.621547</ele>
        <time>2021-11-17T21:37:58.029Z</time>
      </trkpt>
      <trkpt lat="47.551516" lon="7.851950">
        <ele>324.956506</ele>
        <time>2021-11-17T21:38:16.826Z</time>
      </trkpt>
      <trkpt lat="47.551660" lon="7.851725">
        <ele>324.271831</ele>
        <time>2021-11-17T21:38:18.867Z</time>
      </trkpt>
      <trkpt lat="47.551830" lon="7.851603">
        <ele>323.653850</ele>
        <time>2021-11-17T21:38:20.774Z</time>
      </trkpt>
      <trkpt lat="47.551907" lon="7.851799">
        <ele>323.153086</ele>
        <time>2021-11-17T21:38:22.283Z</time>
      </trkpt>
      <trkpt lat="47.551925" lon="7.851845">
        <ele>323.035678</ele>
        <time>2021-11-17T21:38:22.621Z</time>
      </trkpt>
      <trkpt lat="47.552042" lon="7.852007">
        <ele>322.511773</ele>
        <time>2021-11-17T21:38:24.266Z</time>
      </trkpt>
      <trkpt lat="47.552097" lon="7.852063">
        <ele>322.293443</ele>
        <time>2021-11-17T21:38:24.902Z</time>
      </trkpt>
      <trkpt lat="47.552272" lon="7.852167">
        <ele>321.676573</ele>
        <time>2021-11-17T21:38:26.799Z</time>
      </trkpt>
      <trkpt lat="47.552449" lon="7.852231">
        <ele>321.080503</ele>
        <time>2021-11-17T21:38:28.609Z</time>
      </trkpt>
      <trkpt lat="47.552678" lon="7.851709">
        <ele>319.892717</ele>
        <time>2021-11-17T21:38:32.894Z</time>
      </trkpt>
      <trkpt lat="47.552876" lon="7.851300">
        <ele>319.145292</ele>
        <time>2021-11-17T21:38:36.436Z</time>
      </trkpt>
      <trkpt lat="47.553283" lon="7.850634">
        <ele>317.811149</ele>
        <time>2021-11-17T21:38:43.075Z</time>
      </trkpt>
      <trkpt lat="47.553344" lon="7.850525">
        <ele>317.600885</ele>
        <time>2021-11-17T21:38:44.152Z</time>
      </trkpt>
      <trkpt lat="47.553380" lon="7.850453">
        <ele>317.467827</ele>
        <time>2021-11-17T21:38:44.839Z</time>
      </trkpt>
      <trkpt lat="47.553537" lon="7.849904">
        <ele>316.582441</ele>
        <time>2021-11-17T21:38:49.325Z</time>
      </trkpt>
      <trkpt lat="47.553605" lon="7.849629">
        <ele>316.209970</ele>
        <time>2021-11-17T21:38:51.615Z</time>
      </trkpt>
      <trkpt lat="47.553725" lon="7.849291">
        <ele>315.849125</ele>
        <time>2021-11-17T21:38:54.538Z</time>
      </trkpt>
      <trkpt lat="47.554055" lon="7.848586">
        <ele>315.038491</ele>
        <time>2021-11-17T21:39:01.435Z</time>
      </trkpt>
      <trkpt lat="47.554209" lon="7.848300">
        <ele>314.692804</ele>
        <time>2021-11-17T21:39:04.398Z</time>
      </trkpt>
      <trkpt lat="47.554269" lon="7.848188">
        <ele>314.557699</ele>
        <time>2021-11-17T21:39:05.478Z</time>
      </trkpt>
      <trkpt lat="47.554351" lon="7.848049">
        <ele>314.383268</ele>
        <time>2021-11-17T21:39:06.937Z</time>
      </trkpt>
      <trkpt lat="47.554465" lon="7.847858">
        <ele>314.142360</ele>
        <time>2021-11-17T21:39:09.019Z</time>
      </trkpt>
      <trkpt lat="47.554618" lon="7.847626">
        <ele>313.835886</ele>
        <time>2021-11-17T21:39:11.518Z</time>
      </trkpt>
      <trkpt lat="47.554759" lon="7.847388">
        <ele>313.557852</ele>
        <time>2021-11-17T21:39:13.935Z</time>
      </trkpt>
      <trkpt lat="47.554892" lon="7.847148">
        <ele>313.287945</ele>
        <time>2021-11-17T21:39:16.366Z</time>
      </trkpt>
      <trkpt lat="47.554995" lon="7.846915">
        <ele>313.045858</ele>
        <time>2021-11-17T21:39:18.523Z</time>
      </trkpt>
      <trkpt lat="47.555068" lon="7.846672">
        <ele>312.814677</ele>
        <time>2021-11-17T21:39:20.583Z</time>
      </trkpt>
      <trkpt lat="47.555199" lon="7.846687">
        <ele>312.645466</ele>
        <time>2021-11-17T21:39:22.065Z</time>
      </trkpt>
      <trkpt lat="47.555727" lon="7.846715">
        <ele>311.965048</ele>
        <time>2021-11-17T21:39:28.522Z</time>
      </trkpt>
      <trkpt lat="47.555855" lon="7.846815">
        <ele>311.778695</ele>
        <time>2021-11-17T21:39:30.185Z</time>
      </trkpt>
      <trkpt lat="47.555892" lon="7.846856">
        <ele>311.719194</ele>
        <time>2021-11-17T21:39:30.742Z</time>
      </trkpt>
      <trkpt lat="47.555966" lon="7.846932">
        <ele>311.603240</ele>
        <time>2021-11-17T21:39:31.892Z</time>
      </trkpt>
      <trkpt lat="47.555990" lon="7.846965">
        <ele>311.561075</ele>
        <time>2021-11-17T21:39:32.323Z</time>
      </trkpt>
      <trkpt lat="47.556060" lon="7.846859">
        <ele>311.453048</ele>
        <time>2021-11-17T21:39:33.518Z</time>
      </trkpt>
      <trkpt lat="47.556636" lon="7.845928">
        <ele>310.790902</ele>
        <time>2021-11-17T21:39:43.904Z</time>
      </trkpt>
      <trkpt lat="47.557134" lon="7.845095">
        <ele>310.207491</ele>
        <time>2021-11-17T21:39:53.722Z</time>
      </trkpt>
      <trkpt lat="47.557282" lon="7.844832">
        <ele>310.076007</ele>
        <time>2021-11-17T21:39:56.862Z</time>
      </trkpt>
      <trkpt lat="47.557560" lon="7.844433">
        <ele>310.017821</ele>
        <time>2021-11-17T21:40:02.039Z</time>
      </trkpt>
      <trkpt lat="47.557715" lon="7.843940">
        <ele>309.962640</ele>
        <time>2021-11-17T21:40:07.045Z</time>
      </trkpt>
      <trkpt lat="47.557759" lon="7.843839">
        <ele>309.950444</ele>
        <time>2021-11-17T21:40:08.224Z</time>
      </trkpt>
      <trkpt lat="47.557846" lon="7.843756">
        <ele>309.934887</ele>
        <time>2021-11-17T21:40:09.571Z</time>
      </trkpt>
      <trkpt lat="47.557967" lon="7.843683">
        <ele>309.915246</ele>
        <time>2021-11-17T21:40:11.605Z</time>
      </trkpt>
      <trkpt lat="47.558136" lon="7.843582">
        <ele>309.887850</ele>
        <time>2021-11-17T21:40:14.293Z</time>
      </trkpt>
      <trkpt lat="47.558405" lon="7.843371">
        <ele>309.842091</ele>
        <time>2021-11-17T21:40:19.158Z</time>
      </trkpt>
      <trkpt lat="47.558471" lon="7.843365">
        <ele>309.832150</ele>
        <time>2021-11-17T21:40:20.009Z</time>
      </trkpt>
      <trkpt lat="47.558555" lon="7.843392">
        <ele>309.819227</ele>
        <time>2021-11-17T21:40:21.290Z</time>
      </trkpt>
      <trkpt lat="47.558663" lon="7.843538">
        <ele>309.832687</ele>
        <time>2021-11-17T21:40:23.869Z</time>
      </trkpt>
      <trkpt lat="47.558884" lon="7.843836">
        <ele>309.867867</ele>
        <time>2021-11-17T21:40:28.570Z</time>
      </trkpt>
      <trkpt lat="47.559060" lon="7.844197">
        <ele>309.903251</ele>
        <time>2021-11-17T21:40:33.395Z</time>
      </trkpt>
      <trkpt lat="47.559109" lon="7.844229">
        <ele>309.909555</ele>
        <time>2021-11-17T21:40:34.443Z</time>
      </trkpt>
      <trkpt lat="47.559158" lon="7.844233">
        <ele>309.915333</ele>
        <time>2021-11-17T21:40:35.392Z</time>
      </trkpt>
      <trkpt lat="47.559583" lon="7.843813">
        <ele>309.975476</ele>
        <time>2021-11-17T21:40:43.371Z</time>
      </trkpt>
      <trkpt lat="47.559847" lon="7.843604">
        <ele>310.010715</ele>
        <time>2021-11-17T21:40:47.770Z</time>
      </trkpt>
      <trkpt lat="47.560139" lon="7.843433">
        <ele>309.883651</ele>
        <time>2021-11-17T21:40:51.999Z</time>
      </trkpt>
      <trkpt lat="47.560209" lon="7.843393">
        <ele>309.815397</ele>
        <time>2021-11-17T21:40:52.950Z</time>
      </trkpt>
      <trkpt lat="47.560338" lon="7.843341">
        <ele>309.693772</ele>
        <time>2021-11-17T21:40:54.616Z</time>
      </trkpt>
      <trkpt lat="47.560430" lon="7.843341">
        <ele>309.610073</ele>
        <time>2021-11-17T21:40:56.158Z</time>
      </trkpt>
      <trkpt lat="47.560515" lon="7.843379">
        <ele>309.529300</ele>
        <time>2021-11-17T21:40:57.192Z</time>
      </trkpt>
      <trkpt lat="47.560812" lon="7.843560">
        <ele>309.237142</ele>
        <time>2021-11-17T21:41:01.252Z</time>
      </trkpt>
      <trkpt lat="47.560934" lon="7.843550">
        <ele>309.125980</ele>
        <time>2021-11-17T21:41:02.774Z</time>
      </trkpt>
      <trkpt lat="47.561038" lon="7.843502">
        <ele>309.026882</ele>
        <time>2021-11-17T21:41:04.063Z</time>
      </trkpt>
      <trkpt lat="47.561434" lon="7.843181">
        <ele>308.616237</ele>
        <time>2021-11-17T21:41:09.503Z</time>
      </trkpt>
      <trkpt lat="47.561498" lon="7.843130">
        <ele>308.550128</ele>
        <time>2021-11-17T21:41:10.268Z</time>
      </trkpt>
      <trkpt lat="47.562179" lon="7.842500">
        <ele>307.598694</ele>
        <time>2021-11-17T21:41:19.526Z</time>
      </trkpt>
      <trkpt lat="47.562300" lon="7.842326">
        <ele>307.386101</ele>
        <time>2021-11-17T21:41:21.477Z</time>
      </trkpt>
      <trkpt lat="47.562385" lon="7.842183">
        <ele>307.223956</ele>
        <time>2021-11-17T21:41:22.889Z</time>
      </trkpt>
      <trkpt lat="47.562440" lon="7.842083">
        <ele>307.114189</ele>
        <time>2021-11-17T21:41:24.004Z</time>
      </trkpt>
      <trkpt lat="47.562574" lon="7.841873">
        <ele>306.868275</ele>
        <time>2021-11-17T21:41:26.402Z</time>
      </trkpt>
      <trkpt lat="47.562904" lon="7.841632">
        <ele>306.404394</ele>
        <time>2021-11-17T21:41:30.892Z</time>
      </trkpt>
      <trkpt lat="47.562965" lon="7.841597">
        <ele>306.321915</ele>
        <time>2021-11-17T21:41:31.679Z</time>
      </trkpt>
      <trkpt lat="47.563016" lon="7.841568">
        <ele>306.253037</ele>
        <time>2021-11-17T21:41:32.381Z</time>
      </trkpt>
      <trkpt lat="47.563300" lon="7.841391">
        <ele>305.910038</ele>
        <time>2021-11-17T21:41:36.118Z</time>
      </trkpt>
      <trkpt lat="47.563483" lon="7.841269">
        <ele>305.701267</ele>
        <time>2021-11-17T21:41:38.676Z</time>
      </trkpt>
      <trkpt lat="47.563659" lon="7.841150">
        <ele>305.499999</ele>
        <time>2021-11-17T21:41:41.004Z</time>
      </trkpt>
      <trkpt lat="47.563805" lon="7.841046">
        <ele>305.331465</ele>
        <time>2021-11-17T21:41:43.066Z</time>
      </trkpt>
      <trkpt lat="47.563941" lon="7.840948">
        <ele>305.174132</ele>
        <time>2021-11-17T21:41:44.918Z</time>
      </trkpt>
      <trkpt lat="47.563986" lon="7.840916">
        <ele>305.122203</ele>
        <time>2021-11-17T21:41:45.538Z</time>
      </trkpt>
      <trkpt lat="47.564094" lon="7.840838">
        <ele>304.997207</ele>
        <time>2021-11-17T21:41:47.007Z</time>
      </trkpt>
      <trkpt lat="47.564463" lon="7.840580">
        <ele>304.572719</ele>
        <time>2021-11-17T21:41:51.994Z</time>
      </trkpt>
      <trkpt lat="47.564534" lon="7.840532">
        <ele>304.491528</ele>
        <time>2021-11-17T21:41:52.901Z</time>
      </trkpt>
      <trkpt lat="47.564558" lon="7.840516">
        <ele>304.464148</ele>
        <time>2021-11-17T21:41:53.225Z</time>
      </trkpt>
      <trkpt lat="47.564936" lon="7.840261">
        <ele>304.016911</ele>
        <time>2021-11-17T21:41:58.127Z</time>
      </trkpt>
      <trkpt lat="47.565057" lon="7.840213">
        <ele>303.877673</ele>
        <time>2021-11-17T21:41:59.540Z</time>
      </trkpt>
      <trkpt lat="47.565168" lon="7.840179">
        <ele>303.751678</ele>
        <time>2021-11-17T21:42:00.881Z</time>
      </trkpt>
      <trkpt lat="47.565233" lon="7.840176">
        <ele>303.679389</ele>
        <time>2021-11-17T21:42:01.617Z</time>
      </trkpt>
      <trkpt lat="47.565343" lon="7.840185">
        <ele>303.556927</ele>
        <time>2021-11-17T21:42:02.877Z</time>
      </trkpt>
      <trkpt lat="47.565906" lon="7.840272">
        <ele>302.927706</ele>
        <time>2021-11-17T21:42:09.738Z</time>
      </trkpt>
      <trkpt lat="47.566081" lon="7.840309">
        <ele>302.731207</ele>
        <time>2021-11-17T21:42:11.880Z</time>
      </trkpt>
      <trkpt lat="47.566142" lon="7.840322">
        <ele>302.662703</ele>
        <time>2021-11-17T21:42:12.563Z</time>
      </trkpt>
      <trkpt lat="47.566221" lon="7.840340">
        <ele>302.573855</ele>
        <time>2021-11-17T21:42:13.760Z</time>
      </trkpt>
      <trkpt lat="47.566350" lon="7.840350">
        <ele>302.430263</ele>
        <time>2021-11-17T21:42:15.449Z</time>
      </trkpt>
      <trkpt lat="47.566450" lon="7.840326">
        <ele>302.317655</ele>
        <time>2021-11-17T21:42:16.673Z</time>
      </trkpt>
      <trkpt lat="47.566515" lon="7.840312">
        <ele>302.247670</ele>
        <time>2021-11-17T21:42:17.419Z</time>
      </trkpt>
      <trkpt lat="47.566592" lon="7.840279">
        <ele>302.187599</ele>
        <time>2021-11-17T21:42:18.609Z</time>
      </trkpt>
      <trkpt lat="47.566826" lon="7.840179">
        <ele>302.005085</ele>
        <time>2021-11-17T21:42:21.543Z</time>
      </trkpt>
      <trkpt lat="47.567111" lon="7.839998">
        <ele>301.772710</ele>
        <time>2021-11-17T21:42:25.561Z</time>
      </trkpt>
      <trkpt lat="47.567406" lon="7.839778">
        <ele>301.525214</ele>
        <time>2021-11-17T21:42:29.747Z</time>
      </trkpt>
      <trkpt lat="47.567481" lon="7.839664">
        <ele>301.444701</ele>
        <time>2021-11-17T21:42:30.952Z</time>
      </trkpt>
      <trkpt lat="47.567510" lon="7.839548">
        <ele>301.382147</ele>
        <time>2021-11-17T21:42:32.186Z</time>
      </trkpt>
      <trkpt lat="47.567530" lon="7.839459">
        <ele>301.334713</ele>
        <time>2021-11-17T21:42:33.032Z</time>
      </trkpt>
      <trkpt lat="47.567564" lon="7.839283">
        <ele>301.242140</ele>
        <time>2021-11-17T21:42:34.641Z</time>
      </trkpt>
      <trkpt lat="47.567626" lon="7.839064">
        <ele>301.122047</ele>
        <time>2021-11-17T21:42:36.665Z</time>
      </trkpt>
      <trkpt lat="47.567634" lon="7.839037">
        <ele>301.107136</ele>
        <time>2021-11-17T21:42:36.900Z</time>
      </trkpt>
      <trkpt lat="47.567823" lon="7.838648">
        <ele>300.840595</ele>
        <time>2021-11-17T21:42:41.183Z</time>
      </trkpt>
      <trkpt lat="47.567846" lon="7.838609">
        <ele>300.799059</ele>
        <time>2021-11-17T21:42:41.624Z</time>
      </trkpt>
      <trkpt lat="47.567936" lon="7.838380">
        <ele>300.586543</ele>
        <time>2021-11-17T21:42:44.079Z</time>
      </trkpt>
      <trkpt lat="47.568042" lon="7.838436">
        <ele>300.452799</ele>
        <time>2021-11-17T21:42:46.008Z</time>
      </trkpt>
      <trkpt lat="47.568160" lon="7.838415">
        <ele>300.311550</ele>
        <time>2021-11-17T21:42:48.146Z</time>
      </trkpt>
      <trkpt lat="47.568420" lon="7.838300">
        <ele>299.989076</ele>
        <time>2021-11-17T21:42:52.758Z</time>
      </trkpt>
      <trkpt lat="47.568988" lon="7.838054">
        <ele>299.285781</ele>
        <time>2021-11-17T21:43:02.581Z</time>
      </trkpt>
      <trkpt lat="47.569310" lon="7.837922">
        <ele>298.888719</ele>
        <time>2021-11-17T21:43:08.088Z</time>
      </trkpt>
      <trkpt lat="47.569522" lon="7.837844">
        <ele>298.609711</ele>
        <time>2021-11-17T21:43:11.680Z</time>
      </trkpt>
      <trkpt lat="47.569665" lon="7.837789">
        <ele>298.409653</ele>
        <time>2021-11-17T21:43:14.118Z</time>
      </trkpt>
      <trkpt lat="47.569814" lon="7.837733">
        <ele>298.201497</ele>
        <time>2021-11-17T21:43:16.654Z</time>
      </trkpt>
      <trkpt lat="47.569907" lon="7.837696">
        <ele>298.071101</ele>
        <time>2021-11-17T21:43:18.230Z</time>
      </trkpt>
      <trkpt lat="47.570038" lon="7.837643">
        <ele>297.887216</ele>
        <time>2021-11-17T21:43:20.482Z</time>
      </trkpt>
      <trkpt lat="47.570298" lon="7.837528">
        <ele>297.519791</ele>
        <time>2021-11-17T21:43:24.933Z</time>
      </trkpt>
      <trkpt lat="47.570872" lon="7.837307">
        <ele>296.716705</ele>
        <time>2021-11-17T21:43:34.795Z</time>
      </trkpt>
      <trkpt lat="47.570985" lon="7.837265">
        <ele>296.558947</ele>
        <time>2021-11-17T21:43:36.722Z</time>
      </trkpt>
      <trkpt lat="47.571254" lon="7.837161">
        <ele>296.261323</ele>
        <time>2021-11-17T21:43:41.435Z</time>
      </trkpt>
      <trkpt lat="47.571771" lon="7.836971">
        <ele>295.918740</ele>
        <time>2021-11-17T21:43:50.941Z</time>
      </trkpt>
      <trkpt lat="47.571871" lon="7.836932">
        <ele>295.852235</ele>
        <time>2021-11-17T21:43:52.878Z</time>
      </trkpt>
      <trkpt lat="47.572139" lon="7.836834">
        <ele>295.674700</ele>
        <time>2021-11-17T21:43:58.074Z</time>
      </trkpt>
      <trkpt lat="47.572296" lon="7.836777">
        <ele>295.570739</ele>
        <time>2021-11-17T21:44:01.152Z</time>
      </trkpt>
      <trkpt lat="47.572760" lon="7.836606">
        <ele>295.263226</ele>
        <time>2021-11-17T21:44:10.169Z</time>
      </trkpt>
      <trkpt lat="47.573348" lon="7.836386">
        <ele>294.996537</ele>
        <time>2021-11-17T21:44:21.324Z</time>
      </trkpt>
      <trkpt lat="47.573815" lon="7.836215">
        <ele>294.813256</ele>
        <time>2021-11-17T21:44:30.135Z</time>
      </trkpt>
      <trkpt lat="47.574158" lon="7.836106">
        <ele>294.679600</ele>
        <time>2021-11-17T21:44:36.707Z</time>
      </trkpt>
      <trkpt lat="47.574568" lon="7.836025">
        <ele>294.522004</ele>
        <time>2021-11-17T21:44:42.398Z</time>
      </trkpt>
      <trkpt lat="47.575033" lon="7.835907">
        <ele>294.700269</ele>
        <time>2021-11-17T21:44:49.403Z</time>
      </trkpt>
      <trkpt lat="47.575959" lon="7.835718">
        <ele>295.204142</ele>
        <time>2021-11-17T21:45:05.019Z</time>
      </trkpt>
      <trkpt lat="47.576219" lon="7.835650">
        <ele>295.346460</ele>
        <time>2021-11-17T21:45:10.177Z</time>
      </trkpt>
      <trkpt lat="47.579073" lon="7.834987">
        <ele>298.476910</ele>
        <time>2021-11-17T21:46:09.013Z</time>
      </trkpt>
      <trkpt lat="47.580667" lon="7.834627">
        <ele>298.484964</ele>
        <time>2021-11-17T21:46:32.863Z</time>
      </trkpt>
      <trkpt lat="47.580816" lon="7.834599">
        <ele>298.352012</ele>
        <time>2021-11-17T21:46:34.959Z</time>
      </trkpt>
      <trkpt lat="47.582828" lon="7.834117">
        <ele>295.096408</ele>
        <time>2021-11-17T21:46:58.007Z</time>
      </trkpt>
      <trkpt lat="47.583163" lon="7.833942">
        <ele>294.305879</ele>
        <time>2021-11-17T21:47:01.836Z</time>
      </trkpt>
      <trkpt lat="47.583327" lon="7.833750">
        <ele>293.840784</ele>
        <time>2021-11-17T21:47:03.994Z</time>
      </trkpt>
      <trkpt lat="47.583401" lon="7.833658">
        <ele>293.625839</ele>
        <time>2021-11-17T21:47:04.925Z</time>
      </trkpt>
      <trkpt lat="47.583523" lon="7.833509">
        <ele>293.065889</ele>
        <time>2021-11-17T21:47:06.601Z</time>
      </trkpt>
      <trkpt lat="47.583696" lon="7.833171">
        <ele>291.850395</ele>
        <time>2021-11-17T21:47:09.439Z</time>
      </trkpt>
      <trkpt lat="47.583849" lon="7.832883">
        <ele>290.800183</ele>
        <time>2021-11-17T21:47:11.759Z</time>
      </trkpt>
      <trkpt lat="47.584029" lon="7.832543">
        <ele>289.561993</ele>
        <time>2021-11-17T21:47:14.494Z</time>
      </trkpt>
      <trkpt lat="47.584156" lon="7.832334">
        <ele>288.756136</ele>
        <time>2021-11-17T21:47:16.273Z</time>
      </trkpt>
      <trkpt lat="47.584367" lon="7.832247">
        <ele>287.825984</ele>
        <time>2021-11-17T21:47:18.333Z</time>
      </trkpt>
      <trkpt lat="47.584717" lon="7.832264">
        <ele>286.338697</ele>
        <time>2021-11-17T21:47:21.722Z</time>
      </trkpt>
      <trkpt lat="47.585027" lon="7.832425">
        <ele>285.231026</ele>
        <time>2021-11-17T21:47:24.985Z</time>
      </trkpt>
      <trkpt lat="47.585195" lon="7.832588">
        <ele>284.644515</ele>
        <time>2021-11-17T21:47:27.041Z</time>
      </trkpt>
      <trkpt lat="47.585247" lon="7.832651">
        <ele>284.448344</ele>
        <time>2021-11-17T21:47:27.688Z</time>
      </trkpt>
      <trkpt lat="47.585278" lon="7.832688">
        <ele>284.332089</ele>
        <time>2021-11-17T21:47:28.071Z</time>
      </trkpt>
      <trkpt lat="47.586276" lon="7.833601">
        <ele>280.906397</ele>
        <time>2021-11-17T21:47:40.088Z</time>
      </trkpt>
      <trkpt lat="47.586496" lon="7.833050">
        <ele>280.571632</ele>
        <time>2021-11-17T21:47:45.325Z</time>
      </trkpt>
      <trkpt lat="47.587172" lon="7.833643">
        <ele>280.480501</ele>
        <time>2021-11-17T21:47:57.105Z</time>
      </trkpt>
      <trkpt lat="47.587282" lon="7.833739">
        <ele>280.465691</ele>
        <time>2021-11-17T21:47:59.101Z</time>
      </trkpt>
      <trkpt lat="47.587848" lon="7.834235">
        <ele>280.641315</ele>
        <time>2021-11-17T21:48:09.666Z</time>
      </trkpt>
      <trkpt lat="47.587628" lon="7.835942">
        <ele>283.390877</ele>
        <time>2021-11-17T21:48:37.489Z</time>
      </trkpt>
      <trkpt lat="47.587903" lon="7.836007">
        <ele>284.044110</ele>
        <time>2021-11-17T21:48:45.208Z</time>
      </trkpt>
      <trkpt lat="47.588272" lon="7.836090">
        <ele>285.065390</ele>
        <time>2021-11-17T21:48:56.197Z</time>
      </trkpt>
      <trkpt lat="47.589181" lon="7.835983">
        <ele>288.246946</ele>
        <time>2021-11-17T21:49:24.289Z</time>
      </trkpt>
      <trkpt lat="47.590263" lon="7.835856">
        <ele>291.410442</ele>
        <time>2021-11-17T21:49:54.271Z</time>
      </trkpt>
      <trkpt lat="47.590317" lon="7.835591">
        <ele>291.704904</ele>
        <time>2021-11-17T21:49:58.459Z</time>
      </trkpt>
      <trkpt lat="47.590333" lon="7.835455">
        <ele>291.851750</ele>
        <time>2021-11-17T21:50:00.455Z</time>
      </trkpt>
      <trkpt lat="47.590421" lon="7.834731">
        <ele>292.634264</ele>
        <time>2021-11-17T21:50:10.317Z</time>
      </trkpt>
      <trkpt lat="47.590501" lon="7.833517">
        <ele>293.889252</ele>
        <time>2021-11-17T21:50:25.248Z</time>
      </trkpt>
      <trkpt lat="47.590514" lon="7.833031">
        <ele>294.296112</ele>
        <time>2021-11-17T21:50:30.716Z</time>
      </trkpt>
      <trkpt lat="47.590585" lon="7.832798">
        <ele>294.509987</ele>
        <time>2021-11-17T21:50:33.683Z</time>
      </trkpt>
      <trkpt lat="47.590805" lon="7.830509">
        <ele>296.531727</ele>
        <time>2021-11-17T21:51:06.338Z</time>
      </trkpt>
      <trkpt lat="47.590807" lon="7.830492">
        <ele>296.548797</ele>
        <time>2021-11-17T21:51:07.100Z</time>
      </trkpt>
      <trkpt lat="47.590905" lon="7.829431">
        <ele>297.608073</ele>
        <time>2021-11-17T21:51:22.907Z</time>
      </trkpt>
      <trkpt lat="47.590942" lon="7.829014">
        <ele>298.024099</ele>
        <time>2021-11-17T21:51:28.485Z</time>
      </trkpt>
      <trkpt lat="47.590997" lon="7.828435">
        <ele>298.601740</ele>
        <time>2021-11-17T21:51:36.215Z</time>
      </trkpt>
      <trkpt lat="47.591088" lon="7.827507">
        <ele>298.592952</ele>
        <time>2021-11-17T21:51:47.570Z</time>
      </trkpt>
      <trkpt lat="47.591121" lon="7.827210">
        <ele>298.590131</ele>
        <time>2021-11-17T21:51:50.501Z</time>
      </trkpt>
      <trkpt lat="47.591206" lon="7.826325">
        <ele>298.581754</ele>
        <time>2021-11-17T21:51:58.698Z</time>
      </trkpt>
      <trkpt lat="47.591232" lon="7.825464">
        <ele>298.449806</ele>
        <time>2021-11-17T21:52:05.798Z</time>
      </trkpt>
      <trkpt lat="47.591145" lon="7.824128">
        <ele>297.930824</ele>
        <time>2021-11-17T21:52:16.793Z</time>
      </trkpt>
      <trkpt lat="47.591059" lon="7.823571">
        <ele>297.709881</ele>
        <time>2021-11-17T21:52:21.616Z</time>
      </trkpt>
      <trkpt lat="47.591023" lon="7.823436">
        <ele>297.653749</ele>
        <time>2021-11-17T21:52:22.853Z</time>
      </trkpt>
      <trkpt lat="47.590993" lon="7.823343">
        <ele>297.613888</ele>
        <time>2021-11-17T21:52:23.758Z</time>
      </trkpt>
      <trkpt lat="47.590966" lon="7.823273">
        <ele>297.582707</ele>
        <time>2021-11-17T21:52:24.448Z</time>
      </trkpt>
      <trkpt lat="47.590938" lon="7.823202">
        <ele>297.550905</ele>
        <time>2021-11-17T21:52:25.191Z</time>
      </trkpt>
      <trkpt lat="47.590876" lon="7.823017">
        <ele>298.133028</ele>
        <time>2021-11-17T21:52:27.049Z</time>
      </trkpt>
      <trkpt lat="47.590820" lon="7.822776">
        <ele>298.910116</ele>
        <time>2021-11-17T21:52:32.147Z</time>
      </trkpt>
      <trkpt lat="47.590742" lon="7.822297">
        <ele>300.412339</ele>
        <time>2021-11-17T21:52:39.356Z</time>
      </trkpt>
      <trkpt lat="47.590684" lon="7.821940">
        <ele>301.531810</ele>
        <time>2021-11-17T21:52:46.632Z</time>
      </trkpt>
      <trkpt lat="47.590673" lon="7.821142">
        <ele>303.965076</ele>
        <time>2021-11-17T21:53:07.867Z</time>
      </trkpt>
      <trkpt lat="47.590665" lon="7.821069">
        <ele>304.190540</ele>
        <time>2021-11-17T21:53:09.763Z</time>
      </trkpt>
      <trkpt lat="47.590651" lon="7.821006">
        <ele>304.392758</ele>
        <time>2021-11-17T21:53:11.328Z</time>
      </trkpt>
      <trkpt lat="47.590626" lon="7.820946">
        <ele>304.607765</ele>
        <time>2021-11-17T21:53:12.994Z</time>
      </trkpt>
      <trkpt lat="47.590586" lon="7.820883">
        <ele>304.871544</ele>
        <time>2021-11-17T21:53:14.984Z</time>
      </trkpt>
      <trkpt lat="47.590612" lon="7.820777">
        <ele>305.215401</ele>
        <time>2021-11-17T21:53:18.011Z</time>
      </trkpt>
      <trkpt lat="47.590614" lon="7.820708">
        <ele>305.425947</ele>
        <time>2021-11-17T21:53:22.634Z</time>
      </trkpt>
      <trkpt lat="47.590554" lon="7.820052">
        <ele>310.017758</ele>
        <time>2021-11-17T21:53:45.428Z</time>
      </trkpt>
      <trkpt lat="47.590624" lon="7.819732">
        <ele>312.536045</ele>
        <time>2021-11-17T21:53:56.694Z</time>
      </trkpt>
      <trkpt lat="47.591075" lon="7.819121">
        <ele>319.316738</ele>
        <time>2021-11-17T21:54:36.941Z</time>
      </trkpt>
      <trkpt lat="47.591246" lon="7.818566">
        <ele>323.884295</ele>
        <time>2021-11-17T21:55:05.174Z</time>
      </trkpt>
      <trkpt lat="47.591346" lon="7.817303">
        <ele>332.687032</ele>
        <time>2021-11-17T21:55:57.361Z</time>
      </trkpt>
      <trkpt lat="47.591551" lon="7.815659">
        <ele>343.955527</ele>
        <time>2021-11-17T21:56:55.809Z</time>
      </trkpt>
      <trkpt lat="47.591546" lon="7.815266">
        <ele>345.771983</ele>
        <time>2021-11-17T21:57:08.098Z</time>
      </trkpt>
      <trkpt lat="47.591438" lon="7.814076">
        <ele>351.320792</ele>
        <time>2021-11-17T21:57:42.805Z</time>
      </trkpt>
      <trkpt lat="47.591515" lon="7.812852">
        <ele>356.494057</ele>
        <time>2021-11-17T21:58:15.333Z</time>
      </trkpt>
      <trkpt lat="47.591613" lon="7.812338">
        <ele>357.594168</ele>
        <time>2021-11-17T21:58:27.411Z</time>
      </trkpt>
      <trkpt lat="47.591696" lon="7.811913">
        <ele>358.505445</ele>
        <time>2021-11-17T21:58:36.295Z</time>
      </trkpt>
      <trkpt lat="47.591858" lon="7.811405">
        <ele>359.662775</ele>
        <time>2021-11-17T21:58:46.420Z</time>
      </trkpt>
      <trkpt lat="47.591916" lon="7.811092">
        <ele>360.331309</ele>
        <time>2021-11-17T21:58:51.368Z</time>
      </trkpt>
      <trkpt lat="47.591991" lon="7.810188">
        <ele>361.344489</ele>
        <time>2021-11-17T21:59:02.543Z</time>
      </trkpt>
      <trkpt lat="47.591999" lon="7.810096">
        <ele>361.273274</ele>
        <time>2021-11-17T21:59:03.415Z</time>
      </trkpt>
      <trkpt lat="47.592047" lon="7.809389">
        <ele>360.727756</ele>
        <time>2021-11-17T21:59:09.615Z</time>
      </trkpt>
      <trkpt lat="47.592088" lon="7.808946">
        <ele>360.384471</ele>
        <time>2021-11-17T21:59:13.054Z</time>
      </trkpt>
      <trkpt lat="47.592168" lon="7.807575">
        <ele>359.280852</ele>
        <time>2021-11-17T21:59:22.870Z</time>
      </trkpt>
      <trkpt lat="47.592169" lon="7.806682">
        <ele>358.436231</ele>
        <time>2021-11-17T21:59:29.599Z</time>
      </trkpt>
      <trkpt lat="47.592150" lon="7.806138">
        <ele>357.921015</ele>
        <time>2021-11-17T21:59:33.889Z</time>
      </trkpt>
      <trkpt lat="47.592165" lon="7.805229">
        <ele>357.061005</ele>
        <time>2021-11-17T21:59:41.439Z</time>
      </trkpt>
      <trkpt lat="47.591909" lon="7.803595">
        <ele>357.189768</ele>
        <time>2021-11-17T21:59:58.363Z</time>
      </trkpt>
      <trkpt lat="47.591811" lon="7.803249">
        <ele>357.231650</ele>
        <time>2021-11-17T22:00:02.590Z</time>
      </trkpt>
      <trkpt lat="47.591721" lon="7.802939">
        <ele>357.269317</ele>
        <time>2021-11-17T22:00:07.014Z</time>
      </trkpt>
      <trkpt lat="47.591292" lon="7.802648">
        <ele>357.521777</ele>
        <time>2021-11-17T22:00:14.925Z</time>
      </trkpt>
      <trkpt lat="47.591109" lon="7.802361">
        <ele>357.753271</ele>
        <time>2021-11-17T22:00:19.819Z</time>
      </trkpt>
      <trkpt lat="47.590927" lon="7.801871">
        <ele>358.081143</ele>
        <time>2021-11-17T22:00:26.650Z</time>
      </trkpt>
      <trkpt lat="47.590854" lon="7.801694">
        <ele>358.202746</ele>
        <time>2021-11-17T22:00:29.340Z</time>
      </trkpt>
      <trkpt lat="47.590431" lon="7.801257">
        <ele>358.650792</ele>
        <time>2021-11-17T22:00:38.210Z</time>
      </trkpt>
      <trkpt lat="47.590019" lon="7.800882">
        <ele>359.270849</ele>
        <time>2021-11-17T22:00:47.592Z</time>
      </trkpt>
      <trkpt lat="47.589959" lon="7.800811">
        <ele>359.403781</ele>
        <time>2021-11-17T22:00:49.699Z</time>
      </trkpt>
      <trkpt lat="47.589545" lon="7.800321">
        <ele>360.321088</ele>
        <time>2021-11-17T22:01:00.986Z</time>
      </trkpt>
      <trkpt lat="47.589168" lon="7.799966">
        <ele>361.094456</ele>
        <time>2021-11-17T22:01:10.582Z</time>
      </trkpt>
      <trkpt lat="47.589236" lon="7.799724">
        <ele>361.400638</ele>
        <time>2021-11-17T22:01:15.959Z</time>
      </trkpt>
      <trkpt lat="47.589230" lon="7.799281">
        <ele>361.918126</ele>
        <time>2021-11-17T22:01:24.612Z</time>
      </trkpt>
      <trkpt lat="47.589167" lon="7.798816">
        <ele>362.483249</ele>
        <time>2021-11-17T22:01:33.600Z</time>
      </trkpt>
      <trkpt lat="47.589153" lon="7.798651">
        <ele>362.681931</ele>
        <time>2021-11-17T22:01:36.936Z</time>
      </trkpt>
      <trkpt lat="47.589272" lon="7.798569">
        <ele>362.914381</ele>
        <time>2021-11-17T22:01:39.886Z</time>
      </trkpt>
      <trkpt lat="47.589486" lon="7.798387">
        <ele>363.351395</ele>
        <time>2021-11-17T22:01:45.709Z</time>
      </trkpt>
      <trkpt lat="47.589692" lon="7.798248">
        <ele>363.752315</ele>
        <time>2021-11-17T22:01:50.849Z</time>
      </trkpt>
      <trkpt lat="47.589924" lon="7.798072">
        <ele>364.213949</ele>
        <time>2021-11-17T22:01:57.027Z</time>
      </trkpt>
      <trkpt lat="47.590924" lon="7.797504">
        <ele>364.810952</ele>
        <time>2021-11-17T22:02:17.673Z</time>
      </trkpt>
      <trkpt lat="47.591349" lon="7.797193">
        <ele>364.490215</ele>
        <time>2021-11-17T22:02:24.384Z</time>
      </trkpt>
      <trkpt lat="47.591728" lon="7.796915">
        <ele>364.204061</ele>
        <time>2021-11-17T22:02:29.309Z</time>
      </trkpt>
      <trkpt lat="47.592114" lon="7.796545">
        <ele>363.509426</ele>
        <time>2021-11-17T22:02:34.161Z</time>
      </trkpt>
      <trkpt lat="47.592429" lon="7.796406">
        <ele>361.866549</ele>
        <time>2021-11-17T22:02:37.488Z</time>
      </trkpt>
      <trkpt lat="47.592802" lon="7.796368">
        <ele>359.997591</ele>
        <time>2021-11-17T22:02:41.078Z</time>
      </trkpt>
      <trkpt lat="47.593608" lon="7.796793">
        <ele>355.721375</ele>
        <time>2021-11-17T22:02:48.866Z</time>
      </trkpt>
      <trkpt lat="47.594060" lon="7.796856">
        <ele>353.259021</ele>
        <time>2021-11-17T22:02:53.031Z</time>
      </trkpt>
      <trkpt lat="47.594601" lon="7.796746">
        <ele>350.180599</ele>
        <time>2021-11-17T22:02:57.989Z</time>
      </trkpt>
      <trkpt lat="47.595007" lon="7.796558">
        <ele>347.782777</ele>
        <time>2021-11-17T22:03:03.595Z</time>
      </trkpt>
      <trkpt lat="47.595521" lon="7.796160">
        <ele>344.689504</ele>
        <time>2021-11-17T22:03:11.507Z</time>
      </trkpt>
      <trkpt lat="47.595654" lon="7.795987">
        <ele>344.260449</ele>
        <time>2021-11-17T22:03:13.884Z</time>
      </trkpt>
      <trkpt lat="47.595673" lon="7.795870">
        <ele>344.063633</ele>
        <time>2021-11-17T22:03:15.106Z</time>
      </trkpt>
      <trkpt lat="47.595693" lon="7.795743">
        <ele>343.850344</ele>
        <time>2021-11-17T22:03:16.367Z</time>
      </trkpt>
      <trkpt lat="47.595715" lon="7.795565">
        <ele>343.554387</ele>
        <time>2021-11-17T22:03:18.056Z</time>
      </trkpt>
      <trkpt lat="47.595782" lon="7.795169">
        <ele>342.886682</ele>
        <time>2021-11-17T22:03:22.269Z</time>
      </trkpt>
      <trkpt lat="47.595878" lon="7.795020">
        <ele>342.549660</ele>
        <time>2021-11-17T22:03:24.312Z</time>
      </trkpt>
      <trkpt lat="47.595927" lon="7.794980">
        <ele>342.414010</ele>
        <time>2021-11-17T22:03:25.199Z</time>
      </trkpt>
      <trkpt lat="47.595927" lon="7.794980">
        <ele>342.414010</ele>
        <time>2021-11-17T22:03:25.213Z</time>
      </trkpt>
      <trkpt lat="47.595927" lon="7.794980">
        <ele>342.414010</ele>
        <time>2021-11-17T22:03:25.213Z</time>
      </trkpt>
      <trkpt lat="47.595927" lon="7.794979">
        <ele>342.412375</ele>
        <time>2021-11-17T22:03:25.226Z</time>
      </trkpt>
      <trkpt lat="47.596253" lon="7.794574">
        <ele>341.380985</ele>
        <time>2021-11-17T22:03:33.103Z</time>
      </trkpt>
      <trkpt lat="47.596346" lon="7.794636">
        <ele>341.133699</ele>
        <time>2021-11-17T22:03:34.747Z</time>
      </trkpt>
      <trkpt lat="47.596534" lon="7.794652">
        <ele>340.677015</ele>
        <time>2021-11-17T22:03:37.843Z</time>
      </trkpt>
      <trkpt lat="47.596551" lon="7.794634">
        <ele>340.626356</ele>
        <time>2021-11-17T22:03:38.520Z</time>
      </trkpt>
      <trkpt lat="47.597144" lon="7.793996">
        <ele>341.032367</ele>
        <time>2021-11-17T22:03:53.434Z</time>
      </trkpt>
      <trkpt lat="47.597274" lon="7.793915">
        <ele>341.153884</ele>
        <time>2021-11-17T22:03:56.253Z</time>
      </trkpt>
      <trkpt lat="47.597463" lon="7.793850">
        <ele>341.321081</ele>
        <time>2021-11-17T22:04:01.204Z</time>
      </trkpt>
      <trkpt lat="47.597814" lon="7.793727">
        <ele>341.631892</ele>
        <time>2021-11-17T22:04:10.625Z</time>
      </trkpt>
      <trkpt lat="47.597954" lon="7.793533">
        <ele>341.797015</ele>
        <time>2021-11-17T22:04:15.683Z</time>
      </trkpt>
      <trkpt lat="47.597960" lon="7.793371">
        <ele>341.891298</ele>
        <time>2021-11-17T22:04:18.933Z</time>
      </trkpt>
      <trkpt lat="47.597950" lon="7.793239">
        <ele>341.968487</ele>
        <time>2021-11-17T22:04:21.681Z</time>
      </trkpt>
      <trkpt lat="47.597944" lon="7.793222">
        <ele>341.979638</ele>
        <time>2021-11-17T22:04:22.004Z</time>
      </trkpt>
      <trkpt lat="47.597897" lon="7.793092">
        <ele>342.192196</ele>
        <time>2021-11-17T22:04:24.555Z</time>
      </trkpt>
      <trkpt lat="47.597646" lon="7.792396">
        <ele>343.703840</ele>
        <time>2021-11-17T22:04:40.814Z</time>
      </trkpt>
      <trkpt lat="47.597848" lon="7.792115">
        <ele>344.490467</ele>
        <time>2021-11-17T22:04:48.279Z</time>
      </trkpt>
      <trkpt lat="47.598017" lon="7.791913">
        <ele>345.106957</ele>
        <time>2021-11-17T22:04:54.218Z</time>
      </trkpt>
      <trkpt lat="47.598252" lon="7.791731">
        <ele>345.859935</ele>
        <time>2021-11-17T22:05:01.907Z</time>
      </trkpt>
      <trkpt lat="47.598592" lon="7.791580">
        <ele>346.867968</ele>
        <time>2021-11-17T22:05:12.170Z</time>
      </trkpt>
      <trkpt lat="47.599667" lon="7.791105">
        <ele>349.469732</ele>
        <time>2021-11-17T22:05:41.079Z</time>
      </trkpt>
      <trkpt lat="47.600151" lon="7.790895">
        <ele>350.617002</ele>
        <time>2021-11-17T22:05:51.915Z</time>
      </trkpt>
      <trkpt lat="47.600211" lon="7.790869">
        <ele>350.759212</ele>
        <time>2021-11-17T22:05:53.214Z</time>
      </trkpt>
      <trkpt lat="47.600304" lon="7.790832">
        <ele>350.978270</ele>
        <time>2021-11-17T22:05:55.208Z</time>
      </trkpt>
      <trkpt lat="47.601073" lon="7.790573">
        <ele>351.935558</ele>
        <time>2021-11-17T22:06:10.663Z</time>
      </trkpt>
      <trkpt lat="47.601359" lon="7.790478">
        <ele>352.245099</ele>
        <time>2021-11-17T22:06:16.078Z</time>
      </trkpt>
      <trkpt lat="47.601768" lon="7.790511">
        <ele>352.677701</ele>
        <time>2021-11-17T22:06:23.542Z</time>
      </trkpt>
      <trkpt lat="47.601954" lon="7.790533">
        <ele>352.874768</ele>
        <time>2021-11-17T22:06:26.868Z</time>
      </trkpt>
      <trkpt lat="47.602292" lon="7.790564">
        <ele>353.262849</ele>
        <time>2021-11-17T22:06:33.076Z</time>
      </trkpt>
      <trkpt lat="47.603218" lon="7.790665">
        <ele>354.487449</ele>
        <time>2021-11-17T22:06:50.738Z</time>
      </trkpt>
      <trkpt lat="47.603379" lon="7.790683">
        <ele>354.700394</ele>
        <time>2021-11-17T22:06:54.135Z</time>
      </trkpt>
      <trkpt lat="47.603500" lon="7.790696">
        <ele>354.860399</ele>
        <time>2021-11-17T22:06:56.818Z</time>
      </trkpt>
      <trkpt lat="47.604020" lon="7.790669">
        <ele>355.613625</ele>
        <time>2021-11-17T22:07:08.200Z</time>
      </trkpt>
      <trkpt lat="47.604312" lon="7.790667">
        <ele>356.400104</ele>
        <time>2021-11-17T22:07:14.702Z</time>
      </trkpt>
      <trkpt lat="47.604673" lon="7.790747">
        <ele>357.383213</ele>
        <time>2021-11-17T22:07:23.162Z</time>
      </trkpt>
      <trkpt lat="47.604776" lon="7.790738">
        <ele>357.661114</ele>
        <time>2021-11-17T22:07:25.716Z</time>
      </trkpt>
      <trkpt lat="47.604861" lon="7.790465">
        <ele>358.207188</ele>
        <time>2021-11-17T22:07:30.819Z</time>
      </trkpt>
      <trkpt lat="47.604933" lon="7.789879">
        <ele>359.288885</ele>
        <time>2021-11-17T22:07:41.557Z</time>
      </trkpt>
      <trkpt lat="47.605245" lon="7.789093">
        <ele>361.198734</ele>
        <time>2021-11-17T22:07:59.596Z</time>
      </trkpt>
      <trkpt lat="47.606058" lon="7.787870">
        <ele>365.596037</ele>
        <time>2021-11-17T22:08:36.932Z</time>
      </trkpt>
      <trkpt lat="47.606236" lon="7.787573">
        <ele>366.613443</ele>
        <time>2021-11-17T22:08:44.369Z</time>
      </trkpt>
      <trkpt lat="47.606482" lon="7.786756">
        <ele>368.003250</ele>
        <time>2021-11-17T22:09:00.229Z</time>
      </trkpt>
      <trkpt lat="47.606894" lon="7.785802">
        <ele>369.408047</ele>
        <time>2021-11-17T22:09:16.447Z</time>
      </trkpt>
      <trkpt lat="47.607090" lon="7.785536">
        <ele>369.896641</ele>
        <time>2021-11-17T22:09:21.876Z</time>
      </trkpt>
      <trkpt lat="47.607244" lon="7.785405">
        <ele>370.223140</ele>
        <time>2021-11-17T22:09:25.065Z</time>
      </trkpt>
      <trkpt lat="47.607357" lon="7.785276">
        <ele>370.486499</ele>
        <time>2021-11-17T22:09:28.018Z</time>
      </trkpt>
      <trkpt lat="47.607784" lon="7.784501">
        <ele>371.794906</ele>
        <time>2021-11-17T22:09:39.545Z</time>
      </trkpt>
      <trkpt lat="47.607811" lon="7.784422">
        <ele>371.910691</ele>
        <time>2021-11-17T22:09:40.852Z</time>
      </trkpt>
      <trkpt lat="47.608000" lon="7.783873">
        <ele>372.716527</ele>
        <time>2021-11-17T22:09:49.604Z</time>
      </trkpt>
      <trkpt lat="47.608067" lon="7.783679">
        <ele>373.001472</ele>
        <time>2021-11-17T22:09:53.248Z</time>
      </trkpt>
      <trkpt lat="47.608293" lon="7.782840">
        <ele>374.600544</ele>
        <time>2021-11-17T22:10:10.062Z</time>
      </trkpt>
      <trkpt lat="47.608319" lon="7.782746">
        <ele>374.974649</ele>
        <time>2021-11-17T22:10:12.256Z</time>
      </trkpt>
      <trkpt lat="47.608448" lon="7.782041">
        <ele>377.664373</ele>
        <time>2021-11-17T22:10:28.171Z</time>
      </trkpt>
      <trkpt lat="47.608437" lon="7.781938">
        <ele>378.048349</ele>
        <time>2021-11-17T22:10:30.546Z</time>
      </trkpt>
      <trkpt lat="47.608309" lon="7.781587">
        <ele>379.517681</ele>
        <time>2021-11-17T22:10:40.459Z</time>
      </trkpt>
      <trkpt lat="47.608295" lon="7.781364">
        <ele>380.342324</ele>
        <time>2021-11-17T22:10:46.007Z</time>
      </trkpt>
      <trkpt lat="47.608399" lon="7.780950">
        <ele>381.969056</ele>
        <time>2021-11-17T22:10:58.031Z</time>
      </trkpt>
      <trkpt lat="47.608573" lon="7.780374">
        <ele>384.535081</ele>
        <time>2021-11-17T22:11:17.222Z</time>
      </trkpt>
      <trkpt lat="47.608894" lon="7.779407">
        <ele>390.359627</ele>
        <time>2021-11-17T22:11:51.835Z</time>
      </trkpt>
      <trkpt lat="47.609368" lon="7.778574">
        <ele>396.249965</ele>
        <time>2021-11-17T22:12:27.278Z</time>
      </trkpt>
      <trkpt lat="47.610133" lon="7.777501">
        <ele>403.871626</ele>
        <time>2021-11-17T22:13:16.140Z</time>
      </trkpt>
      <trkpt lat="47.610341" lon="7.777059">
        <ele>406.417935</ele>
        <time>2021-11-17T22:13:31.887Z</time>
      </trkpt>
      <trkpt lat="47.610448" lon="7.776605">
        <ele>408.689841</ele>
        <time>2021-11-17T22:13:45.100Z</time>
      </trkpt>
      <trkpt lat="47.610502" lon="7.776042">
        <ele>411.115343</ele>
        <time>2021-11-17T22:13:59.811Z</time>
      </trkpt>
      <trkpt lat="47.610473" lon="7.775477">
        <ele>412.590702</ele>
        <time>2021-11-17T22:14:13.261Z</time>
      </trkpt>
      <trkpt lat="47.610312" lon="7.774653">
        <ele>414.824460</ele>
        <time>2021-11-17T22:14:30.496Z</time>
      </trkpt>
      <trkpt lat="47.610139" lon="7.773592">
        <ele>417.666671</ele>
        <time>2021-11-17T22:14:49.693Z</time>
      </trkpt>
      <trkpt lat="47.610132" lon="7.773138">
        <ele>418.459878</ele>
        <time>2021-11-17T22:14:57.444Z</time>
      </trkpt>
      <trkpt lat="47.610187" lon="7.772679">
        <ele>419.247131</ele>
        <time>2021-11-17T22:15:05.139Z</time>
      </trkpt>
      <trkpt lat="47.610258" lon="7.772352">
        <ele>419.827261</ele>
        <time>2021-11-17T22:15:10.216Z</time>
      </trkpt>
      <trkpt lat="47.610490" lon="7.771899">
        <ele>420.787926</ele>
        <time>2021-11-17T22:15:19.331Z</time>
      </trkpt>
      <trkpt lat="47.611349" lon="7.770818">
        <ele>423.862592</ele>
        <time>2021-11-17T22:15:48.336Z</time>
      </trkpt>
      <trkpt lat="47.611495" lon="7.770538">
        <ele>424.571317</ele>
        <time>2021-11-17T22:15:55.628Z</time>
      </trkpt>
      <trkpt lat="47.611735" lon="7.769126">
        <ele>427.486831</ele>
        <time>2021-11-17T22:16:21.631Z</time>
      </trkpt>
      <trkpt lat="47.611843" lon="7.768871">
        <ele>428.084829</ele>
        <time>2021-11-17T22:16:27.190Z</time>
      </trkpt>
      <trkpt lat="47.611960" lon="7.768717">
        <ele>428.544797</ele>
        <time>2021-11-17T22:16:31.416Z</time>
      </trkpt>
      <trkpt lat="47.612502" lon="7.768119">
        <ele>430.531131</ele>
        <time>2021-11-17T22:16:48.850Z</time>
      </trkpt>
      <trkpt lat="47.612771" lon="7.767909">
        <ele>431.425006</ele>
        <time>2021-11-17T22:16:56.885Z</time>
      </trkpt>
      <trkpt lat="47.613003" lon="7.767758">
        <ele>432.170004</ele>
        <time>2021-11-17T22:17:03.678Z</time>
      </trkpt>
      <trkpt lat="47.613205" lon="7.767665">
        <ele>432.791954</ele>
        <time>2021-11-17T22:17:09.694Z</time>
      </trkpt>
      <trkpt lat="47.613763" lon="7.767578">
        <ele>434.701432</ele>
        <time>2021-11-17T22:17:24.691Z</time>
      </trkpt>
      <trkpt lat="47.614123" lon="7.767665">
        <ele>435.952013</ele>
        <time>2021-11-17T22:17:35.288Z</time>
      </trkpt>
      <trkpt lat="47.614663" lon="7.767520">
        <ele>437.833565</ele>
        <time>2021-11-17T22:17:52.211Z</time>
      </trkpt>
      <trkpt lat="47.614847" lon="7.767530">
        <ele>438.464857</ele>
        <time>2021-11-17T22:17:57.384Z</time>
      </trkpt>
      <trkpt lat="47.615034" lon="7.767629">
        <ele>439.113609</ele>
        <time>2021-11-17T22:18:03.135Z</time>
      </trkpt>
      <trkpt lat="47.615686" lon="7.768286">
        <ele>440.959347</ele>
        <time>2021-11-17T22:18:24.288Z</time>
      </trkpt>
      <trkpt lat="47.615847" lon="7.768379">
        <ele>441.363938</ele>
        <time>2021-11-17T22:18:28.326Z</time>
      </trkpt>
      <trkpt lat="47.616270" lon="7.768392">
        <ele>442.354700</ele>
        <time>2021-11-17T22:18:37.788Z</time>
      </trkpt>
      <trkpt lat="47.616428" lon="7.768317">
        <ele>442.743172</ele>
        <time>2021-11-17T22:18:41.591Z</time>
      </trkpt>
      <trkpt lat="47.616591" lon="7.768154">
        <ele>443.203498</ele>
        <time>2021-11-17T22:18:45.236Z</time>
      </trkpt>
      <trkpt lat="47.617229" lon="7.767356">
        <ele>444.227592</ele>
        <time>2021-11-17T22:19:01.446Z</time>
      </trkpt>
      <trkpt lat="47.617431" lon="7.767002">
        <ele>444.601534</ele>
        <time>2021-11-17T22:19:07.241Z</time>
      </trkpt>
      <trkpt lat="47.617587" lon="7.766558">
        <ele>445.005215</ele>
        <time>2021-11-17T22:19:13.589Z</time>
      </trkpt>
      <trkpt lat="47.617756" lon="7.765839">
        <ele>445.578309</ele>
        <time>2021-11-17T22:19:23.860Z</time>
      </trkpt>
      <trkpt lat="47.617927" lon="7.765048">
        <ele>446.118615</ele>
        <time>2021-11-17T22:19:35.276Z</time>
      </trkpt>
      <trkpt lat="47.618136" lon="7.764529">
        <ele>446.511843</ele>
        <time>2021-11-17T22:19:43.670Z</time>
      </trkpt>
      <trkpt lat="47.618356" lon="7.764125">
        <ele>446.849653</ele>
        <time>2021-11-17T22:19:50.403Z</time>
      </trkpt>
      <trkpt lat="47.618514" lon="7.763900">
        <ele>447.060985</ele>
        <time>2021-11-17T22:19:54.129Z</time>
      </trkpt>
      <trkpt lat="47.618753" lon="7.763750">
        <ele>446.810478</ele>
        <time>2021-11-17T22:19:58.062Z</time>
      </trkpt>
      <trkpt lat="47.619022" lon="7.763758">
        <ele>446.295748</ele>
        <time>2021-11-17T22:20:01.519Z</time>
      </trkpt>
      <trkpt lat="47.619329" lon="7.764008">
        <ele>445.625762</ele>
        <time>2021-11-17T22:20:05.568Z</time>
      </trkpt>
      <trkpt lat="47.619502" lon="7.764194">
        <ele>445.217021</ele>
        <time>2021-11-17T22:20:07.884Z</time>
      </trkpt>
      <trkpt lat="47.619627" lon="7.764641">
        <ele>444.592963</ele>
        <time>2021-11-17T22:20:11.303Z</time>
      </trkpt>
      <trkpt lat="47.619705" lon="7.765107">
        <ele>443.973793</ele>
        <time>2021-11-17T22:20:14.588Z</time>
      </trkpt>
      <trkpt lat="47.619832" lon="7.765722">
        <ele>442.519983</ele>
        <time>2021-11-17T22:20:18.863Z</time>
      </trkpt>
      <trkpt lat="47.620092" lon="7.767207">
        <ele>438.328086</ele>
        <time>2021-11-17T22:20:28.797Z</time>
      </trkpt>
      <trkpt lat="47.620307" lon="7.767734">
        <ele>436.645048</ele>
        <time>2021-11-17T22:20:32.818Z</time>
      </trkpt>
      <trkpt lat="47.620543" lon="7.768057">
        <ele>435.526246</ele>
        <time>2021-11-17T22:20:35.988Z</time>
      </trkpt>
      <trkpt lat="47.621839" lon="7.768898">
        <ele>430.772999</ele>
        <time>2021-11-17T22:20:50.201Z</time>
      </trkpt>
      <trkpt lat="47.622371" lon="7.769061">
        <ele>429.537550</ele>
        <time>2021-11-17T22:20:55.959Z</time>
      </trkpt>
      <trkpt lat="47.623349" lon="7.769241">
        <ele>427.601451</ele>
        <time>2021-11-17T22:21:06.757Z</time>
      </trkpt>
      <trkpt lat="47.624248" lon="7.769501">
        <ele>426.257869</ele>
        <time>2021-11-17T22:21:17.845Z</time>
      </trkpt>
      <trkpt lat="47.624611" lon="7.769610">
        <ele>425.851545</ele>
        <time>2021-11-17T22:21:22.452Z</time>
      </trkpt>
      <trkpt lat="47.624769" lon="7.769638">
        <ele>425.676970</ele>
        <time>2021-11-17T22:21:24.522Z</time>
      </trkpt>
      <trkpt lat="47.625096" lon="7.769705">
        <ele>425.314810</ele>
        <time>2021-11-17T22:21:28.539Z</time>
      </trkpt>
      <trkpt lat="47.625380" lon="7.769739">
        <ele>425.002219</ele>
        <time>2021-11-17T22:21:31.963Z</time>
      </trkpt>
      <trkpt lat="47.625663" lon="7.769773">
        <ele>424.552406</ele>
        <time>2021-11-17T22:21:35.274Z</time>
      </trkpt>
      <trkpt lat="47.626274" lon="7.769785">
        <ele>423.337622</ele>
        <time>2021-11-17T22:21:42.478Z</time>
      </trkpt>
      <trkpt lat="47.626675" lon="7.769973">
        <ele>422.501580</ele>
        <time>2021-11-17T22:21:47.128Z</time>
      </trkpt>
      <trkpt lat="47.627069" lon="7.770397">
        <ele>421.533980</ele>
        <time>2021-11-17T22:21:52.113Z</time>
      </trkpt>
      <trkpt lat="47.627589" lon="7.771292">
        <ele>419.936615</ele>
        <time>2021-11-17T22:22:00.389Z</time>
      </trkpt>
      <trkpt lat="47.627790" lon="7.771752">
        <ele>419.194317</ele>
        <time>2021-11-17T22:22:04.300Z</time>
      </trkpt>
      <trkpt lat="47.627843" lon="7.771878">
        <ele>418.993210</ele>
        <time>2021-11-17T22:22:05.319Z</time>
      </trkpt>
      <trkpt lat="47.628071" lon="7.772437">
        <ele>418.108506</ele>
        <time>2021-11-17T22:22:10.222Z</time>
      </trkpt>
      <trkpt lat="47.628459" lon="7.773585">
        <ele>417.895884</ele>
        <time>2021-11-17T22:22:23.005Z</time>
      </trkpt>
      <trkpt lat="47.628757" lon="7.774190">
        <ele>418.070559</ele>
        <time>2021-11-17T22:22:32.895Z</time>
      </trkpt>
      <trkpt lat="47.628835" lon="7.774386">
        <ele>418.123617</ele>
        <time>2021-11-17T22:22:35.500Z</time>
      </trkpt>
      <trkpt lat="47.628913" lon="7.774584">
        <ele>418.177077</ele>
        <time>2021-11-17T22:22:39.391Z</time>
      </trkpt>
      <trkpt lat="47.629477" lon="7.776561">
        <ele>416.429575</ele>
        <time>2021-11-17T22:23:00.196Z</time>
      </trkpt>
      <trkpt lat="47.629739" lon="7.777102">
        <ele>415.675034</ele>
        <time>2021-11-17T22:23:04.653Z</time>
      </trkpt>
      <trkpt lat="47.630120" lon="7.777463">
        <ele>414.064033</ele>
        <time>2021-11-17T22:23:08.966Z</time>
      </trkpt>
      <trkpt lat="47.630423" lon="7.777640">
        <ele>412.206951</ele>
        <time>2021-11-17T22:23:11.997Z</time>
      </trkpt>
      <trkpt lat="47.631619" lon="7.778161">
        <ele>405.098353</ele>
        <time>2021-11-17T22:23:23.396Z</time>
      </trkpt>
      <trkpt lat="47.631946" lon="7.778226">
        <ele>403.056518</ele>
        <time>2021-11-17T22:23:26.402Z</time>
      </trkpt>
      <trkpt lat="47.632866" lon="7.778126">
        <ele>397.326304</ele>
        <time>2021-11-17T22:23:34.832Z</time>
      </trkpt>
      <trkpt lat="47.633379" lon="7.777778">
        <ele>393.821961</ele>
        <time>2021-11-17T22:23:39.986Z</time>
      </trkpt>
      <trkpt lat="47.633928" lon="7.777200">
        <ele>389.527229</ele>
        <time>2021-11-17T22:23:46.124Z</time>
      </trkpt>
      <trkpt lat="47.634334" lon="7.777067">
        <ele>386.874501</ele>
        <time>2021-11-17T22:23:49.890Z</time>
      </trkpt>
      <trkpt lat="47.635865" lon="7.777362">
        <ele>377.518358</ele>
        <time>2021-11-17T22:24:03.950Z</time>
      </trkpt>
      <trkpt lat="47.636624" lon="7.777638">
        <ele>372.993687</ele>
        <time>2021-11-17T22:24:11.260Z</time>
      </trkpt>
      <trkpt lat="47.637701" lon="7.777589">
        <ele>366.672772</ele>
        <time>2021-11-17T22:24:21.257Z</time>
      </trkpt>
      <trkpt lat="47.638130" lon="7.777591">
        <ele>364.149579</ele>
        <time>2021-11-17T22:24:25.151Z</time>
      </trkpt>
      <trkpt lat="47.638523" lon="7.777631">
        <ele>361.832704</ele>
        <time>2021-11-17T22:24:28.742Z</time>
      </trkpt>
      <trkpt lat="47.638601" lon="7.777645">
        <ele>361.370827</ele>
        <time>2021-11-17T22:24:29.451Z</time>
      </trkpt>
      <trkpt lat="47.638857" lon="7.777693">
        <ele>360.173726</ele>
        <time>2021-11-17T22:24:31.845Z</time>
      </trkpt>
      <trkpt lat="47.639092" lon="7.777737">
        <ele>359.074848</ele>
        <time>2021-11-17T22:24:34.039Z</time>
      </trkpt>
      <trkpt lat="47.639551" lon="7.777821">
        <ele>356.929282</ele>
        <time>2021-11-17T22:24:38.344Z</time>
      </trkpt>
      <trkpt lat="47.639581" lon="7.777832">
        <ele>356.785918</ele>
        <time>2021-11-17T22:24:38.630Z</time>
      </trkpt>
      <trkpt lat="47.639647" lon="7.777857">
        <ele>356.469909</ele>
        <time>2021-11-17T22:24:39.271Z</time>
      </trkpt>
      <trkpt lat="47.639952" lon="7.778026">
        <ele>354.959523</ele>
        <time>2021-11-17T22:24:42.406Z</time>
      </trkpt>
      <trkpt lat="47.640214" lon="7.778094">
        <ele>353.725581</ele>
        <time>2021-11-17T22:24:45.073Z</time>
      </trkpt>
      <trkpt lat="47.640603" lon="7.778070">
        <ele>352.819863</ele>
        <time>2021-11-17T22:24:49.153Z</time>
      </trkpt>
      <trkpt lat="47.640774" lon="7.778034">
        <ele>352.669891</ele>
        <time>2021-11-17T22:24:51.102Z</time>
      </trkpt>
      <trkpt lat="47.640847" lon="7.778085">
        <ele>352.599831</ele>
        <time>2021-11-17T22:24:52.033Z</time>
      </trkpt>
      <trkpt lat="47.641101" lon="7.778647">
        <ele>352.203904</ele>
        <time>2021-11-17T22:24:58.064Z</time>
      </trkpt>
      <trkpt lat="47.641206" lon="7.778877">
        <ele>352.041361</ele>
        <time>2021-11-17T22:25:00.753Z</time>
      </trkpt>
      <trkpt lat="47.641301" lon="7.779088">
        <ele>351.892888</ele>
        <time>2021-11-17T22:25:03.385Z</time>
      </trkpt>
      <trkpt lat="47.641383" lon="7.779295">
        <ele>351.752401</ele>
        <time>2021-11-17T22:25:05.794Z</time>
      </trkpt>
      <trkpt lat="47.641504" lon="7.779524">
        <ele>351.582138</ele>
        <time>2021-11-17T22:25:08.855Z</time>
      </trkpt>
      <trkpt lat="47.641685" lon="7.779623">
        <ele>351.475466</ele>
        <time>2021-11-17T22:25:11.767Z</time>
      </trkpt>
      <trkpt lat="47.642281" lon="7.779841">
        <ele>351.581136</ele>
        <time>2021-11-17T22:25:21.633Z</time>
      </trkpt>
      <trkpt lat="47.642518" lon="7.779960">
        <ele>351.624207</ele>
        <time>2021-11-17T22:25:25.694Z</time>
      </trkpt>
      <trkpt lat="47.642942" lon="7.780152">
        <ele>351.700520</ele>
        <time>2021-11-17T22:25:32.518Z</time>
      </trkpt>
      <trkpt lat="47.643119" lon="7.780225">
        <ele>351.732145</ele>
        <time>2021-11-17T22:25:35.251Z</time>
      </trkpt>
      <trkpt lat="47.643396" lon="7.780339">
        <ele>351.771463</ele>
        <time>2021-11-17T22:25:39.548Z</time>
      </trkpt>
      <trkpt lat="47.643746" lon="7.780507">
        <ele>351.737149</ele>
        <time>2021-11-17T22:25:44.958Z</time>
      </trkpt>
      <trkpt lat="47.643785" lon="7.780623">
        <ele>351.729001</ele>
        <time>2021-11-17T22:25:46.190Z</time>
      </trkpt>
      <trkpt lat="47.643778" lon="7.781224">
        <ele>351.691224</ele>
        <time>2021-11-17T22:25:51.915Z</time>
      </trkpt>
      <trkpt lat="47.643834" lon="7.781566">
        <ele>351.669104</ele>
        <time>2021-11-17T22:25:55.272Z</time>
      </trkpt>
      <trkpt lat="47.643928" lon="7.781772">
        <ele>351.653467</ele>
        <time>2021-11-17T22:25:57.615Z</time>
      </trkpt>
      <trkpt lat="47.644146" lon="7.782149">
        <ele>351.622243</ele>
        <time>2021-11-17T22:26:02.430Z</time>
      </trkpt>
      <trkpt lat="47.644444" lon="7.782671">
        <ele>351.629822</ele>
        <time>2021-11-17T22:26:09.273Z</time>
      </trkpt>
      <trkpt lat="47.644569" lon="7.782891">
        <ele>351.644396</ele>
        <time>2021-11-17T22:26:12.118Z</time>
      </trkpt>
      <trkpt lat="47.644732" lon="7.783167">
        <ele>351.662983</ele>
        <time>2021-11-17T22:26:15.832Z</time>
      </trkpt>
      <trkpt lat="47.645408" lon="7.784254">
        <ele>351.737898</ele>
        <time>2021-11-17T22:26:31.126Z</time>
      </trkpt>
      <trkpt lat="47.645495" lon="7.784387">
        <ele>351.766577</ele>
        <time>2021-11-17T22:26:33.055Z</time>
      </trkpt>
      <trkpt lat="47.645924" lon="7.785043">
        <ele>351.997611</ele>
        <time>2021-11-17T22:26:42.971Z</time>
      </trkpt>
      <trkpt lat="47.646218" lon="7.785414">
        <ele>352.142356</ele>
        <time>2021-11-17T22:26:49.206Z</time>
      </trkpt>
      <trkpt lat="47.646561" lon="7.785746">
        <ele>352.295953</ele>
        <time>2021-11-17T22:26:55.916Z</time>
      </trkpt>
      <trkpt lat="47.647121" lon="7.786115">
        <ele>352.634523</ele>
        <time>2021-11-17T22:27:06.249Z</time>
      </trkpt>
      <trkpt lat="47.647217" lon="7.786135">
        <ele>352.707278</ele>
        <time>2021-11-17T22:27:08.154Z</time>
      </trkpt>
      <trkpt lat="47.647216" lon="7.786198">
        <ele>352.739140</ele>
        <time>2021-11-17T22:27:08.869Z</time>
      </trkpt>
      <trkpt lat="47.647326" lon="7.786370">
        <ele>352.859051</ele>
        <time>2021-11-17T22:27:11.645Z</time>
      </trkpt>
      <trkpt lat="47.647369" lon="7.786370">
        <ele>352.891323</ele>
        <time>2021-11-17T22:27:12.431Z</time>
      </trkpt>
      <trkpt lat="47.647379" lon="7.786512">
        <ele>352.963511</ele>
        <time>2021-11-17T22:27:14.508Z</time>
      </trkpt>
      <trkpt lat="47.647410" lon="7.786910">
        <ele>353.166086</ele>
        <time>2021-11-17T22:27:19.183Z</time>
      </trkpt>
      <trkpt lat="47.647437" lon="7.787254">
        <ele>353.341193</ele>
        <time>2021-11-17T22:27:23.395Z</time>
      </trkpt>
      <trkpt lat="47.647501" lon="7.788090">
        <ele>353.766605</ele>
        <time>2021-11-17T22:27:33.571Z</time>
      </trkpt>
      <trkpt lat="47.647498" lon="7.788274">
        <ele>353.856540</ele>
        <time>2021-11-17T22:27:35.732Z</time>
      </trkpt>
      <trkpt lat="47.647488" lon="7.788411">
        <ele>353.923864</ele>
        <time>2021-11-17T22:27:37.276Z</time>
      </trkpt>
      <trkpt lat="47.647471" lon="7.788455">
        <ele>353.948645</ele>
        <time>2021-11-17T22:27:37.934Z</time>
      </trkpt>
      <trkpt lat="47.647432" lon="7.788504">
        <ele>353.985699</ele>
        <time>2021-11-17T22:27:38.885Z</time>
      </trkpt>
      <trkpt lat="47.647405" lon="7.788568">
        <ele>354.022592</ele>
        <time>2021-11-17T22:27:40.041Z</time>
      </trkpt>
      <trkpt lat="47.647398" lon="7.788718">
        <ele>354.096051</ele>
        <time>2021-11-17T22:27:41.849Z</time>
      </trkpt>
      <trkpt lat="47.647419" lon="7.788788">
        <ele>354.133488</ele>
        <time>2021-11-17T22:27:42.836Z</time>
      </trkpt>
      <trkpt lat="47.647454" lon="7.788845">
        <ele>354.171167</ele>
        <time>2021-11-17T22:27:43.679Z</time>
      </trkpt>
      <trkpt lat="47.647500" lon="7.788882">
        <ele>354.209109</ele>
        <time>2021-11-17T22:27:44.687Z</time>
      </trkpt>
      <trkpt lat="47.647551" lon="7.788896">
        <ele>354.246721</ele>
        <time>2021-11-17T22:27:45.577Z</time>
      </trkpt>
      <trkpt lat="47.647612" lon="7.788984">
        <ele>354.308408</ele>
        <time>2021-11-17T22:27:47.162Z</time>
      </trkpt>
      <trkpt lat="47.647624" lon="7.789001">
        <ele>354.320438</ele>
        <time>2021-11-17T22:27:47.380Z</time>
      </trkpt>
      <trkpt lat="47.647704" lon="7.789138">
        <ele>354.409014</ele>
        <time>2021-11-17T22:27:49.655Z</time>
      </trkpt>
      <trkpt lat="47.647772" lon="7.789319">
        <ele>354.510263</ele>
        <time>2021-11-17T22:27:52.161Z</time>
      </trkpt>
      <trkpt lat="47.647846" lon="7.789831">
        <ele>354.766095</ele>
        <time>2021-11-17T22:27:58.415Z</time>
      </trkpt>
      <trkpt lat="47.647864" lon="7.790654">
        <ele>355.101785</ele>
        <time>2021-11-17T22:28:07.817Z</time>
      </trkpt>
      <trkpt lat="47.647873" lon="7.791582">
        <ele>355.243868</ele>
        <time>2021-11-17T22:28:17.932Z</time>
      </trkpt>
      <trkpt lat="47.647903" lon="7.793030">
        <ele>355.465649</ele>
        <time>2021-11-17T22:28:33.119Z</time>
      </trkpt>
      <trkpt lat="47.647916" lon="7.793798">
        <ele>355.546611</ele>
        <time>2021-11-17T22:28:40.688Z</time>
      </trkpt>
      <trkpt lat="47.647936" lon="7.794393">
        <ele>355.605404</ele>
        <time>2021-11-17T22:28:46.450Z</time>
      </trkpt>
      <trkpt lat="47.647966" lon="7.794923">
        <ele>355.657895</ele>
        <time>2021-11-17T22:28:51.895Z</time>
      </trkpt>
      <trkpt lat="47.647978" lon="7.795111">
        <ele>355.676532</ele>
        <time>2021-11-17T22:28:53.932Z</time>
      </trkpt>
      <trkpt lat="47.648078" lon="7.795921">
        <ele>355.815877</ele>
        <time>2021-11-17T22:29:02.945Z</time>
      </trkpt>
      <trkpt lat="47.648174" lon="7.796377">
        <ele>356.055998</ele>
        <time>2021-11-17T22:29:08.351Z</time>
      </trkpt>
      <trkpt lat="47.648315" lon="7.796884">
        <ele>356.331681</ele>
        <time>2021-11-17T22:29:15.011Z</time>
      </trkpt>
      <trkpt lat="47.648466" lon="7.797372">
        <ele>356.601589</ele>
        <time>2021-11-17T22:29:21.719Z</time>
      </trkpt>
      <trkpt lat="47.648660" lon="7.798005">
        <ele>356.951116</ele>
        <time>2021-11-17T22:29:30.650Z</time>
      </trkpt>
      <trkpt lat="47.648795" lon="7.798707">
        <ele>357.096597</ele>
        <time>2021-11-17T22:29:39.623Z</time>
      </trkpt>
      <trkpt lat="47.648796" lon="7.798736">
        <ele>357.097292</ele>
        <time>2021-11-17T22:29:40.028Z</time>
      </trkpt>
      <trkpt lat="47.648812" lon="7.799448">
        <ele>357.114348</ele>
        <time>2021-11-17T22:29:47.494Z</time>
      </trkpt>
      <trkpt lat="47.648778" lon="7.799781">
        <ele>357.122412</ele>
        <time>2021-11-17T22:29:50.773Z</time>
      </trkpt>
      <trkpt lat="47.648762" lon="7.799984">
        <ele>357.127305</ele>
        <time>2021-11-17T22:29:52.605Z</time>
      </trkpt>
      <trkpt lat="47.648758" lon="7.800042">
        <ele>357.128701</ele>
        <time>2021-11-17T22:29:53.144Z</time>
      </trkpt>
      <trkpt lat="47.648756" lon="7.800183">
        <ele>357.132078</ele>
        <time>2021-11-17T22:29:54.429Z</time>
      </trkpt>
      <trkpt lat="47.648756" lon="7.800267">
        <ele>357.134089</ele>
        <time>2021-11-17T22:29:55.232Z</time>
      </trkpt>
      <trkpt lat="47.648750" lon="7.800358">
        <ele>357.136278</ele>
        <time>2021-11-17T22:29:56.073Z</time>
      </trkpt>
      <trkpt lat="47.648725" lon="7.800411">
        <ele>357.137827</ele>
        <time>2021-11-17T22:29:56.616Z</time>
      </trkpt>
      <trkpt lat="47.648716" lon="7.800474">
        <ele>357.139369</ele>
        <time>2021-11-17T22:29:57.186Z</time>
      </trkpt>
      <trkpt lat="47.648722" lon="7.800528">
        <ele>357.140680</ele>
        <time>2021-11-17T22:29:57.677Z</time>
      </trkpt>
      <trkpt lat="47.648751" lon="7.800596">
        <ele>357.142607</ele>
        <time>2021-11-17T22:29:58.389Z</time>
      </trkpt>
      <trkpt lat="47.648773" lon="7.800620">
        <ele>357.143577</ele>
        <time>2021-11-17T22:29:58.738Z</time>
      </trkpt>
      <trkpt lat="47.648813" lon="7.800640">
        <ele>357.145077</ele>
        <time>2021-11-17T22:29:59.316Z</time>
      </trkpt>
      <trkpt lat="47.648813" lon="7.800640">
        <ele>357.145077</ele>
        <time>2021-11-17T22:29:59.320Z</time>
      </trkpt>
      <trkpt lat="47.648842" lon="7.800639">
        <ele>357.146108</ele>
        <time>2021-11-17T22:29:59.727Z</time>
      </trkpt>
      <trkpt lat="47.648906" lon="7.800592">
        <ele>357.148646</ele>
        <time>2021-11-17T22:30:00.747Z</time>
      </trkpt>
      <trkpt lat="47.648922" lon="7.800561">
        <ele>357.149161</ele>
        <time>2021-11-17T22:30:01.062Z</time>
      </trkpt>
      <trkpt lat="47.649025" lon="7.800505">
        <ele>357.141104</ele>
        <time>2021-11-17T22:30:02.479Z</time>
      </trkpt>
      <trkpt lat="47.649108" lon="7.800464">
        <ele>357.134679</ele>
        <time>2021-11-17T22:30:03.594Z</time>
      </trkpt>
      <trkpt lat="47.649203" lon="7.800419">
        <ele>357.127354</ele>
        <time>2021-11-17T22:30:04.974Z</time>
      </trkpt>
      <trkpt lat="47.649238" lon="7.800402">
        <ele>357.124649</ele>
        <time>2021-11-17T22:30:05.451Z</time>
      </trkpt>
      <trkpt lat="47.649278" lon="7.800388">
        <ele>357.121630</ele>
        <time>2021-11-17T22:30:05.933Z</time>
      </trkpt>
      <trkpt lat="47.649415" lon="7.800336">
        <ele>357.111243</ele>
        <time>2021-11-17T22:30:07.767Z</time>
      </trkpt>
      <trkpt lat="47.649440" lon="7.800327">
        <ele>357.109353</ele>
        <time>2021-11-17T22:30:08.076Z</time>
      </trkpt>
      <trkpt lat="47.649707" lon="7.800227">
        <ele>357.089126</ele>
        <time>2021-11-17T22:30:11.709Z</time>
      </trkpt>
      <trkpt lat="47.650046" lon="7.800072">
        <ele>357.063071</ele>
        <time>2021-11-17T22:30:16.735Z</time>
      </trkpt>
      <trkpt lat="47.650174" lon="7.800012">
        <ele>357.053211</ele>
        <time>2021-11-17T22:30:19.076Z</time>
      </trkpt>
      <trkpt lat="47.650222" lon="7.799990">
        <ele>357.049521</ele>
        <time>2021-11-17T22:30:19.845Z</time>
      </trkpt>
      <trkpt lat="47.650489" lon="7.799868">
        <ele>357.029001</ele>
        <time>2021-11-17T22:30:24.483Z</time>
      </trkpt>
      <trkpt lat="47.650602" lon="7.799816">
        <ele>357.020311</ele>
        <time>2021-11-17T22:30:26.435Z</time>
      </trkpt>
      <trkpt lat="47.650980" lon="7.799643">
        <ele>357.239228</ele>
        <time>2021-11-17T22:30:33.649Z</time>
      </trkpt>
      <trkpt lat="47.651021" lon="7.799621">
        <ele>357.266485</ele>
        <time>2021-11-17T22:30:34.398Z</time>
      </trkpt>
      <trkpt lat="47.651401" lon="7.799445">
        <ele>357.515362</ele>
        <time>2021-11-17T22:30:41.723Z</time>
      </trkpt>
      <trkpt lat="47.651510" lon="7.799390">
        <ele>357.587340</ele>
        <time>2021-11-17T22:30:44.843Z</time>
      </trkpt>
      <trkpt lat="47.651610" lon="7.799288">
        <ele>357.663198</ele>
        <time>2021-11-17T22:30:47.199Z</time>
      </trkpt>
      <trkpt lat="47.651827" lon="7.799068">
        <ele>357.827491</ele>
        <time>2021-11-17T22:30:53.624Z</time>
      </trkpt>
      <trkpt lat="47.652373" lon="7.798474">
        <ele>358.091018</ele>
        <time>2021-11-17T22:31:08.188Z</time>
      </trkpt>
      <trkpt lat="47.652486" lon="7.798377">
        <ele>358.052893</ele>
        <time>2021-11-17T22:31:10.549Z</time>
      </trkpt>
      <trkpt lat="47.652755" lon="7.798191">
        <ele>357.966220</ele>
        <time>2021-11-17T22:31:16.908Z</time>
      </trkpt>
      <trkpt lat="47.652811" lon="7.798152">
        <ele>357.948153</ele>
        <time>2021-11-17T22:31:17.918Z</time>
      </trkpt>
      <trkpt lat="47.653088" lon="7.798043">
        <ele>357.864454</ele>
        <time>2021-11-17T22:31:23.378Z</time>
      </trkpt>
      <trkpt lat="47.653274" lon="7.797996">
        <ele>357.809347</ele>
        <time>2021-11-17T22:31:26.670Z</time>
      </trkpt>
      <trkpt lat="47.653601" lon="7.798001">
        <ele>357.713833</ele>
        <time>2021-11-17T22:31:32.684Z</time>
      </trkpt>
      <trkpt lat="47.653659" lon="7.798008">
        <ele>357.696837</ele>
        <time>2021-11-17T22:31:33.825Z</time>
      </trkpt>
      <trkpt lat="47.653906" lon="7.798052">
        <ele>357.624177</ele>
        <time>2021-11-17T22:31:38.305Z</time>
      </trkpt>
      <trkpt lat="47.654669" lon="7.798247">
        <ele>357.704806</ele>
        <time>2021-11-17T22:31:53.518Z</time>
      </trkpt>
      <trkpt lat="47.654972" lon="7.798325">
        <ele>357.741098</ele>
        <time>2021-11-17T22:32:00.101Z</time>
      </trkpt>
      <trkpt lat="47.655261" lon="7.798389">
        <ele>357.775581</ele>
        <time>2021-11-17T22:32:06.497Z</time>
      </trkpt>
      <trkpt lat="47.655500" lon="7.798448">
        <ele>357.804173</ele>
        <time>2021-11-17T22:32:11.807Z</time>
      </trkpt>
      <trkpt lat="47.656074" lon="7.798592">
        <ele>358.027682</ele>
        <time>2021-11-17T22:32:24.707Z</time>
      </trkpt>
      <trkpt lat="47.656097" lon="7.798598">
        <ele>358.040116</ele>
        <time>2021-11-17T22:32:25.242Z</time>
      </trkpt>
      <trkpt lat="47.656579" lon="7.798702">
        <ele>358.299458</ele>
        <time>2021-11-17T22:32:36.173Z</time>
      </trkpt>
      <trkpt lat="47.656780" lon="7.798744">
        <ele>358.407537</ele>
        <time>2021-11-17T22:32:40.702Z</time>
      </trkpt>
      <trkpt lat="47.656989" lon="7.798756">
        <ele>358.518904</ele>
        <time>2021-11-17T22:32:45.355Z</time>
      </trkpt>
      <trkpt lat="47.657806" lon="7.798860">
        <ele>358.942562</ele>
        <time>2021-11-17T22:33:03.741Z</time>
      </trkpt>
      <trkpt lat="47.658094" lon="7.798895">
        <ele>359.084628</ele>
        <time>2021-11-17T22:33:10.061Z</time>
      </trkpt>
      <trkpt lat="47.658412" lon="7.798888">
        <ele>359.240987</ele>
        <time>2021-11-17T22:33:16.993Z</time>
      </trkpt>
      <trkpt lat="47.658617" lon="7.798885">
        <ele>359.341778</ele>
        <time>2021-11-17T22:33:21.634Z</time>
      </trkpt>
      <trkpt lat="47.658702" lon="7.798884">
        <ele>359.383569</ele>
        <time>2021-11-17T22:33:23.514Z</time>
      </trkpt>
      <trkpt lat="47.658990" lon="7.798898">
        <ele>359.525237</ele>
        <time>2021-11-17T22:33:29.975Z</time>
      </trkpt>
      <trkpt lat="47.659142" lon="7.798947">
        <ele>359.601708</ele>
        <time>2021-11-17T22:33:33.375Z</time>
      </trkpt>
      <trkpt lat="47.659353" lon="7.799038">
        <ele>359.709244</ele>
        <time>2021-11-17T22:33:38.310Z</time>
      </trkpt>
      <trkpt lat="47.659617" lon="7.799151">
        <ele>359.842628</ele>
        <time>2021-11-17T22:33:44.379Z</time>
      </trkpt>
      <trkpt lat="47.659695" lon="7.799185">
        <ele>359.882094</ele>
        <time>2021-11-17T22:33:46.200Z</time>
      </trkpt>
      <trkpt lat="47.659866" lon="7.799258">
        <ele>359.968473</ele>
        <time>2021-11-17T22:33:50.196Z</time>
      </trkpt>
      <trkpt lat="47.660413" lon="7.799490">
        <ele>360.244649</ele>
        <time>2021-11-17T22:34:02.616Z</time>
      </trkpt>
      <trkpt lat="47.660755" lon="7.799654">
        <ele>360.419126</ele>
        <time>2021-11-17T22:34:10.460Z</time>
      </trkpt>
      <trkpt lat="47.660793" lon="7.799673">
        <ele>360.438592</ele>
        <time>2021-11-17T22:34:11.376Z</time>
      </trkpt>
      <trkpt lat="47.661187" lon="7.799870">
        <ele>360.687971</ele>
        <time>2021-11-17T22:34:20.683Z</time>
      </trkpt>
      <trkpt lat="47.661224" lon="7.799885">
        <ele>360.715770</ele>
        <time>2021-11-17T22:34:21.643Z</time>
      </trkpt>
      <trkpt lat="47.661603" lon="7.800090">
        <ele>361.008132</ele>
        <time>2021-11-17T22:34:30.898Z</time>
      </trkpt>
      <trkpt lat="47.662007" lon="7.800299">
        <ele>361.318218</ele>
        <time>2021-11-17T22:34:40.683Z</time>
      </trkpt>
      <trkpt lat="47.662416" lon="7.800534">
        <ele>361.636086</ele>
        <time>2021-11-17T22:34:51.300Z</time>
      </trkpt>
      <trkpt lat="47.663470" lon="7.800659">
        <ele>362.250198</ele>
        <time>2021-11-17T22:35:15.491Z</time>
      </trkpt>
      <trkpt lat="47.663623" lon="7.800669">
        <ele>362.330738</ele>
        <time>2021-11-17T22:35:19.077Z</time>
      </trkpt>
      <trkpt lat="47.663648" lon="7.800671">
        <ele>362.343904</ele>
        <time>2021-11-17T22:35:19.632Z</time>
      </trkpt>
      <trkpt lat="47.663842" lon="7.800716">
        <ele>362.447164</ele>
        <time>2021-11-17T22:35:23.883Z</time>
      </trkpt>
      <trkpt lat="47.664106" lon="7.800746">
        <ele>362.586405</ele>
        <time>2021-11-17T22:35:29.694Z</time>
      </trkpt>
      <trkpt lat="47.664689" lon="7.800933">
        <ele>362.803483</ele>
        <time>2021-11-17T22:35:42.538Z</time>
      </trkpt>
      <trkpt lat="47.664798" lon="7.800967">
        <ele>362.808955</ele>
        <time>2021-11-17T22:35:44.817Z</time>
      </trkpt>
      <trkpt lat="47.664905" lon="7.801009">
        <ele>362.814392</ele>
        <time>2021-11-17T22:35:46.485Z</time>
      </trkpt>
      <trkpt lat="47.664978" lon="7.801054">
        <ele>362.818275</ele>
        <time>2021-11-17T22:35:47.800Z</time>
      </trkpt>
      <trkpt lat="47.665172" lon="7.801118">
        <ele>362.828038</ele>
        <time>2021-11-17T22:35:50.825Z</time>
      </trkpt>
      <trkpt lat="47.665245" lon="7.801124">
        <ele>362.831630</ele>
        <time>2021-11-17T22:35:51.887Z</time>
      </trkpt>
      <trkpt lat="47.665316" lon="7.801149">
        <ele>362.835215</ele>
        <time>2021-11-17T22:35:52.915Z</time>
      </trkpt>
      <trkpt lat="47.665387" lon="7.801168">
        <ele>362.838759</ele>
        <time>2021-11-17T22:35:53.922Z</time>
      </trkpt>
      <trkpt lat="47.665445" lon="7.801185">
        <ele>362.841663</ele>
        <time>2021-11-17T22:35:54.750Z</time>
      </trkpt>
      <trkpt lat="47.665568" lon="7.801222">
        <ele>362.847829</ele>
        <time>2021-11-17T22:35:56.478Z</time>
      </trkpt>
      <trkpt lat="47.665926" lon="7.801299">
        <ele>362.865600</ele>
        <time>2021-11-17T22:36:01.633Z</time>
      </trkpt>
      <trkpt lat="47.667310" lon="7.801563">
        <ele>363.049637</ele>
        <time>2021-11-17T22:36:22.940Z</time>
      </trkpt>
      <trkpt lat="47.667457" lon="7.801591">
        <ele>363.073009</ele>
        <time>2021-11-17T22:36:25.238Z</time>
      </trkpt>
      <trkpt lat="47.667683" lon="7.801634">
        <ele>363.108939</ele>
        <time>2021-11-17T22:36:28.834Z</time>
      </trkpt>
      <trkpt lat="47.668510" lon="7.801819">
        <ele>363.392299</ele>
        <time>2021-11-17T22:36:42.152Z</time>
      </trkpt>
      <trkpt lat="47.669789" lon="7.802222">
        <ele>364.013273</ele>
        <time>2021-11-17T22:37:04.285Z</time>
      </trkpt>
      <trkpt lat="47.670454" lon="7.802523">
        <ele>364.506376</ele>
        <time>2021-11-17T22:37:16.541Z</time>
      </trkpt>
      <trkpt lat="47.671719" lon="7.803219">
        <ele>365.490832</ele>
        <time>2021-11-17T22:37:40.553Z</time>
      </trkpt>
      <trkpt lat="47.672584" lon="7.803691">
        <ele>366.233242</ele>
        <time>2021-11-17T22:37:57.078Z</time>
      </trkpt>
      <trkpt lat="47.672895" lon="7.803860">
        <ele>366.500034</ele>
        <time>2021-11-17T22:38:03.036Z</time>
      </trkpt>
      <trkpt lat="47.673196" lon="7.804045">
        <ele>366.765550</ele>
        <time>2021-11-17T22:38:08.941Z</time>
      </trkpt>
      <trkpt lat="47.673946" lon="7.804566">
        <ele>367.650250</ele>
        <time>2021-11-17T22:38:24.699Z</time>
      </trkpt>
      <trkpt lat="47.674603" lon="7.805215">
        <ele>368.493352</ele>
        <time>2021-11-17T22:38:39.969Z</time>
      </trkpt>
      <trkpt lat="47.674775" lon="7.805343">
        <ele>368.701289</ele>
        <time>2021-11-17T22:38:43.799Z</time>
      </trkpt>
      <trkpt lat="47.674984" lon="7.805448">
        <ele>368.960320</ele>
        <time>2021-11-17T22:38:47.972Z</time>
      </trkpt>
      <trkpt lat="47.675373" lon="7.805530">
        <ele>369.421595</ele>
        <time>2021-11-17T22:38:55.594Z</time>
      </trkpt>
      <trkpt lat="47.675967" lon="7.805369">
        <ele>370.130486</ele>
        <time>2021-11-17T22:39:07.328Z</time>
      </trkpt>
      <trkpt lat="47.676130" lon="7.805401">
        <ele>370.323517</ele>
        <time>2021-11-17T22:39:10.615Z</time>
      </trkpt>
      <trkpt lat="47.678058" lon="7.806976">
        <ele>373.177567</ele>
        <time>2021-11-17T22:39:54.120Z</time>
      </trkpt>
      <trkpt lat="47.678361" lon="7.807188">
        <ele>373.878378</ele>
        <time>2021-11-17T22:40:01.640Z</time>
      </trkpt>
      <trkpt lat="47.678488" lon="7.807276">
        <ele>374.171603</ele>
        <time>2021-11-17T22:40:04.980Z</time>
      </trkpt>
      <trkpt lat="47.678718" lon="7.807469">
        <ele>374.724341</ele>
        <time>2021-11-17T22:40:10.858Z</time>
      </trkpt>
      <trkpt lat="47.679035" lon="7.807798">
        <ele>375.533509</ele>
        <time>2021-11-17T22:40:20.173Z</time>
      </trkpt>
      <trkpt lat="47.679093" lon="7.807855">
        <ele>375.679027</ele>
        <time>2021-11-17T22:40:21.947Z</time>
      </trkpt>
      <trkpt lat="47.679211" lon="7.807962">
        <ele>375.968302</ele>
        <time>2021-11-17T22:40:25.250Z</time>
      </trkpt>
      <trkpt lat="47.679337" lon="7.808074">
        <ele>376.275546</ele>
        <time>2021-11-17T22:40:28.761Z</time>
      </trkpt>
      <trkpt lat="47.679509" lon="7.808150">
        <ele>376.651020</ele>
        <time>2021-11-17T22:40:33.103Z</time>
      </trkpt>
      <trkpt lat="47.679852" lon="7.808259">
        <ele>377.422794</ele>
        <time>2021-11-17T22:40:41.558Z</time>
      </trkpt>
      <trkpt lat="47.680002" lon="7.808310">
        <ele>377.771293</ele>
        <time>2021-11-17T22:40:45.342Z</time>
      </trkpt>
      <trkpt lat="47.680190" lon="7.808369">
        <ele>378.206466</ele>
        <time>2021-11-17T22:40:50.373Z</time>
      </trkpt>
      <trkpt lat="47.680296" lon="7.808398">
        <ele>378.450567</ele>
        <time>2021-11-17T22:40:53.227Z</time>
      </trkpt>
      <trkpt lat="47.680998" lon="7.808558">
        <ele>380.059029</ele>
        <time>2021-11-17T22:41:10.452Z</time>
      </trkpt>
      <trkpt lat="47.681112" lon="7.808625">
        <ele>380.336687</ele>
        <time>2021-11-17T22:41:13.133Z</time>
      </trkpt>
      <trkpt lat="47.681354" lon="7.808953">
        <ele>381.063848</ele>
        <time>2021-11-17T22:41:20.238Z</time>
      </trkpt>
      <trkpt lat="47.681416" lon="7.808985">
        <ele>381.184888</ele>
        <time>2021-11-17T22:41:21.984Z</time>
      </trkpt>
      <trkpt lat="47.681479" lon="7.808934">
        <ele>381.317201</ele>
        <time>2021-11-17T22:41:23.418Z</time>
      </trkpt>
      <trkpt lat="47.681525" lon="7.808831">
        <ele>381.470658</ele>
        <time>2021-11-17T22:41:25.129Z</time>
      </trkpt>
      <trkpt lat="47.681566" lon="7.808766">
        <ele>381.581243</ele>
        <time>2021-11-17T22:41:26.572Z</time>
      </trkpt>
      <trkpt lat="47.681743" lon="7.808468">
        <ele>382.074625</ele>
        <time>2021-11-17T22:41:32.174Z</time>
      </trkpt>
      <trkpt lat="47.681980" lon="7.808264">
        <ele>382.579760</ele>
        <time>2021-11-17T22:41:37.946Z</time>
      </trkpt>
      <trkpt lat="47.682788" lon="7.807894">
        <ele>384.138996</ele>
        <time>2021-11-17T22:41:56.760Z</time>
      </trkpt>
      <trkpt lat="47.683018" lon="7.807663">
        <ele>384.863545</ele>
        <time>2021-11-17T22:42:03.121Z</time>
      </trkpt>
      <trkpt lat="47.683100" lon="7.807543">
        <ele>385.210455</ele>
        <time>2021-11-17T22:42:05.999Z</time>
      </trkpt>
      <trkpt lat="47.683227" lon="7.807391">
        <ele>385.701979</ele>
        <time>2021-11-17T22:42:09.393Z</time>
      </trkpt>
      <trkpt lat="47.683298" lon="7.807196">
        <ele>386.151769</ele>
        <time>2021-11-17T22:42:13.825Z</time>
      </trkpt>
      <trkpt lat="47.683414" lon="7.806933">
        <ele>386.789688</ele>
        <time>2021-11-17T22:42:18.808Z</time>
      </trkpt>
      <trkpt lat="47.683440" lon="7.806883">
        <ele>386.917871</ele>
        <time>2021-11-17T22:42:20.516Z</time>
      </trkpt>
      <trkpt lat="47.683762" lon="7.806139">
        <ele>388.712379</ele>
        <time>2021-11-17T22:42:37.420Z</time>
      </trkpt>
      <trkpt lat="47.684002" lon="7.805825">
        <ele>389.676224</ele>
        <time>2021-11-17T22:42:47.567Z</time>
      </trkpt>
      <trkpt lat="47.685433" lon="7.804734">
        <ele>394.440812</ele>
        <time>2021-11-17T22:43:32.887Z</time>
      </trkpt>
      <trkpt lat="47.685474" lon="7.804690">
        <ele>394.590607</ele>
        <time>2021-11-17T22:43:34.579Z</time>
      </trkpt>
      <trkpt lat="47.685544" lon="7.804620">
        <ele>394.840512</ele>
        <time>2021-11-17T22:43:35.757Z</time>
      </trkpt>
      <trkpt lat="47.686085" lon="7.803707">
        <ele>394.947688</ele>
        <time>2021-11-17T22:43:50.217Z</time>
      </trkpt>
      <trkpt lat="47.686282" lon="7.803470">
        <ele>394.908330</ele>
        <time>2021-11-17T22:43:53.720Z</time>
      </trkpt>
      <trkpt lat="47.686515" lon="7.803165">
        <ele>394.860115</ele>
        <time>2021-11-17T22:43:57.801Z</time>
      </trkpt>
      <trkpt lat="47.686861" lon="7.802763">
        <ele>394.791918</ele>
        <time>2021-11-17T22:44:02.724Z</time>
      </trkpt>
      <trkpt lat="47.686988" lon="7.802664">
        <ele>394.625579</ele>
        <time>2021-11-17T22:44:04.377Z</time>
      </trkpt>
      <trkpt lat="47.687345" lon="7.802442">
        <ele>393.957706</ele>
        <time>2021-11-17T22:44:08.707Z</time>
      </trkpt>
      <trkpt lat="47.687389" lon="7.802394">
        <ele>393.863500</ele>
        <time>2021-11-17T22:44:09.294Z</time>
      </trkpt>
      <trkpt lat="47.687529" lon="7.802242">
        <ele>393.564254</ele>
        <time>2021-11-17T22:44:11.222Z</time>
      </trkpt>
      <trkpt lat="47.688168" lon="7.801084">
        <ele>391.824825</ele>
        <time>2021-11-17T22:44:22.396Z</time>
      </trkpt>
      <trkpt lat="47.688515" lon="7.800635">
        <ele>391.021153</ele>
        <time>2021-11-17T22:44:27.778Z</time>
      </trkpt>
      <trkpt lat="47.688706" lon="7.800220">
        <ele>390.428569</ele>
        <time>2021-11-17T22:44:31.751Z</time>
      </trkpt>
      <trkpt lat="47.688835" lon="7.799732">
        <ele>389.810581</ele>
        <time>2021-11-17T22:44:35.608Z</time>
      </trkpt>
      <trkpt lat="47.688987" lon="7.799109">
        <ele>389.029480</ele>
        <time>2021-11-17T22:44:40.516Z</time>
      </trkpt>
      <trkpt lat="47.689229" lon="7.798474">
        <ele>388.299969</ele>
        <time>2021-11-17T22:44:46.012Z</time>
      </trkpt>
      <trkpt lat="47.689312" lon="7.798158">
        <ele>388.044762</ele>
        <time>2021-11-17T22:44:48.566Z</time>
      </trkpt>
      <trkpt lat="47.689375" lon="7.798016">
        <ele>387.916808</ele>
        <time>2021-11-17T22:44:49.897Z</time>
      </trkpt>
      <trkpt lat="47.689359" lon="7.797846">
        <ele>387.787661</ele>
        <time>2021-11-17T22:44:51.140Z</time>
      </trkpt>
      <trkpt lat="47.689337" lon="7.797614">
        <ele>387.611388</ele>
        <time>2021-11-17T22:44:53.167Z</time>
      </trkpt>
      <trkpt lat="47.689304" lon="7.797526">
        <ele>387.535599</ele>
        <time>2021-11-17T22:44:54.034Z</time>
      </trkpt>
      <trkpt lat="47.689267" lon="7.797481">
        <ele>387.482153</ele>
        <time>2021-11-17T22:44:54.587Z</time>
      </trkpt>
      <trkpt lat="47.689198" lon="7.797440">
        <ele>387.399092</ele>
        <time>2021-11-17T22:44:55.429Z</time>
      </trkpt>
      <trkpt lat="47.688818" lon="7.797354">
        <ele>386.969471</ele>
        <time>2021-11-17T22:45:00.036Z</time>
      </trkpt>
      <trkpt lat="47.688760" lon="7.797271">
        <ele>386.879460</ele>
        <time>2021-11-17T22:45:01.094Z</time>
      </trkpt>
      <trkpt lat="47.688677" lon="7.797115">
        <ele>386.729854</ele>
        <time>2021-11-17T22:45:02.705Z</time>
      </trkpt>
      <trkpt lat="47.688460" lon="7.796657">
        <ele>387.113304</ele>
        <time>2021-11-17T22:45:07.071Z</time>
      </trkpt>
      <trkpt lat="47.688430" lon="7.796592">
        <ele>387.279467</ele>
        <time>2021-11-17T22:45:09.746Z</time>
      </trkpt>
      <trkpt lat="47.688376" lon="7.796471">
        <ele>387.585553</ele>
        <time>2021-11-17T22:45:11.072Z</time>
      </trkpt>
      <trkpt lat="47.688243" lon="7.796236">
        <ele>388.232868</ele>
        <time>2021-11-17T22:45:14.389Z</time>
      </trkpt>
      <trkpt lat="47.688100" lon="7.796113">
        <ele>388.750413</ele>
        <time>2021-11-17T22:45:19.537Z</time>
      </trkpt>
      <trkpt lat="47.687750" lon="7.795967">
        <ele>389.889034</ele>
        <time>2021-11-17T22:45:29.040Z</time>
      </trkpt>
      <trkpt lat="47.687733" lon="7.795960">
        <ele>389.944286</ele>
        <time>2021-11-17T22:45:29.537Z</time>
      </trkpt>
      <trkpt lat="47.687589" lon="7.795875">
        <ele>390.429604</ele>
        <time>2021-11-17T22:45:32.792Z</time>
      </trkpt>
      <trkpt lat="47.687244" lon="7.795566">
        <ele>391.691375</ele>
        <time>2021-11-17T22:45:47.812Z</time>
      </trkpt>
      <trkpt lat="47.687249" lon="7.795522">
        <ele>391.785459</ele>
        <time>2021-11-17T22:45:51.009Z</time>
      </trkpt>
      <trkpt lat="47.687118" lon="7.794989">
        <ele>394.194128</ele>
        <time>2021-11-17T22:46:07.061Z</time>
      </trkpt>
      <trkpt lat="47.687098" lon="7.794479">
        <ele>396.847914</ele>
        <time>2021-11-17T22:46:21.858Z</time>
      </trkpt>
      <trkpt lat="47.687138" lon="7.794064">
        <ele>399.025697</ele>
        <time>2021-11-17T22:46:31.975Z</time>
      </trkpt>
      <trkpt lat="47.687191" lon="7.793851">
        <ele>400.205333</ele>
        <time>2021-11-17T22:46:41.284Z</time>
      </trkpt>
      <trkpt lat="47.687361" lon="7.793342">
        <ele>403.156963</ele>
        <time>2021-11-17T22:47:00.753Z</time>
      </trkpt>
      <trkpt lat="47.687464" lon="7.792610">
        <ele>407.121127</ele>
        <time>2021-11-17T22:47:24.940Z</time>
      </trkpt>
      <trkpt lat="47.687407" lon="7.792415">
        <ele>408.312503</ele>
        <time>2021-11-17T22:47:31.731Z</time>
      </trkpt>
      <trkpt lat="47.687158" lon="7.792068">
        <ele>411.154766</ele>
        <time>2021-11-17T22:47:48.596Z</time>
      </trkpt>
      <trkpt lat="47.687038" lon="7.791877">
        <ele>412.618906</ele>
        <time>2021-11-17T22:47:56.683Z</time>
      </trkpt>
      <trkpt lat="47.687040" lon="7.791794">
        <ele>413.084347</ele>
        <time>2021-11-17T22:48:00.605Z</time>
      </trkpt>
      <trkpt lat="47.687103" lon="7.791534">
        <ele>414.632938</ele>
        <time>2021-11-17T22:48:08.223Z</time>
      </trkpt>
      <trkpt lat="47.687215" lon="7.791427">
        <ele>415.741501</ele>
        <time>2021-11-17T22:48:13.758Z</time>
      </trkpt>
      <trkpt lat="47.687813" lon="7.791654">
        <ele>420.879744</ele>
        <time>2021-11-17T22:48:44.644Z</time>
      </trkpt>
      <trkpt lat="47.687969" lon="7.791654">
        <ele>422.140339</ele>
        <time>2021-11-17T22:48:52.142Z</time>
      </trkpt>
      <trkpt lat="47.688121" lon="7.791525">
        <ele>423.550302</ele>
        <time>2021-11-17T22:49:00.983Z</time>
      </trkpt>
      <trkpt lat="47.688316" lon="7.791155">
        <ele>426.098079</ele>
        <time>2021-11-17T22:49:16.385Z</time>
      </trkpt>
      <trkpt lat="47.688559" lon="7.790888">
        <ele>428.532472</ele>
        <time>2021-11-17T22:49:27.485Z</time>
      </trkpt>
      <trkpt lat="47.688615" lon="7.790837">
        <ele>429.061526</ele>
        <time>2021-11-17T22:49:32.054Z</time>
      </trkpt>
      <trkpt lat="47.688719" lon="7.790743">
        <ele>430.042036</ele>
        <time>2021-11-17T22:49:38.972Z</time>
      </trkpt>
      <trkpt lat="47.688799" lon="7.790640">
        <ele>430.894705</ele>
        <time>2021-11-17T22:49:42.537Z</time>
      </trkpt>
      <trkpt lat="47.688847" lon="7.790430">
        <ele>432.097132</ele>
        <time>2021-11-17T22:49:49.866Z</time>
      </trkpt>
      <trkpt lat="47.688671" lon="7.790034">
        <ele>434.669923</ele>
        <time>2021-11-17T22:50:04.841Z</time>
      </trkpt>
      <trkpt lat="47.688652" lon="7.789780">
        <ele>436.085549</ele>
        <time>2021-11-17T22:50:13.857Z</time>
      </trkpt>
      <trkpt lat="47.688823" lon="7.789278">
        <ele>439.298757</ele>
        <time>2021-11-17T22:50:31.134Z</time>
      </trkpt>
      <trkpt lat="47.688888" lon="7.789165">
        <ele>440.147652</ele>
        <time>2021-11-17T22:50:34.319Z</time>
      </trkpt>
      <trkpt lat="47.688994" lon="7.789125">
        <ele>441.075542</ele>
        <time>2021-11-17T22:50:40.324Z</time>
      </trkpt>
      <trkpt lat="47.689053" lon="7.789168">
        <ele>441.633107</ele>
        <time>2021-11-17T22:50:43.883Z</time>
      </trkpt>
      <trkpt lat="47.689075" lon="7.789206">
        <ele>441.919358</ele>
        <time>2021-11-17T22:50:46.074Z</time>
      </trkpt>
      <trkpt lat="47.689060" lon="7.789389">
        <ele>442.972224</ele>
        <time>2021-11-17T22:50:49.867Z</time>
      </trkpt>
      <trkpt lat="47.688948" lon="7.789669">
        <ele>444.832378</ele>
        <time>2021-11-17T22:50:58.984Z</time>
      </trkpt>
      <trkpt lat="47.688943" lon="7.789870">
        <ele>445.981113</ele>
        <time>2021-11-17T22:51:03.837Z</time>
      </trkpt>
      <trkpt lat="47.688941" lon="7.789940">
        <ele>446.381257</ele>
        <time>2021-11-17T22:51:05.960Z</time>
      </trkpt>
      <trkpt lat="47.688968" lon="7.789979">
        <ele>446.700767</ele>
        <time>2021-11-17T22:51:08.270Z</time>
      </trkpt>
      <trkpt lat="47.689112" lon="7.790189">
        <ele>448.412800</ele>
        <time>2021-11-17T22:51:21.338Z</time>
      </trkpt>
      <trkpt lat="47.689457" lon="7.790508">
        <ele>452.282954</ele>
        <time>2021-11-17T22:51:44.104Z</time>
      </trkpt>
      <trkpt lat="47.689560" lon="7.790697">
        <ele>454.201710</ele>
        <time>2021-11-17T22:51:53.625Z</time>
      </trkpt>
      <trkpt lat="47.689594" lon="7.790998">
        <ele>456.609939</ele>
        <time>2021-11-17T22:52:06.963Z</time>
      </trkpt>
      <trkpt lat="47.689483" lon="7.791571">
        <ele>461.314657</ele>
        <time>2021-11-17T22:52:30.115Z</time>
      </trkpt>
      <trkpt lat="47.689478" lon="7.791714">
        <ele>462.444513</ele>
        <time>2021-11-17T22:52:36.946Z</time>
      </trkpt>
      <trkpt lat="47.689493" lon="7.791819">
        <ele>463.291462</ele>
        <time>2021-11-17T22:52:43.411Z</time>
      </trkpt>
      <trkpt lat="47.689562" lon="7.791973">
        <ele>464.751152</ele>
        <time>2021-11-17T22:52:49.398Z</time>
      </trkpt>
      <trkpt lat="47.689723" lon="7.792013">
        <ele>466.664558</ele>
        <time>2021-11-17T22:52:59.413Z</time>
      </trkpt>
      <trkpt lat="47.690160" lon="7.791653">
        <ele>472.459878</ele>
        <time>2021-11-17T22:53:32.882Z</time>
      </trkpt>
      <trkpt lat="47.690673" lon="7.791691">
        <ele>477.936223</ele>
        <time>2021-11-17T22:54:04.869Z</time>
      </trkpt>
      <trkpt lat="47.690878" lon="7.791600">
        <ele>480.217399</ele>
        <time>2021-11-17T22:54:20.541Z</time>
      </trkpt>
      <trkpt lat="47.690962" lon="7.791506">
        <ele>481.338654</ele>
        <time>2021-11-17T22:54:25.999Z</time>
      </trkpt>
      <trkpt lat="47.691191" lon="7.790978">
        <ele>485.846482</ele>
        <time>2021-11-17T22:54:47.984Z</time>
      </trkpt>
      <trkpt lat="47.691292" lon="7.790910">
        <ele>487.028757</ele>
        <time>2021-11-17T22:54:53.744Z</time>
      </trkpt>
      <trkpt lat="47.691492" lon="7.790912">
        <ele>489.161183</ele>
        <time>2021-11-17T22:55:03.693Z</time>
      </trkpt>
      <trkpt lat="47.691895" lon="7.791101">
        <ele>493.437799</ele>
        <time>2021-11-17T22:55:24.750Z</time>
      </trkpt>
      <trkpt lat="47.692274" lon="7.791152">
        <ele>497.144799</ele>
        <time>2021-11-17T22:55:43.769Z</time>
      </trkpt>
      <trkpt lat="47.692357" lon="7.791249">
        <ele>498.173493</ele>
        <time>2021-11-17T22:55:49.134Z</time>
      </trkpt>
      <trkpt lat="47.692453" lon="7.791760">
        <ele>501.652100</ele>
        <time>2021-11-17T22:56:07.199Z</time>
      </trkpt>
      <trkpt lat="47.692577" lon="7.791966">
        <ele>503.464126</ele>
        <time>2021-11-17T22:56:16.855Z</time>
      </trkpt>
      <trkpt lat="47.692958" lon="7.792103">
        <ele>507.282656</ele>
        <time>2021-11-17T22:56:39.312Z</time>
      </trkpt>
      <trkpt lat="47.693130" lon="7.792245">
        <ele>509.493600</ele>
        <time>2021-11-17T22:56:51.528Z</time>
      </trkpt>
      <trkpt lat="47.693282" lon="7.792508">
        <ele>512.771869</ele>
        <time>2021-11-17T22:57:06.371Z</time>
      </trkpt>
      <trkpt lat="47.693458" lon="7.792642">
        <ele>515.550480</ele>
        <time>2021-11-17T22:57:19.695Z</time>
      </trkpt>
      <trkpt lat="47.693702" lon="7.792693">
        <ele>519.012451</ele>
        <time>2021-11-17T22:57:36.911Z</time>
      </trkpt>
      <trkpt lat="47.693919" lon="7.792585">
        <ele>522.227836</ele>
        <time>2021-11-17T22:57:53.403Z</time>
      </trkpt>
      <trkpt lat="47.694013" lon="7.792371">
        <ele>524.644439</ele>
        <time>2021-11-17T22:58:06.359Z</time>
      </trkpt>
      <trkpt lat="47.694064" lon="7.791324">
        <ele>534.563511</ele>
        <time>2021-11-17T22:59:00.247Z</time>
      </trkpt>
      <trkpt lat="47.693979" lon="7.790379">
        <ele>543.482905</ele>
        <time>2021-11-17T22:59:52.647Z</time>
      </trkpt>
      <trkpt lat="47.693998" lon="7.789148">
        <ele>555.002373</ele>
        <time>2021-11-17T23:00:48.427Z</time>
      </trkpt>
      <trkpt lat="47.693993" lon="7.788872">
        <ele>557.585386</ele>
        <time>2021-11-17T23:01:02.005Z</time>
      </trkpt>
      <trkpt lat="47.693980" lon="7.788494">
        <ele>560.210384</ele>
        <time>2021-11-17T23:01:16.052Z</time>
      </trkpt>
      <trkpt lat="47.694047" lon="7.788220">
        <ele>561.861540</ele>
        <time>2021-11-17T23:01:27.389Z</time>
      </trkpt>
      <trkpt lat="47.694456" lon="7.787953">
        <ele>565.620798</ele>
        <time>2021-11-17T23:01:49.222Z</time>
      </trkpt>
      <trkpt lat="47.694478" lon="7.787914">
        <ele>565.909008</ele>
        <time>2021-11-17T23:01:50.783Z</time>
      </trkpt>
      <trkpt lat="47.694417" lon="7.787167">
        <ele>570.170958</ele>
        <time>2021-11-17T23:02:15.552Z</time>
      </trkpt>
      <trkpt lat="47.694107" lon="7.785943">
        <ele>576.700231</ele>
        <time>2021-11-17T23:02:46.960Z</time>
      </trkpt>
      <trkpt lat="47.694144" lon="7.785593">
        <ele>578.222649</ele>
        <time>2021-11-17T23:02:56.822Z</time>
      </trkpt>
      <trkpt lat="47.694397" lon="7.785583">
        <ele>579.838407</ele>
        <time>2021-11-17T23:03:07.202Z</time>
      </trkpt>
      <trkpt lat="47.694834" lon="7.785803">
        <ele>582.784091</ele>
        <time>2021-11-17T23:03:25.091Z</time>
      </trkpt>
      <trkpt lat="47.695081" lon="7.786017">
        <ele>584.609510</ele>
        <time>2021-11-17T23:03:36.986Z</time>
      </trkpt>
      <trkpt lat="47.695162" lon="7.786020">
        <ele>585.126786</ele>
        <time>2021-11-17T23:03:40.447Z</time>
      </trkpt>
      <trkpt lat="47.695230" lon="7.785993">
        <ele>585.618941</ele>
        <time>2021-11-17T23:03:43.532Z</time>
      </trkpt>
      <trkpt lat="47.695490" lon="7.785615">
        <ele>588.590681</ele>
        <time>2021-11-17T23:04:00.307Z</time>
      </trkpt>
      <trkpt lat="47.695771" lon="7.785532">
        <ele>590.931160</ele>
        <time>2021-11-17T23:04:14.058Z</time>
      </trkpt>
      <trkpt lat="47.695906" lon="7.785323">
        <ele>592.523915</ele>
        <time>2021-11-17T23:04:24.838Z</time>
      </trkpt>
      <trkpt lat="47.696013" lon="7.785035">
        <ele>594.332693</ele>
        <time>2021-11-17T23:04:35.635Z</time>
      </trkpt>
      <trkpt lat="47.696342" lon="7.784550">
        <ele>598.118854</ele>
        <time>2021-11-17T23:04:58.948Z</time>
      </trkpt>
      <trkpt lat="47.696383" lon="7.784288">
        <ele>599.597854</ele>
        <time>2021-11-17T23:05:07.542Z</time>
      </trkpt>
      <trkpt lat="47.696366" lon="7.783565">
        <ele>602.261548</ele>
        <time>2021-11-17T23:05:29.205Z</time>
      </trkpt>
      <trkpt lat="47.696408" lon="7.783395">
        <ele>602.878990</ele>
        <time>2021-11-17T23:05:35.653Z</time>
      </trkpt>
      <trkpt lat="47.696486" lon="7.783198">
        <ele>603.658277</ele>
        <time>2021-11-17T23:05:40.912Z</time>
      </trkpt>
      <trkpt lat="47.696640" lon="7.782774">
        <ele>605.300991</ele>
        <time>2021-11-17T23:05:53.208Z</time>
      </trkpt>
      <trkpt lat="47.696767" lon="7.782153">
        <ele>607.513903</ele>
        <time>2021-11-17T23:06:06.488Z</time>
      </trkpt>
      <trkpt lat="47.696801" lon="7.781858">
        <ele>608.534358</ele>
        <time>2021-11-17T23:06:12.643Z</time>
      </trkpt>
      <trkpt lat="47.696836" lon="7.781652">
        <ele>609.227584</ele>
        <time>2021-11-17T23:06:15.412Z</time>
      </trkpt>
      <trkpt lat="47.696845" lon="7.781614">
        <ele>609.225124</ele>
        <time>2021-11-17T23:06:16.030Z</time>
      </trkpt>
      <trkpt lat="47.696884" lon="7.781453">
        <ele>609.214670</ele>
        <time>2021-11-17T23:06:19.600Z</time>
      </trkpt>
      <trkpt lat="47.696944" lon="7.781257">
        <ele>609.201516</ele>
        <time>2021-11-17T23:06:22.808Z</time>
      </trkpt>
      <trkpt lat="47.697264" lon="7.780663">
        <ele>609.155036</ele>
        <time>2021-11-17T23:06:32.005Z</time>
      </trkpt>
      <trkpt lat="47.697658" lon="7.780323">
        <ele>609.113680</ele>
        <time>2021-11-17T23:06:41.018Z</time>
      </trkpt>
      <trkpt lat="47.697945" lon="7.780189">
        <ele>609.086375</ele>
        <time>2021-11-17T23:06:46.192Z</time>
      </trkpt>
      <trkpt lat="47.698154" lon="7.780123">
        <ele>609.066981</ele>
        <time>2021-11-17T23:06:49.726Z</time>
      </trkpt>
      <trkpt lat="47.698475" lon="7.779880">
        <ele>609.205881</ele>
        <time>2021-11-17T23:06:55.870Z</time>
      </trkpt>
      <trkpt lat="47.698587" lon="7.779726">
        <ele>609.269713</ele>
        <time>2021-11-17T23:06:58.579Z</time>
      </trkpt>
      <trkpt lat="47.698642" lon="7.779650">
        <ele>609.301131</ele>
        <time>2021-11-17T23:06:59.991Z</time>
      </trkpt>
      <trkpt lat="47.698710" lon="7.779556">
        <ele>609.339981</ele>
        <time>2021-11-17T23:07:01.503Z</time>
      </trkpt>
      <trkpt lat="47.698808" lon="7.779539">
        <ele>609.381253</ele>
        <time>2021-11-17T23:07:03.153Z</time>
      </trkpt>
      <trkpt lat="47.698885" lon="7.779548">
        <ele>609.413561</ele>
        <time>2021-11-17T23:07:04.665Z</time>
      </trkpt>
      <trkpt lat="47.699125" lon="7.779997">
        <ele>609.574980</ele>
        <time>2021-11-17T23:07:12.157Z</time>
      </trkpt>
      <trkpt lat="47.699178" lon="7.780072">
        <ele>609.605596</ele>
        <time>2021-11-17T23:07:15.385Z</time>
      </trkpt>
      <trkpt lat="47.699303" lon="7.780284">
        <ele>609.684943</ele>
        <time>2021-11-17T23:07:19.537Z</time>
      </trkpt>
      <trkpt lat="47.699485" lon="7.780907">
        <ele>610.414040</ele>
        <time>2021-11-17T23:07:34.358Z</time>
      </trkpt>
      <trkpt lat="47.699567" lon="7.781770">
        <ele>612.900178</ele>
        <time>2021-11-17T23:07:53.975Z</time>
      </trkpt>
      <trkpt lat="47.699571" lon="7.781795">
        <ele>612.973478</ele>
        <time>2021-11-17T23:07:54.419Z</time>
      </trkpt>
      <trkpt lat="47.699595" lon="7.781921">
        <ele>613.347013</ele>
        <time>2021-11-17T23:07:57.116Z</time>
      </trkpt>
      <trkpt lat="47.699627" lon="7.782061">
        <ele>613.768768</ele>
        <time>2021-11-17T23:08:02.730Z</time>
      </trkpt>
      <trkpt lat="47.700372" lon="7.783081">
        <ele>618.314074</ele>
        <time>2021-11-17T23:08:42.464Z</time>
      </trkpt>
      <trkpt lat="47.700330" lon="7.783587">
        <ele>620.356744</ele>
        <time>2021-11-17T23:08:56.574Z</time>
      </trkpt>
      <trkpt lat="47.700262" lon="7.783863">
        <ele>621.534320</ele>
        <time>2021-11-17T23:09:08.656Z</time>
      </trkpt>
      <trkpt lat="47.700199" lon="7.784178">
        <ele>622.850932</ele>
        <time>2021-11-17T23:09:17.151Z</time>
      </trkpt>
      <trkpt lat="47.700180" lon="7.784393">
        <ele>623.719736</ele>
        <time>2021-11-17T23:09:24.802Z</time>
      </trkpt>
      <trkpt lat="47.700183" lon="7.784447">
        <ele>623.936826</ele>
        <time>2021-11-17T23:09:25.736Z</time>
      </trkpt>
      <trkpt lat="47.700199" lon="7.784739">
        <ele>625.110611</ele>
        <time>2021-11-17T23:09:34.361Z</time>
      </trkpt>
      <trkpt lat="47.700227" lon="7.784927">
        <ele>625.882066</ele>
        <time>2021-11-17T23:09:40.522Z</time>
      </trkpt>
      <trkpt lat="47.700237" lon="7.784995">
        <ele>626.160940</ele>
        <time>2021-11-17T23:09:41.620Z</time>
      </trkpt>
      <trkpt lat="47.700352" lon="7.784986">
        <ele>626.846505</ele>
        <time>2021-11-17T23:09:46.246Z</time>
      </trkpt>
      <trkpt lat="47.700744" lon="7.784880">
        <ele>629.315028</ele>
        <time>2021-11-17T23:10:04.090Z</time>
      </trkpt>
      <trkpt lat="47.700779" lon="7.784852">
        <ele>629.573017</ele>
        <time>2021-11-17T23:10:07.073Z</time>
      </trkpt>
      <trkpt lat="47.700812" lon="7.784743">
        <ele>630.095078</ele>
        <time>2021-11-17T23:10:12.257Z</time>
      </trkpt>
      <trkpt lat="47.700867" lon="7.784454">
        <ele>631.406911</ele>
        <time>2021-11-17T23:10:18.868Z</time>
      </trkpt>
      <trkpt lat="47.700881" lon="7.784381">
        <ele>631.738463</ele>
        <time>2021-11-17T23:10:20.762Z</time>
      </trkpt>
      <trkpt lat="47.701216" lon="7.783890">
        <ele>634.792438</ele>
        <time>2021-11-17T23:10:42.870Z</time>
      </trkpt>
      <trkpt lat="47.701335" lon="7.783549">
        <ele>636.470225</ele>
        <time>2021-11-17T23:10:53.577Z</time>
      </trkpt>
      <trkpt lat="47.701368" lon="7.783411">
        <ele>637.109914</ele>
        <time>2021-11-17T23:11:00.522Z</time>
      </trkpt>
      <trkpt lat="47.701380" lon="7.783310">
        <ele>637.557893</ele>
        <time>2021-11-17T23:11:03.092Z</time>
      </trkpt>
      <trkpt lat="47.701369" lon="7.782972">
        <ele>639.035964</ele>
        <time>2021-11-17T23:11:13.660Z</time>
      </trkpt>
      <trkpt lat="47.701237" lon="7.782362">
        <ele>642.374465</ele>
        <time>2021-11-17T23:11:33.662Z</time>
      </trkpt>
      <trkpt lat="47.701196" lon="7.780571">
        <ele>652.300794</ele>
        <time>2021-11-17T23:12:39.518Z</time>
      </trkpt>
      <trkpt lat="47.701247" lon="7.780305">
        <ele>653.832829</ele>
        <time>2021-11-17T23:12:48.154Z</time>
      </trkpt>
      <trkpt lat="47.701342" lon="7.780162">
        <ele>654.976267</ele>
        <time>2021-11-17T23:12:57.581Z</time>
      </trkpt>
      <trkpt lat="47.701637" lon="7.779988">
        <ele>657.836869</ele>
        <time>2021-11-17T23:13:14.819Z</time>
      </trkpt>
      <trkpt lat="47.701726" lon="7.779970">
        <ele>658.646408</ele>
        <time>2021-11-17T23:13:21.905Z</time>
      </trkpt>
      <trkpt lat="47.702101" lon="7.780072">
        <ele>662.082382</ele>
        <time>2021-11-17T23:13:42.931Z</time>
      </trkpt>
      <trkpt lat="47.702259" lon="7.780163">
        <ele>663.609640</ele>
        <time>2021-11-17T23:13:49.895Z</time>
      </trkpt>
      <trkpt lat="47.702323" lon="7.780178">
        <ele>664.193593</ele>
        <time>2021-11-17T23:13:54.271Z</time>
      </trkpt>
      <trkpt lat="47.702403" lon="7.780229">
        <ele>664.978177</ele>
        <time>2021-11-17T23:14:00.767Z</time>
      </trkpt>
      <trkpt lat="47.703200" lon="7.780360">
        <ele>672.208720</ele>
        <time>2021-11-17T23:14:46.134Z</time>
      </trkpt>
      <trkpt lat="47.703463" lon="7.780169">
        <ele>674.853791</ele>
        <time>2021-11-17T23:15:02.093Z</time>
      </trkpt>
      <trkpt lat="47.703606" lon="7.779919">
        <ele>676.848946</ele>
        <time>2021-11-17T23:15:12.924Z</time>
      </trkpt>
      <trkpt lat="47.703620" lon="7.779806">
        <ele>677.547628</ele>
        <time>2021-11-17T23:15:17.771Z</time>
      </trkpt>
      <trkpt lat="47.703537" lon="7.778998">
        <ele>682.517855</ele>
        <time>2021-11-17T23:15:46.475Z</time>
      </trkpt>
      <trkpt lat="47.703561" lon="7.778786">
        <ele>683.825107</ele>
        <time>2021-11-17T23:15:54.713Z</time>
      </trkpt>
      <trkpt lat="47.703633" lon="7.778652">
        <ele>684.867801</ele>
        <time>2021-11-17T23:16:01.570Z</time>
      </trkpt>
      <trkpt lat="47.703803" lon="7.778607">
        <ele>686.428082</ele>
        <time>2021-11-17T23:16:12.267Z</time>
      </trkpt>
      <trkpt lat="47.704882" lon="7.779266">
        <ele>697.856309</ele>
        <time>2021-11-17T23:17:28.606Z</time>
      </trkpt>
      <trkpt lat="47.705185" lon="7.779390">
        <ele>700.951088</ele>
        <time>2021-11-17T23:17:48.322Z</time>
      </trkpt>
      <trkpt lat="47.705483" lon="7.779457">
        <ele>703.918949</ele>
        <time>2021-11-17T23:18:05.972Z</time>
      </trkpt>
      <trkpt lat="47.705864" lon="7.779393">
        <ele>704.843755</ele>
        <time>2021-11-17T23:18:23.078Z</time>
      </trkpt>
      <trkpt lat="47.706167" lon="7.779414">
        <ele>704.888427</ele>
        <time>2021-11-17T23:18:34.500Z</time>
      </trkpt>
      <trkpt lat="47.706622" lon="7.779645">
        <ele>704.959238</ele>
        <time>2021-11-17T23:18:42.985Z</time>
      </trkpt>
      <trkpt lat="47.706835" lon="7.779679">
        <ele>704.990787</ele>
        <time>2021-11-17T23:18:48.105Z</time>
      </trkpt>
      <trkpt lat="47.707164" lon="7.779461">
        <ele>705.043837</ele>
        <time>2021-11-17T23:18:53.017Z</time>
      </trkpt>
      <trkpt lat="47.707188" lon="7.779421">
        <ele>705.049148</ele>
        <time>2021-11-17T23:18:53.468Z</time>
      </trkpt>
      <trkpt lat="47.707216" lon="7.779325">
        <ele>705.059517</ele>
        <time>2021-11-17T23:18:54.280Z</time>
      </trkpt>
      <trkpt lat="47.707375" lon="7.778429">
        <ele>700.699331</ele>
        <time>2021-11-17T23:19:02.372Z</time>
      </trkpt>
      <trkpt lat="47.707656" lon="7.777856">
        <ele>697.131689</ele>
        <time>2021-11-17T23:19:08.181Z</time>
      </trkpt>
      <trkpt lat="47.707959" lon="7.777497">
        <ele>694.234003</ele>
        <time>2021-11-17T23:19:12.960Z</time>
      </trkpt>
      <trkpt lat="47.708005" lon="7.777449">
        <ele>693.813705</ele>
        <time>2021-11-17T23:19:13.736Z</time>
      </trkpt>
      <trkpt lat="47.708316" lon="7.777132">
        <ele>691.358574</ele>
        <time>2021-11-17T23:19:18.723Z</time>
      </trkpt>
      <trkpt lat="47.708539" lon="7.776943">
        <ele>690.564839</ele>
        <time>2021-11-17T23:19:22.175Z</time>
      </trkpt>
      <trkpt lat="47.708637" lon="7.776787">
        <ele>690.120822</ele>
        <time>2021-11-17T23:19:24.168Z</time>
      </trkpt>
      <trkpt lat="47.708793" lon="7.776065">
        <ele>688.543150</ele>
        <time>2021-11-17T23:19:31.349Z</time>
      </trkpt>
      <trkpt lat="47.708969" lon="7.775711">
        <ele>687.627424</ele>
        <time>2021-11-17T23:19:36.121Z</time>
      </trkpt>
      <trkpt lat="47.709008" lon="7.775122">
        <ele>686.396087</ele>
        <time>2021-11-17T23:19:43.116Z</time>
      </trkpt>
      <trkpt lat="47.709105" lon="7.774951">
        <ele>685.979900</ele>
        <time>2021-11-17T23:19:45.931Z</time>
      </trkpt>
      <trkpt lat="47.709263" lon="7.774850">
        <ele>685.659044</ele>
        <time>2021-11-17T23:19:49.456Z</time>
      </trkpt>
      <trkpt lat="47.709477" lon="7.774812">
        <ele>685.256992</ele>
        <time>2021-11-17T23:19:54.006Z</time>
      </trkpt>
      <trkpt lat="47.709762" lon="7.774915">
        <ele>684.709836</ele>
        <time>2021-11-17T23:20:00.380Z</time>
      </trkpt>
      <trkpt lat="47.710099" lon="7.775135">
        <ele>684.023190</ele>
        <time>2021-11-17T23:20:06.151Z</time>
      </trkpt>
      <trkpt lat="47.710322" lon="7.775177">
        <ele>683.603861</ele>
        <time>2021-11-17T23:20:09.455Z</time>
      </trkpt>
      <trkpt lat="47.711031" lon="7.775005">
        <ele>681.417484</ele>
        <time>2021-11-17T23:20:19.843Z</time>
      </trkpt>
      <trkpt lat="47.711239" lon="7.774801">
        <ele>680.049353</ele>
        <time>2021-11-17T23:20:23.395Z</time>
      </trkpt>
      <trkpt lat="47.711283" lon="7.774725">
        <ele>679.678997</ele>
        <time>2021-11-17T23:20:24.223Z</time>
      </trkpt>
      <trkpt lat="47.711327" lon="7.774552">
        <ele>678.995816</ele>
        <time>2021-11-17T23:20:26.018Z</time>
      </trkpt>
      <trkpt lat="47.711333" lon="7.774466">
        <ele>678.676433</ele>
        <time>2021-11-17T23:20:26.763Z</time>
      </trkpt>
      <trkpt lat="47.711464" lon="7.774407">
        <ele>677.924963</ele>
        <time>2021-11-17T23:20:28.570Z</time>
      </trkpt>
      <trkpt lat="47.711930" lon="7.774081">
        <ele>675.097433</ele>
        <time>2021-11-17T23:20:35.339Z</time>
      </trkpt>
      <trkpt lat="47.712046" lon="7.774031">
        <ele>674.434366</ele>
        <time>2021-11-17T23:20:36.897Z</time>
      </trkpt>
      <trkpt lat="47.712168" lon="7.774078">
        <ele>673.742467</ele>
        <time>2021-11-17T23:20:38.468Z</time>
      </trkpt>
      <trkpt lat="47.712286" lon="7.774181">
        <ele>672.991196</ele>
        <time>2021-11-17T23:20:40.305Z</time>
      </trkpt>
      <trkpt lat="47.712376" lon="7.774269">
        <ele>672.492883</ele>
        <time>2021-11-17T23:20:41.654Z</time>
      </trkpt>
      <trkpt lat="47.712647" lon="7.774491">
        <ele>671.166102</ele>
        <time>2021-11-17T23:20:45.527Z</time>
      </trkpt>
      <trkpt lat="47.713430" lon="7.775192">
        <ele>667.246785</ele>
        <time>2021-11-17T23:20:57.863Z</time>
      </trkpt>
      <trkpt lat="47.713608" lon="7.775269">
        <ele>666.451907</ele>
        <time>2021-11-17T23:21:00.561Z</time>
      </trkpt>
      <trkpt lat="47.713668" lon="7.775286">
        <ele>666.190013</ele>
        <time>2021-11-17T23:21:01.346Z</time>
      </trkpt>
      <trkpt lat="47.713843" lon="7.775322">
        <ele>665.432515</ele>
        <time>2021-11-17T23:21:05.871Z</time>
      </trkpt>
      <trkpt lat="47.713932" lon="7.775337">
        <ele>665.181787</ele>
        <time>2021-11-17T23:21:07.312Z</time>
      </trkpt>
      <trkpt lat="47.713977" lon="7.775345">
        <ele>665.389069</ele>
        <time>2021-11-17T23:21:08.031Z</time>
      </trkpt>
      <trkpt lat="47.714158" lon="7.775376">
        <ele>666.222378</ele>
        <time>2021-11-17T23:21:13.362Z</time>
      </trkpt>
      <trkpt lat="47.714374" lon="7.775352">
        <ele>667.213043</ele>
        <time>2021-11-17T23:21:17.836Z</time>
      </trkpt>
      <trkpt lat="47.714479" lon="7.775293">
        <ele>667.726451</ele>
        <time>2021-11-17T23:21:22.974Z</time>
      </trkpt>
      <trkpt lat="47.714599" lon="7.775218">
        <ele>668.321841</ele>
        <time>2021-11-17T23:21:27.179Z</time>
      </trkpt>
      <trkpt lat="47.714709" lon="7.775124">
        <ele>668.902172</ele>
        <time>2021-11-17T23:21:30.175Z</time>
      </trkpt>
      <trkpt lat="47.714661" lon="7.774975">
        <ele>669.410531</ele>
        <time>2021-11-17T23:21:36.380Z</time>
      </trkpt>
      <trkpt lat="47.714572" lon="7.774613">
        <ele>670.596541</ele>
        <time>2021-11-17T23:21:45.483Z</time>
      </trkpt>
      <trkpt lat="47.714325" lon="7.773966">
        <ele>672.885703</ele>
        <time>2021-11-17T23:22:12.445Z</time>
      </trkpt>
      <trkpt lat="47.713713" lon="7.772531">
        <ele>682.161263</ele>
        <time>2021-11-17T23:23:22.060Z</time>
      </trkpt>
      <trkpt lat="47.713013" lon="7.771093">
        <ele>689.143429</ele>
        <time>2021-11-17T23:24:19.971Z</time>
      </trkpt>
      <trkpt lat="47.712784" lon="7.770624">
        <ele>689.679798</ele>
        <time>2021-11-17T23:24:30.826Z</time>
      </trkpt>
      <trkpt lat="47.712674" lon="7.770495">
        <ele>689.872555</ele>
        <time>2021-11-17T23:24:33.594Z</time>
      </trkpt>
      <trkpt lat="47.712515" lon="7.770367">
        <ele>690.121311</ele>
        <time>2021-11-17T23:24:38.109Z</time>
      </trkpt>
      <trkpt lat="47.712441" lon="7.770288">
        <ele>690.246650</ele>
        <time>2021-11-17T23:24:39.405Z</time>
      </trkpt>
      <trkpt lat="47.712373" lon="7.770214">
        <ele>690.362591</ele>
        <time>2021-11-17T23:24:41.104Z</time>
      </trkpt>
      <trkpt lat="47.712369" lon="7.770124">
        <ele>690.446078</ele>
        <time>2021-11-17T23:24:42.202Z</time>
      </trkpt>
      <trkpt lat="47.712377" lon="7.770047">
        <ele>690.518194</ele>
        <time>2021-11-17T23:24:43.480Z</time>
      </trkpt>
      <trkpt lat="47.712406" lon="7.769971">
        <ele>690.599066</ele>
        <time>2021-11-17T23:24:44.553Z</time>
      </trkpt>
      <trkpt lat="47.712317" lon="7.769895">
        <ele>690.740270</ele>
        <time>2021-11-17T23:24:45.527Z</time>
      </trkpt>
      <trkpt lat="47.711976" lon="7.769448">
        <ele>690.327983</ele>
        <time>2021-11-17T23:24:50.076Z</time>
      </trkpt>
      <trkpt lat="47.711641" lon="7.768676">
        <ele>688.676012</ele>
        <time>2021-11-17T23:24:56.057Z</time>
      </trkpt>
      <trkpt lat="47.711558" lon="7.768253">
        <ele>687.883636</ele>
        <time>2021-11-17T23:24:59.061Z</time>
      </trkpt>
      <trkpt lat="47.711522" lon="7.767707">
        <ele>686.897046</ele>
        <time>2021-11-17T23:25:03.014Z</time>
      </trkpt>
      <trkpt lat="47.711535" lon="7.767521">
        <ele>686.560758</ele>
        <time>2021-11-17T23:25:04.366Z</time>
      </trkpt>
      <trkpt lat="47.711594" lon="7.766979">
        <ele>686.636446</ele>
        <time>2021-11-17T23:25:09.567Z</time>
      </trkpt>
      <trkpt lat="47.711544" lon="7.766597">
        <ele>687.112682</ele>
        <time>2021-11-17T23:25:14.343Z</time>
      </trkpt>
      <trkpt lat="47.711280" lon="7.766040">
        <ele>687.946445</ele>
        <time>2021-11-17T23:25:22.724Z</time>
      </trkpt>
      <trkpt lat="47.710793" lon="7.765513">
        <ele>689.042084</ele>
        <time>2021-11-17T23:25:38.985Z</time>
      </trkpt>
      <trkpt lat="47.709779" lon="7.764609">
        <ele>693.089366</ele>
        <time>2021-11-17T23:26:19.332Z</time>
      </trkpt>
      <trkpt lat="47.709606" lon="7.764460">
        <ele>693.855114</ele>
        <time>2021-11-17T23:26:25.945Z</time>
      </trkpt>
      <trkpt lat="47.709431" lon="7.764294">
        <ele>694.650186</ele>
        <time>2021-11-17T23:26:31.664Z</time>
      </trkpt>
      <trkpt lat="47.709325" lon="7.764019">
        <ele>695.466878</ele>
        <time>2021-11-17T23:26:38.004Z</time>
      </trkpt>
      <trkpt lat="47.709385" lon="7.763694">
        <ele>696.335332</ele>
        <time>2021-11-17T23:26:42.969Z</time>
      </trkpt>
      <trkpt lat="47.709432" lon="7.763572">
        <ele>696.303359</ele>
        <time>2021-11-17T23:26:46.700Z</time>
      </trkpt>
      <trkpt lat="47.709462" lon="7.763486">
        <ele>696.256756</ele>
        <time>2021-11-17T23:26:47.772Z</time>
      </trkpt>
      <trkpt lat="47.709753" lon="7.762866">
        <ele>695.893090</ele>
        <time>2021-11-17T23:26:56.925Z</time>
      </trkpt>
      <trkpt lat="47.710158" lon="7.762372">
        <ele>695.518492</ele>
        <time>2021-11-17T23:27:04.878Z</time>
      </trkpt>
      <trkpt lat="47.710244" lon="7.762179">
        <ele>695.407130</ele>
        <time>2021-11-17T23:27:06.341Z</time>
      </trkpt>
      <trkpt lat="47.710263" lon="7.762018">
        <ele>695.328494</ele>
        <time>2021-11-17T23:27:07.500Z</time>
      </trkpt>
      <trkpt lat="47.710195" lon="7.761616">
        <ele>695.129082</ele>
        <time>2021-11-17T23:27:10.313Z</time>
      </trkpt>
      <trkpt lat="47.710335" lon="7.761409">
        <ele>694.341035</ele>
        <time>2021-11-17T23:27:12.342Z</time>
      </trkpt>
      <trkpt lat="47.710427" lon="7.761335">
        <ele>693.737731</ele>
        <time>2021-11-17T23:27:13.297Z</time>
      </trkpt>
      <trkpt lat="47.710345" lon="7.761307">
        <ele>693.252502</ele>
        <time>2021-11-17T23:27:14.417Z</time>
      </trkpt>
      <trkpt lat="47.710137" lon="7.761291">
        <ele>692.051329</ele>
        <time>2021-11-17T23:27:17.386Z</time>
      </trkpt>
      <trkpt lat="47.710075" lon="7.761349">
        <ele>691.628824</ele>
        <time>2021-11-17T23:27:18.339Z</time>
      </trkpt>
      <trkpt lat="47.709783" lon="7.762047">
        <ele>688.439339</ele>
        <time>2021-11-17T23:27:25.618Z</time>
      </trkpt>
      <trkpt lat="47.709606" lon="7.762208">
        <ele>687.242527</ele>
        <time>2021-11-17T23:27:28.218Z</time>
      </trkpt>
      <trkpt lat="47.709403" lon="7.762275">
        <ele>686.043271</ele>
        <time>2021-11-17T23:27:31.008Z</time>
      </trkpt>
      <trkpt lat="47.709165" lon="7.762296">
        <ele>684.648653</ele>
        <time>2021-11-17T23:27:33.977Z</time>
      </trkpt>
      <trkpt lat="47.709083" lon="7.762304">
        <ele>683.930742</ele>
        <time>2021-11-17T23:27:35.071Z</time>
      </trkpt>
      <trkpt lat="47.708900" lon="7.762282">
        <ele>682.326793</ele>
        <time>2021-11-17T23:27:37.400Z</time>
      </trkpt>
      <trkpt lat="47.708723" lon="7.762260">
        <ele>680.775084</ele>
        <time>2021-11-17T23:27:39.731Z</time>
      </trkpt>
      <trkpt lat="47.708555" lon="7.762240">
        <ele>679.302699</ele>
        <time>2021-11-17T23:27:41.837Z</time>
      </trkpt>
      <trkpt lat="47.707866" lon="7.762055">
        <ele>673.185990</ele>
        <time>2021-11-17T23:27:50.588Z</time>
      </trkpt>
      <trkpt lat="47.707010" lon="7.762162">
        <ele>664.756802</ele>
        <time>2021-11-17T23:28:00.944Z</time>
      </trkpt>
      <trkpt lat="47.706337" lon="7.762008">
        <ele>657.147204</ele>
        <time>2021-11-17T23:28:09.195Z</time>
      </trkpt>
      <trkpt lat="47.705999" lon="7.761812">
        <ele>653.092563</ele>
        <time>2021-11-17T23:28:13.535Z</time>
      </trkpt>
      <trkpt lat="47.705956" lon="7.761777">
        <ele>652.544664</ele>
        <time>2021-11-17T23:28:14.091Z</time>
      </trkpt>
      <trkpt lat="47.705710" lon="7.761502">
        <ele>649.104525</ele>
        <time>2021-11-17T23:28:17.821Z</time>
      </trkpt>
      <trkpt lat="47.705557" lon="7.761465">
        <ele>647.549572</ele>
        <time>2021-11-17T23:28:19.652Z</time>
      </trkpt>
      <trkpt lat="47.705477" lon="7.761527">
        <ele>646.658881</ele>
        <time>2021-11-17T23:28:20.760Z</time>
      </trkpt>
      <trkpt lat="47.705141" lon="7.762094">
        <ele>641.639954</ele>
        <time>2021-11-17T23:28:26.889Z</time>
      </trkpt>
      <trkpt lat="47.704722" lon="7.762535">
        <ele>636.571272</ele>
        <time>2021-11-17T23:28:33.081Z</time>
      </trkpt>
      <trkpt lat="47.704635" lon="7.762687">
        <ele>635.245660</ele>
        <time>2021-11-17T23:28:34.242Z</time>
      </trkpt>
      <trkpt lat="47.704400" lon="7.763040">
        <ele>631.947010</ele>
        <time>2021-11-17T23:28:37.251Z</time>
      </trkpt>
      <trkpt lat="47.704361" lon="7.763038">
        <ele>631.561782</ele>
        <time>2021-11-17T23:28:37.594Z</time>
      </trkpt>
      <trkpt lat="47.704258" lon="7.762858">
        <ele>630.567488</ele>
        <time>2021-11-17T23:28:39.089Z</time>
      </trkpt>
      <trkpt lat="47.704157" lon="7.762660">
        <ele>629.746453</ele>
        <time>2021-11-17T23:28:40.590Z</time>
      </trkpt>
      <trkpt lat="47.704054" lon="7.762393">
        <ele>628.729439</ele>
        <time>2021-11-17T23:28:42.542Z</time>
      </trkpt>
      <trkpt lat="47.704011" lon="7.762287">
        <ele>628.320433</ele>
        <time>2021-11-17T23:28:43.267Z</time>
      </trkpt>
      <trkpt lat="47.703554" lon="7.761686">
        <ele>625.323681</ele>
        <time>2021-11-17T23:28:49.288Z</time>
      </trkpt>
      <trkpt lat="47.703192" lon="7.761373">
        <ele>623.267036</ele>
        <time>2021-11-17T23:28:53.545Z</time>
      </trkpt>
      <trkpt lat="47.701739" lon="7.761076">
        <ele>614.388918</ele>
        <time>2021-11-17T23:29:07.409Z</time>
      </trkpt>
      <trkpt lat="47.701504" lon="7.761039">
        <ele>612.916807</ele>
        <time>2021-11-17T23:29:09.562Z</time>
      </trkpt>
      <trkpt lat="47.701325" lon="7.760955">
        <ele>611.747452</ele>
        <time>2021-11-17T23:29:11.164Z</time>
      </trkpt>
      <trkpt lat="47.700935" lon="7.760790">
        <ele>606.872654</ele>
        <time>2021-11-17T23:29:14.659Z</time>
      </trkpt>
      <trkpt lat="47.700628" lon="7.760759">
        <ele>602.559394</ele>
        <time>2021-11-17T23:29:17.250Z</time>
      </trkpt>
      <trkpt lat="47.700087" lon="7.760472">
        <ele>594.507155</ele>
        <time>2021-11-17T23:29:22.043Z</time>
      </trkpt>
      <trkpt lat="47.699914" lon="7.760317">
        <ele>591.675401</ele>
        <time>2021-11-17T23:29:23.704Z</time>
      </trkpt>
      <trkpt lat="47.699376" lon="7.760231">
        <ele>583.526308</ele>
        <time>2021-11-17T23:29:28.162Z</time>
      </trkpt>
      <trkpt lat="47.698510" lon="7.760592">
        <ele>566.960696</ele>
        <time>2021-11-17T23:29:35.553Z</time>
      </trkpt>
      <trkpt lat="47.697996" lon="7.760549">
        <ele>557.478975</ele>
        <time>2021-11-17T23:29:39.770Z</time>
      </trkpt>
      <trkpt lat="47.697707" lon="7.760660">
        <ele>552.061005</ele>
        <time>2021-11-17T23:29:42.213Z</time>
      </trkpt>
      <trkpt lat="47.697378" lon="7.760918">
        <ele>545.910045</ele>
        <time>2021-11-17T23:29:45.263Z</time>
      </trkpt>
      <trkpt lat="47.696627" lon="7.761733">
        <ele>530.533243</ele>
        <time>2021-11-17T23:29:52.928Z</time>
      </trkpt>
      <trkpt lat="47.696326" lon="7.761871">
        <ele>525.324872</ele>
        <time>2021-11-17T23:29:55.544Z</time>
      </trkpt>
      <trkpt lat="47.696107" lon="7.761896">
        <ele>522.441918</ele>
        <time>2021-11-17T23:29:57.389Z</time>
      </trkpt>
      <trkpt lat="47.695666" lon="7.762185">
        <ele>518.964015</ele>
        <time>2021-11-17T23:30:01.485Z</time>
      </trkpt>
      <trkpt lat="47.695513" lon="7.762361">
        <ele>517.567792</ele>
        <time>2021-11-17T23:30:03.176Z</time>
      </trkpt>
      <trkpt lat="47.695493" lon="7.762491">
        <ele>516.920144</ele>
        <time>2021-11-17T23:30:03.969Z</time>
      </trkpt>
      <trkpt lat="47.695564" lon="7.762669">
        <ele>515.915257</ele>
        <time>2021-11-17T23:30:05.228Z</time>
      </trkpt>
      <trkpt lat="47.695765" lon="7.762918">
        <ele>514.026891</ele>
        <time>2021-11-17T23:30:07.679Z</time>
      </trkpt>
      <trkpt lat="47.696066" lon="7.763115">
        <ele>511.653583</ele>
        <time>2021-11-17T23:30:11.033Z</time>
      </trkpt>
      <trkpt lat="47.696609" lon="7.763029">
        <ele>509.658773</ele>
        <time>2021-11-17T23:30:17.565Z</time>
      </trkpt>
      <trkpt lat="47.696840" lon="7.763064">
        <ele>509.382291</ele>
        <time>2021-11-17T23:30:20.473Z</time>
      </trkpt>
      <trkpt lat="47.696867" lon="7.763081">
        <ele>509.347374</ele>
        <time>2021-11-17T23:30:21.069Z</time>
      </trkpt>
      <trkpt lat="47.696991" lon="7.763158">
        <ele>509.187348</ele>
        <time>2021-11-17T23:30:22.851Z</time>
      </trkpt>
      <trkpt lat="47.697291" lon="7.763521">
        <ele>508.726661</ele>
        <time>2021-11-17T23:30:28.052Z</time>
      </trkpt>
      <trkpt lat="47.697489" lon="7.763998">
        <ele>508.277534</ele>
        <time>2021-11-17T23:30:33.093Z</time>
      </trkpt>
      <trkpt lat="47.697488" lon="7.764075">
        <ele>508.215814</ele>
        <time>2021-11-17T23:30:34.858Z</time>
      </trkpt>
      <trkpt lat="47.697431" lon="7.764188">
        <ele>508.102644</ele>
        <time>2021-11-17T23:30:35.769Z</time>
      </trkpt>
      <trkpt lat="47.697090" lon="7.763872">
        <ele>506.183852</ele>
        <time>2021-11-17T23:30:40.524Z</time>
      </trkpt>
      <trkpt lat="47.696957" lon="7.763850">
        <ele>505.197439</ele>
        <time>2021-11-17T23:30:41.992Z</time>
      </trkpt>
      <trkpt lat="47.696600" lon="7.764011">
        <ele>502.447402</ele>
        <time>2021-11-17T23:30:45.454Z</time>
      </trkpt>
      <trkpt lat="47.696460" lon="7.764217">
        <ele>500.995018</ele>
        <time>2021-11-17T23:30:47.200Z</time>
      </trkpt>
      <trkpt lat="47.696064" lon="7.764439">
        <ele>497.875184</ele>
        <time>2021-11-17T23:30:50.851Z</time>
      </trkpt>
      <trkpt lat="47.695664" lon="7.764442">
        <ele>494.926705</ele>
        <time>2021-11-17T23:30:54.250Z</time>
      </trkpt>
      <trkpt lat="47.695476" lon="7.764371">
        <ele>492.562976</ele>
        <time>2021-11-17T23:30:55.896Z</time>
      </trkpt>
      <trkpt lat="47.695366" lon="7.764381">
        <ele>491.089075</ele>
        <time>2021-11-17T23:30:56.822Z</time>
      </trkpt>
      <trkpt lat="47.695153" lon="7.764389">
        <ele>488.239484</ele>
        <time>2021-11-17T23:30:58.608Z</time>
      </trkpt>
      <trkpt lat="47.694379" lon="7.764437">
        <ele>477.878927</ele>
        <time>2021-11-17T23:31:05.085Z</time>
      </trkpt>
      <trkpt lat="47.693490" lon="7.764995">
        <ele>466.041555</ele>
        <time>2021-11-17T23:31:13.122Z</time>
      </trkpt>
      <trkpt lat="47.692906" lon="7.765240">
        <ele>459.471415</ele>
        <time>2021-11-17T23:31:18.299Z</time>
      </trkpt>
      <trkpt lat="47.692739" lon="7.765304">
        <ele>457.604142</ele>
        <time>2021-11-17T23:31:19.786Z</time>
      </trkpt>
      <trkpt lat="47.692495" lon="7.765473">
        <ele>454.689398</ele>
        <time>2021-11-17T23:31:22.126Z</time>
      </trkpt>
      <trkpt lat="47.691989" lon="7.765856">
        <ele>449.908012</ele>
        <time>2021-11-17T23:31:27.141Z</time>
      </trkpt>
      <trkpt lat="47.691439" lon="7.765922">
        <ele>447.107027</ele>
        <time>2021-11-17T23:31:32.199Z</time>
      </trkpt>
      <trkpt lat="47.690988" lon="7.766068">
        <ele>444.763952</ele>
        <time>2021-11-17T23:31:36.661Z</time>
      </trkpt>
      <trkpt lat="47.689533" lon="7.766957">
        <ele>438.509808</ele>
        <time>2021-11-17T23:31:52.895Z</time>
      </trkpt>
      <trkpt lat="47.689302" lon="7.767203">
        <ele>437.546970</ele>
        <time>2021-11-17T23:31:55.758Z</time>
      </trkpt>
      <trkpt lat="47.689039" lon="7.767615">
        <ele>436.252183</ele>
        <time>2021-11-17T23:31:59.513Z</time>
      </trkpt>
      <trkpt lat="47.688696" lon="7.767783">
        <ele>434.489087</ele>
        <time>2021-11-17T23:32:02.963Z</time>
      </trkpt>
      <trkpt lat="47.688232" lon="7.767885">
        <ele>431.906221</ele>
        <time>2021-11-17T23:32:07.398Z</time>
      </trkpt>
      <trkpt lat="47.687527" lon="7.768472">
        <ele>427.455885</ele>
        <time>2021-11-17T23:32:14.787Z</time>
      </trkpt>
      <trkpt lat="47.686830" lon="7.769254">
        <ele>422.386928</ele>
        <time>2021-11-17T23:32:22.789Z</time>
      </trkpt>
      <trkpt lat="47.686626" lon="7.769423">
        <ele>421.000923</ele>
        <time>2021-11-17T23:32:24.908Z</time>
      </trkpt>
      <trkpt lat="47.686282" lon="7.769143">
        <ele>418.673361</ele>
        <time>2021-11-17T23:32:28.549Z</time>
      </trkpt>
      <trkpt lat="47.685919" lon="7.768853">
        <ele>416.227653</ele>
        <time>2021-11-17T23:32:32.390Z</time>
      </trkpt>
      <trkpt lat="47.685818" lon="7.768792">
        <ele>415.580700</ele>
        <time>2021-11-17T23:32:33.376Z</time>
      </trkpt>
      <trkpt lat="47.685747" lon="7.768784">
        <ele>415.161838</ele>
        <time>2021-11-17T23:32:34.016Z</time>
      </trkpt>
      <trkpt lat="47.685373" lon="7.768586">
        <ele>412.860878</ele>
        <time>2021-11-17T23:32:37.642Z</time>
      </trkpt>
      <trkpt lat="47.684986" lon="7.768521">
        <ele>410.603828</ele>
        <time>2021-11-17T23:32:41.275Z</time>
      </trkpt>
      <trkpt lat="47.684476" lon="7.768446">
        <ele>407.633806</ele>
        <time>2021-11-17T23:32:46.034Z</time>
      </trkpt>
      <trkpt lat="47.684238" lon="7.768389">
        <ele>406.236725</ele>
        <time>2021-11-17T23:32:48.233Z</time>
      </trkpt>
      <trkpt lat="47.683509" lon="7.768266">
        <ele>402.201186</ele>
        <time>2021-11-17T23:32:54.949Z</time>
      </trkpt>
      <trkpt lat="47.682610" lon="7.767918">
        <ele>397.218109</ele>
        <time>2021-11-17T23:33:03.669Z</time>
      </trkpt>
      <trkpt lat="47.682279" lon="7.767701">
        <ele>395.277464</ele>
        <time>2021-11-17T23:33:07.089Z</time>
      </trkpt>
      <trkpt lat="47.681767" lon="7.767231">
        <ele>392.574569</ele>
        <time>2021-11-17T23:33:12.808Z</time>
      </trkpt>
      <trkpt lat="47.681394" lon="7.766997">
        <ele>390.760047</ele>
        <time>2021-11-17T23:33:16.629Z</time>
      </trkpt>
      <trkpt lat="47.681256" lon="7.766932">
        <ele>390.111271</ele>
        <time>2021-11-17T23:33:18.069Z</time>
      </trkpt>
      <trkpt lat="47.681228" lon="7.766941">
        <ele>389.982889</ele>
        <time>2021-11-17T23:33:18.305Z</time>
      </trkpt>
      <trkpt lat="47.681055" lon="7.767065">
        <ele>389.122066</ele>
        <time>2021-11-17T23:33:20.160Z</time>
      </trkpt>
      <trkpt lat="47.680453" lon="7.768044">
        <ele>386.050520</ele>
        <time>2021-11-17T23:33:29.009Z</time>
      </trkpt>
      <trkpt lat="47.680374" lon="7.768138">
        <ele>385.801306</ele>
        <time>2021-11-17T23:33:30.027Z</time>
      </trkpt>
      <trkpt lat="47.680291" lon="7.768374">
        <ele>385.359958</ele>
        <time>2021-11-17T23:33:33.882Z</time>
      </trkpt>
      <trkpt lat="47.680112" lon="7.768210">
        <ele>384.842158</ele>
        <time>2021-11-17T23:33:35.968Z</time>
      </trkpt>
      <trkpt lat="47.679654" lon="7.767908">
        <ele>383.608430</ele>
        <time>2021-11-17T23:33:41.880Z</time>
      </trkpt>
      <trkpt lat="47.679576" lon="7.767868">
        <ele>383.405269</ele>
        <time>2021-11-17T23:33:42.823Z</time>
      </trkpt>
      <trkpt lat="47.679489" lon="7.767825">
        <ele>383.179526</ele>
        <time>2021-11-17T23:33:43.686Z</time>
      </trkpt>
      <trkpt lat="47.679333" lon="7.767766">
        <ele>382.783195</ele>
        <time>2021-11-17T23:33:45.608Z</time>
      </trkpt>
      <trkpt lat="47.679217" lon="7.767752">
        <ele>382.493950</ele>
        <time>2021-11-17T23:33:46.906Z</time>
      </trkpt>
      <trkpt lat="47.679131" lon="7.767730">
        <ele>382.276841</ele>
        <time>2021-11-17T23:33:47.704Z</time>
      </trkpt>
      <trkpt lat="47.679013" lon="7.767707">
        <ele>381.980754</ele>
        <time>2021-11-17T23:33:49.165Z</time>
      </trkpt>
      <trkpt lat="47.678987" lon="7.767687">
        <ele>381.907909</ele>
        <time>2021-11-17T23:33:49.474Z</time>
      </trkpt>
      <trkpt lat="47.678922" lon="7.767592">
        <ele>381.681031</ele>
        <time>2021-11-17T23:33:50.483Z</time>
      </trkpt>
      <trkpt lat="47.678899" lon="7.767537">
        <ele>381.572579</ele>
        <time>2021-11-17T23:33:50.963Z</time>
      </trkpt>
      <trkpt lat="47.678852" lon="7.767327">
        <ele>381.201892</ele>
        <time>2021-11-17T23:33:52.583Z</time>
      </trkpt>
      <trkpt lat="47.678702" lon="7.766832">
        <ele>380.292628</ele>
        <time>2021-11-17T23:33:56.602Z</time>
      </trkpt>
      <trkpt lat="47.678683" lon="7.766771">
        <ele>380.180045</ele>
        <time>2021-11-17T23:33:57.137Z</time>
      </trkpt>
      <trkpt lat="47.678569" lon="7.766392">
        <ele>379.484723</ele>
        <time>2021-11-17T23:34:00.162Z</time>
      </trkpt>
      <trkpt lat="47.678412" lon="7.765986">
        <ele>378.700458</ele>
        <time>2021-11-17T23:34:03.471Z</time>
      </trkpt>
      <trkpt lat="47.678382" lon="7.765906">
        <ele>378.547070</ele>
        <time>2021-11-17T23:34:04.094Z</time>
      </trkpt>
      <trkpt lat="47.678359" lon="7.765855">
        <ele>378.444248</ele>
        <time>2021-11-17T23:34:04.528Z</time>
      </trkpt>
      <trkpt lat="47.678344" lon="7.765825">
        <ele>378.381654</ele>
        <time>2021-11-17T23:34:04.787Z</time>
      </trkpt>
      <trkpt lat="47.678233" lon="7.765617">
        <ele>377.853020</ele>
        <time>2021-11-17T23:34:06.518Z</time>
      </trkpt>
      <trkpt lat="47.678197" lon="7.765565">
        <ele>377.697448</ele>
        <time>2021-11-17T23:34:07.003Z</time>
      </trkpt>
      <trkpt lat="47.678111" lon="7.765484">
        <ele>377.381968</ele>
        <time>2021-11-17T23:34:07.956Z</time>
      </trkpt>
      <trkpt lat="47.677963" lon="7.765384">
        <ele>376.878252</ele>
        <time>2021-11-17T23:34:09.524Z</time>
      </trkpt>
      <trkpt lat="47.677617" lon="7.765148">
        <ele>375.698722</ele>
        <time>2021-11-17T23:34:13.279Z</time>
      </trkpt>
      <trkpt lat="47.677471" lon="7.764954">
        <ele>375.091822</ele>
        <time>2021-11-17T23:34:15.234Z</time>
      </trkpt>
      <trkpt lat="47.677427" lon="7.764836">
        <ele>374.810464</ele>
        <time>2021-11-17T23:34:16.141Z</time>
      </trkpt>
      <trkpt lat="47.677379" lon="7.764714">
        <ele>374.515725</ele>
        <time>2021-11-17T23:34:17.159Z</time>
      </trkpt>
      <trkpt lat="47.677356" lon="7.764658">
        <ele>374.378899</ele>
        <time>2021-11-17T23:34:17.633Z</time>
      </trkpt>
      <trkpt lat="47.677342" lon="7.764623">
        <ele>374.293982</ele>
        <time>2021-11-17T23:34:17.911Z</time>
      </trkpt>
      <trkpt lat="47.677251" lon="7.764397">
        <ele>373.744707</ele>
        <time>2021-11-17T23:34:19.736Z</time>
      </trkpt>
      <trkpt lat="47.677202" lon="7.764311">
        <ele>373.509712</ele>
        <time>2021-11-17T23:34:20.607Z</time>
      </trkpt>
      <trkpt lat="47.677132" lon="7.764248">
        <ele>373.256145</ele>
        <time>2021-11-17T23:34:21.533Z</time>
      </trkpt>
      <trkpt lat="47.676954" lon="7.764130">
        <ele>372.680115</ele>
        <time>2021-11-17T23:34:23.589Z</time>
      </trkpt>
      <trkpt lat="47.676526" lon="7.763904">
        <ele>371.980173</ele>
        <time>2021-11-17T23:34:28.849Z</time>
      </trkpt>
      <trkpt lat="47.676293" lon="7.763712">
        <ele>371.569587</ele>
        <time>2021-11-17T23:34:31.822Z</time>
      </trkpt>
      <trkpt lat="47.676174" lon="7.763597">
        <ele>371.350820</ele>
        <time>2021-11-17T23:34:33.534Z</time>
      </trkpt>
      <trkpt lat="47.676009" lon="7.763394">
        <ele>371.020669</ele>
        <time>2021-11-17T23:34:35.885Z</time>
      </trkpt>
      <trkpt lat="47.675758" lon="7.763117">
        <ele>370.538819</ele>
        <time>2021-11-17T23:34:39.534Z</time>
      </trkpt>
      <trkpt lat="47.675490" lon="7.762924">
        <ele>370.079874</ele>
        <time>2021-11-17T23:34:43.143Z</time>
      </trkpt>
      <trkpt lat="47.675471" lon="7.762918">
        <ele>370.049943</ele>
        <time>2021-11-17T23:34:43.371Z</time>
      </trkpt>
      <trkpt lat="47.674971" lon="7.762746">
        <ele>369.415388</ele>
        <time>2021-11-17T23:34:49.607Z</time>
      </trkpt>
      <trkpt lat="47.674813" lon="7.762712">
        <ele>369.226170</ele>
        <time>2021-11-17T23:34:51.649Z</time>
      </trkpt>
      <trkpt lat="47.674631" lon="7.762673">
        <ele>369.008229</ele>
        <time>2021-11-17T23:34:53.948Z</time>
      </trkpt>
      <trkpt lat="47.674325" lon="7.762551">
        <ele>368.632715</ele>
        <time>2021-11-17T23:34:57.708Z</time>
      </trkpt>
      <trkpt lat="47.673934" lon="7.762209">
        <ele>368.094899</ele>
        <time>2021-11-17T23:35:03.119Z</time>
      </trkpt>
      <trkpt lat="47.673724" lon="7.761991">
        <ele>367.789615</ele>
        <time>2021-11-17T23:35:06.061Z</time>
      </trkpt>
      <trkpt lat="47.673701" lon="7.761967">
        <ele>367.752218</ele>
        <time>2021-11-17T23:35:06.382Z</time>
      </trkpt>
      <trkpt lat="47.673293" lon="7.761547">
        <ele>367.091779</ele>
        <time>2021-11-17T23:35:12.086Z</time>
      </trkpt>
      <trkpt lat="47.673239" lon="7.761480">
        <ele>366.998166</ele>
        <time>2021-11-17T23:35:12.807Z</time>
      </trkpt>
      <trkpt lat="47.673038" lon="7.761205">
        <ele>366.634582</ele>
        <time>2021-11-17T23:35:16.178Z</time>
      </trkpt>
      <trkpt lat="47.672695" lon="7.760471">
        <ele>365.834221</ele>
        <time>2021-11-17T23:35:23.223Z</time>
      </trkpt>
      <trkpt lat="47.672619" lon="7.760311">
        <ele>365.658816</ele>
        <time>2021-11-17T23:35:24.935Z</time>
      </trkpt>
      <trkpt lat="47.672494" lon="7.760051">
        <ele>365.373862</ele>
        <time>2021-11-17T23:35:27.500Z</time>
      </trkpt>
      <trkpt lat="47.672299" lon="7.759692">
        <ele>364.973784</ele>
        <time>2021-11-17T23:35:31.068Z</time>
      </trkpt>
      <trkpt lat="47.672155" lon="7.759494">
        <ele>364.720992</ele>
        <time>2021-11-17T23:35:33.386Z</time>
      </trkpt>
      <trkpt lat="47.671806" lon="7.758805">
        <ele>363.973141</ele>
        <time>2021-11-17T23:35:40.147Z</time>
      </trkpt>
      <trkpt lat="47.671675" lon="7.758545">
        <ele>363.691472</ele>
        <time>2021-11-17T23:35:42.695Z</time>
      </trkpt>
      <trkpt lat="47.671575" lon="7.758350">
        <ele>363.478861</ele>
        <time>2021-11-17T23:35:44.522Z</time>
      </trkpt>
      <trkpt lat="47.671392" lon="7.758039">
        <ele>363.120613</ele>
        <time>2021-11-17T23:35:47.985Z</time>
      </trkpt>
      <trkpt lat="47.671326" lon="7.757939">
        <ele>363.075545</ele>
        <time>2021-11-17T23:35:49.096Z</time>
      </trkpt>
      <trkpt lat="47.671160" lon="7.757700">
        <ele>363.016012</ele>
        <time>2021-11-17T23:35:52.156Z</time>
      </trkpt>
      <trkpt lat="47.671008" lon="7.757509">
        <ele>362.964744</ele>
        <time>2021-11-17T23:35:54.506Z</time>
      </trkpt>
      <trkpt lat="47.670581" lon="7.757133">
        <ele>362.836923</ele>
        <time>2021-11-17T23:36:01.029Z</time>
      </trkpt>
      <trkpt lat="47.670478" lon="7.757079">
        <ele>362.808799</ele>
        <time>2021-11-17T23:36:02.300Z</time>
      </trkpt>
      <trkpt lat="47.670315" lon="7.757010">
        <ele>362.765157</ele>
        <time>2021-11-17T23:36:04.688Z</time>
      </trkpt>
      <trkpt lat="47.670093" lon="7.756951">
        <ele>362.707088</ele>
        <time>2021-11-17T23:36:07.731Z</time>
      </trkpt>
      <trkpt lat="47.669887" lon="7.756911">
        <ele>362.653595</ele>
        <time>2021-11-17T23:36:11.907Z</time>
      </trkpt>
      <trkpt lat="47.669847" lon="7.756905">
        <ele>362.643243</ele>
        <time>2021-11-17T23:36:12.592Z</time>
      </trkpt>
      <trkpt lat="47.669650" lon="7.756878">
        <ele>362.897238</ele>
        <time>2021-11-17T23:36:16.210Z</time>
      </trkpt>
      <trkpt lat="47.669568" lon="7.756860">
        <ele>363.041897</ele>
        <time>2021-11-17T23:36:18.372Z</time>
      </trkpt>
      <trkpt lat="47.669091" lon="7.756793">
        <ele>363.878062</ele>
        <time>2021-11-17T23:36:28.917Z</time>
      </trkpt>
      <trkpt lat="47.668741" lon="7.756742">
        <ele>364.491808</ele>
        <time>2021-11-17T23:36:37.297Z</time>
      </trkpt>
      <trkpt lat="47.668389" lon="7.756691">
        <ele>365.109028</ele>
        <time>2021-11-17T23:36:45.642Z</time>
      </trkpt>
      <trkpt lat="47.668204" lon="7.756659">
        <ele>365.434068</ele>
        <time>2021-11-17T23:36:49.266Z</time>
      </trkpt>
      <trkpt lat="47.668037" lon="7.756617">
        <ele>365.729663</ele>
        <time>2021-11-17T23:36:53.965Z</time>
      </trkpt>
      <trkpt lat="47.667940" lon="7.756573">
        <ele>365.898952</ele>
        <time>2021-11-17T23:36:55.661Z</time>
      </trkpt>
      <trkpt lat="47.667535" lon="7.756311">
        <ele>366.626240</ele>
        <time>2021-11-17T23:37:05.789Z</time>
      </trkpt>
      <trkpt lat="47.666965" lon="7.755610">
        <ele>367.844697</ele>
        <time>2021-11-17T23:37:21.863Z</time>
      </trkpt>
      <trkpt lat="47.666145" lon="7.754840">
        <ele>369.246561</ele>
        <time>2021-11-17T23:37:41.228Z</time>
      </trkpt>
      <trkpt lat="47.665709" lon="7.754195">
        <ele>369.981069</ele>
        <time>2021-11-17T23:37:52.670Z</time>
      </trkpt>
      <trkpt lat="47.665699" lon="7.754180">
        <ele>369.998033</ele>
        <time>2021-11-17T23:37:53.235Z</time>
      </trkpt>
      <trkpt lat="47.665007" lon="7.753666">
        <ele>370.906733</ele>
        <time>2021-11-17T23:38:08.139Z</time>
      </trkpt>
      <trkpt lat="47.664195" lon="7.752781">
        <ele>371.699552</ele>
        <time>2021-11-17T23:38:28.268Z</time>
      </trkpt>
      <trkpt lat="47.663829" lon="7.752468">
        <ele>372.031996</ele>
        <time>2021-11-17T23:38:35.893Z</time>
      </trkpt>
      <trkpt lat="47.663554" lon="7.752233">
        <ele>372.281736</ele>
        <time>2021-11-17T23:38:40.770Z</time>
      </trkpt>
      <trkpt lat="47.663254" lon="7.751899">
        <ele>372.082119</ele>
        <time>2021-11-17T23:38:45.507Z</time>
      </trkpt>
      <trkpt lat="47.663251" lon="7.751892">
        <ele>372.078827</ele>
        <time>2021-11-17T23:38:45.573Z</time>
      </trkpt>
      <trkpt lat="47.663102" lon="7.751640">
        <ele>371.945774</ele>
        <time>2021-11-17T23:38:48.444Z</time>
      </trkpt>
      <trkpt lat="47.662784" lon="7.750886">
        <ele>371.592782</ele>
        <time>2021-11-17T23:38:55.688Z</time>
      </trkpt>
      <trkpt lat="47.662642" lon="7.750494">
        <ele>371.416173</ele>
        <time>2021-11-17T23:38:59.736Z</time>
      </trkpt>
      <trkpt lat="47.662582" lon="7.750324">
        <ele>371.340019</ele>
        <time>2021-11-17T23:39:01.416Z</time>
      </trkpt>
      <trkpt lat="47.662508" lon="7.750137">
        <ele>371.253960</ele>
        <time>2021-11-17T23:39:03.177Z</time>
      </trkpt>
      <trkpt lat="47.662324" lon="7.749780">
        <ele>371.396633</ele>
        <time>2021-11-17T23:39:07.390Z</time>
      </trkpt>
      <trkpt lat="47.662148" lon="7.749579">
        <ele>371.530498</ele>
        <time>2021-11-17T23:39:11.571Z</time>
      </trkpt>
      <trkpt lat="47.662063" lon="7.749497">
        <ele>371.591610</ele>
        <time>2021-11-17T23:39:12.662Z</time>
      </trkpt>
      <trkpt lat="47.661944" lon="7.749391">
        <ele>371.675274</ele>
        <time>2021-11-17T23:39:15.285Z</time>
      </trkpt>
      <trkpt lat="47.661864" lon="7.749324">
        <ele>371.730649</ele>
        <time>2021-11-17T23:39:17.188Z</time>
      </trkpt>
      <trkpt lat="47.661594" lon="7.749074">
        <ele>371.922486</ele>
        <time>2021-11-17T23:39:22.273Z</time>
      </trkpt>
      <trkpt lat="47.660305" lon="7.747482">
        <ele>372.455531</ele>
        <time>2021-11-17T23:39:56.485Z</time>
      </trkpt>
      <trkpt lat="47.659222" lon="7.746022">
        <ele>371.425554</ele>
        <time>2021-11-17T23:40:13.459Z</time>
      </trkpt>
      <trkpt lat="47.658989" lon="7.745708">
        <ele>370.903419</ele>
        <time>2021-11-17T23:40:16.870Z</time>
      </trkpt>
      <trkpt lat="47.658680" lon="7.745390">
        <ele>370.279563</ele>
        <time>2021-11-17T23:40:21.039Z</time>
      </trkpt>
      <trkpt lat="47.658453" lon="7.745199">
        <ele>369.846617</ele>
        <time>2021-11-17T23:40:23.863Z</time>
      </trkpt>
      <trkpt lat="47.658398" lon="7.745154">
        <ele>369.742415</ele>
        <time>2021-11-17T23:40:24.759Z</time>
      </trkpt>
      <trkpt lat="47.657689" lon="7.744743">
        <ele>369.159972</ele>
        <time>2021-11-17T23:40:33.591Z</time>
      </trkpt>
      <trkpt lat="47.657357" lon="7.744551">
        <ele>368.935788</ele>
        <time>2021-11-17T23:40:38.376Z</time>
      </trkpt>
      <trkpt lat="47.656781" lon="7.744132">
        <ele>368.532200</ele>
        <time>2021-11-17T23:40:48.147Z</time>
      </trkpt>
      <trkpt lat="47.656638" lon="7.744059">
        <ele>368.438060</ele>
        <time>2021-11-17T23:40:50.285Z</time>
      </trkpt>
      <trkpt lat="47.656592" lon="7.744040">
        <ele>368.412423</ele>
        <time>2021-11-17T23:40:51.034Z</time>
      </trkpt>
      <trkpt lat="47.656386" lon="7.743947">
        <ele>368.296814</ele>
        <time>2021-11-17T23:40:54.344Z</time>
      </trkpt>
      <trkpt lat="47.656129" lon="7.743833">
        <ele>368.152794</ele>
        <time>2021-11-17T23:40:58.293Z</time>
      </trkpt>
      <trkpt lat="47.654324" lon="7.743075">
        <ele>366.734224</ele>
        <time>2021-11-17T23:41:21.872Z</time>
      </trkpt>
      <trkpt lat="47.653639" lon="7.742914">
        <ele>365.901219</ele>
        <time>2021-11-17T23:41:29.856Z</time>
      </trkpt>
      <trkpt lat="47.653011" lon="7.743041">
        <ele>365.107210</ele>
        <time>2021-11-17T23:41:37.278Z</time>
      </trkpt>
      <trkpt lat="47.652352" lon="7.743329">
        <ele>364.130164</ele>
        <time>2021-11-17T23:41:45.547Z</time>
      </trkpt>
      <trkpt lat="47.651664" lon="7.743365">
        <ele>363.151037</ele>
        <time>2021-11-17T23:41:53.937Z</time>
      </trkpt>
      <trkpt lat="47.650941" lon="7.743251">
        <ele>360.695910</ele>
        <time>2021-11-17T23:42:01.843Z</time>
      </trkpt>
      <trkpt lat="47.650238" lon="7.743181">
        <ele>357.478124</ele>
        <time>2021-11-17T23:42:08.677Z</time>
      </trkpt>
      <trkpt lat="47.649349" lon="7.742957">
        <ele>352.601545</ele>
        <time>2021-11-17T23:42:16.804Z</time>
      </trkpt>
      <trkpt lat="47.648726" lon="7.742773">
        <ele>347.844208</ele>
        <time>2021-11-17T23:42:22.405Z</time>
      </trkpt>
      <trkpt lat="47.648686" lon="7.742761">
        <ele>347.538577</ele>
        <time>2021-11-17T23:42:22.762Z</time>
      </trkpt>
      <trkpt lat="47.648430" lon="7.742708">
        <ele>345.602739</ele>
        <time>2021-11-17T23:42:25.032Z</time>
      </trkpt>
      <trkpt lat="47.647923" lon="7.742761">
        <ele>341.796224</ele>
        <time>2021-11-17T23:42:29.544Z</time>
      </trkpt>
      <trkpt lat="47.647668" lon="7.742782">
        <ele>340.423991</ele>
        <time>2021-11-17T23:42:31.837Z</time>
      </trkpt>
      <trkpt lat="47.647263" lon="7.742628">
        <ele>338.713664</ele>
        <time>2021-11-17T23:42:35.703Z</time>
      </trkpt>
      <trkpt lat="47.647031" lon="7.742584">
        <ele>337.756851</ele>
        <time>2021-11-17T23:42:37.992Z</time>
      </trkpt>
      <trkpt lat="47.646932" lon="7.742608">
        <ele>337.346483</ele>
        <time>2021-11-17T23:42:38.937Z</time>
      </trkpt>
      <trkpt lat="47.646840" lon="7.742630">
        <ele>336.965264</ele>
        <time>2021-11-17T23:42:39.905Z</time>
      </trkpt>
      <trkpt lat="47.646642" lon="7.742762">
        <ele>336.077312</ele>
        <time>2021-11-17T23:42:42.129Z</time>
      </trkpt>
      <trkpt lat="47.646406" lon="7.742933">
        <ele>335.002962</ele>
        <time>2021-11-17T23:42:44.911Z</time>
      </trkpt>
      <trkpt lat="47.646017" lon="7.743245">
        <ele>333.551872</ele>
        <time>2021-11-17T23:42:49.737Z</time>
      </trkpt>
      <trkpt lat="47.645911" lon="7.743330">
        <ele>333.396549</ele>
        <time>2021-11-17T23:42:51.056Z</time>
      </trkpt>
      <trkpt lat="47.645734" lon="7.743440">
        <ele>333.149165</ele>
        <time>2021-11-17T23:42:53.395Z</time>
      </trkpt>
      <trkpt lat="47.645188" lon="7.743513">
        <ele>332.442407</ele>
        <time>2021-11-17T23:42:59.908Z</time>
      </trkpt>
      <trkpt lat="47.645131" lon="7.743484">
        <ele>332.364726</ele>
        <time>2021-11-17T23:43:00.640Z</time>
      </trkpt>
      <trkpt lat="47.645054" lon="7.743433">
        <ele>332.256022</ele>
        <time>2021-11-17T23:43:01.663Z</time>
      </trkpt>
      <trkpt lat="47.644925" lon="7.743203">
        <ele>331.996086</ele>
        <time>2021-11-17T23:43:04.127Z</time>
      </trkpt>
      <trkpt lat="47.644734" lon="7.742487">
        <ele>331.360123</ele>
        <time>2021-11-17T23:43:10.531Z</time>
      </trkpt>
      <trkpt lat="47.644669" lon="7.742280">
        <ele>331.254421</ele>
        <time>2021-11-17T23:43:12.436Z</time>
      </trkpt>
      <trkpt lat="47.644599" lon="7.742155">
        <ele>331.179191</ele>
        <time>2021-11-17T23:43:13.790Z</time>
      </trkpt>
      <trkpt lat="47.644397" lon="7.741849">
        <ele>330.980909</ele>
        <time>2021-11-17T23:43:17.421Z</time>
      </trkpt>
      <trkpt lat="47.644276" lon="7.741683">
        <ele>330.867716</ele>
        <time>2021-11-17T23:43:19.516Z</time>
      </trkpt>
      <trkpt lat="47.644182" lon="7.741417">
        <ele>330.728693</ele>
        <time>2021-11-17T23:43:22.074Z</time>
      </trkpt>
      <trkpt lat="47.644157" lon="7.741340">
        <ele>330.689132</ele>
        <time>2021-11-17T23:43:22.816Z</time>
      </trkpt>
      <trkpt lat="47.644056" lon="7.741009">
        <ele>330.520952</ele>
        <time>2021-11-17T23:43:26.049Z</time>
      </trkpt>
      <trkpt lat="47.644034" lon="7.740945">
        <ele>330.487697</ele>
        <time>2021-11-17T23:43:26.683Z</time>
      </trkpt>
      <trkpt lat="47.643938" lon="7.740664">
        <ele>330.341874</ele>
        <time>2021-11-17T23:43:29.528Z</time>
      </trkpt>
      <trkpt lat="47.643881" lon="7.740570">
        <ele>330.283340</ele>
        <time>2021-11-17T23:43:30.654Z</time>
      </trkpt>
      <trkpt lat="47.643783" lon="7.740468">
        <ele>330.201113</ele>
        <time>2021-11-17T23:43:32.188Z</time>
      </trkpt>
      <trkpt lat="47.643656" lon="7.740319">
        <ele>330.123551</ele>
        <time>2021-11-17T23:43:34.403Z</time>
      </trkpt>
      <trkpt lat="47.643591" lon="7.740215">
        <ele>330.088521</ele>
        <time>2021-11-17T23:43:35.690Z</time>
      </trkpt>
      <trkpt lat="47.643475" lon="7.739785">
        <ele>329.974143</ele>
        <time>2021-11-17T23:43:39.804Z</time>
      </trkpt>
      <trkpt lat="47.643301" lon="7.739935">
        <ele>329.900393</ele>
        <time>2021-11-17T23:43:42.463Z</time>
      </trkpt>
      <trkpt lat="47.643168" lon="7.740007">
        <ele>329.848505</ele>
        <time>2021-11-17T23:43:44.420Z</time>
      </trkpt>
      <trkpt lat="47.643121" lon="7.740032">
        <ele>329.830206</ele>
        <time>2021-11-17T23:43:45.110Z</time>
      </trkpt>
      <trkpt lat="47.642972" lon="7.740117">
        <ele>329.771700</ele>
        <time>2021-11-17T23:43:47.257Z</time>
      </trkpt>
      <trkpt lat="47.642922" lon="7.740181">
        <ele>329.747501</ele>
        <time>2021-11-17T23:43:48.186Z</time>
      </trkpt>
      <trkpt lat="47.642911" lon="7.740194">
        <ele>329.742347</ele>
        <time>2021-11-17T23:43:48.368Z</time>
      </trkpt>
      <trkpt lat="47.642862" lon="7.740256">
        <ele>329.718748</ele>
        <time>2021-11-17T23:43:49.245Z</time>
      </trkpt>
      <trkpt lat="47.642822" lon="7.740329">
        <ele>329.695512</ele>
        <time>2021-11-17T23:43:50.059Z</time>
      </trkpt>
      <trkpt lat="47.642798" lon="7.740374">
        <ele>329.681340</ele>
        <time>2021-11-17T23:43:50.617Z</time>
      </trkpt>
      <trkpt lat="47.642773" lon="7.740429">
        <ele>329.664956</ele>
        <time>2021-11-17T23:43:51.190Z</time>
      </trkpt>
      <trkpt lat="47.642647" lon="7.740709">
        <ele>329.581809</ele>
        <time>2021-11-17T23:43:54.388Z</time>
      </trkpt>
      <trkpt lat="47.642519" lon="7.740966">
        <ele>329.502888</ele>
        <time>2021-11-17T23:43:57.466Z</time>
      </trkpt>
      <trkpt lat="47.642394" lon="7.741202">
        <ele>329.512445</ele>
        <time>2021-11-17T23:44:00.321Z</time>
      </trkpt>
      <trkpt lat="47.642274" lon="7.741453">
        <ele>329.522340</ele>
        <time>2021-11-17T23:44:03.383Z</time>
      </trkpt>
      <trkpt lat="47.642209" lon="7.741595">
        <ele>329.527859</ele>
        <time>2021-11-17T23:44:04.997Z</time>
      </trkpt>
      <trkpt lat="47.642066" lon="7.741908">
        <ele>329.540017</ele>
        <time>2021-11-17T23:44:08.758Z</time>
      </trkpt>
      <trkpt lat="47.641997" lon="7.741966">
        <ele>329.543801</ele>
        <time>2021-11-17T23:44:09.937Z</time>
      </trkpt>
      <trkpt lat="47.641954" lon="7.741976">
        <ele>329.545878</ele>
        <time>2021-11-17T23:44:10.511Z</time>
      </trkpt>
      <trkpt lat="47.641958" lon="7.742061">
        <ele>329.548617</ele>
        <time>2021-11-17T23:44:11.376Z</time>
      </trkpt>
      <trkpt lat="47.641960" lon="7.742153">
        <ele>329.551577</ele>
        <time>2021-11-17T23:44:12.316Z</time>
      </trkpt>
      <trkpt lat="47.641952" lon="7.742244">
        <ele>329.554527</ele>
        <time>2021-11-17T23:44:13.313Z</time>
      </trkpt>
      <trkpt lat="47.641935" lon="7.742324">
        <ele>329.557224</ele>
        <time>2021-11-17T23:44:14.201Z</time>
      </trkpt>
      <trkpt lat="47.641903" lon="7.742471">
        <ele>329.562191</ele>
        <time>2021-11-17T23:44:15.740Z</time>
      </trkpt>
      <trkpt lat="47.641887" lon="7.742564">
        <ele>329.565276</ele>
        <time>2021-11-17T23:44:16.643Z</time>
      </trkpt>
      <trkpt lat="47.641875" lon="7.742622">
        <ele>329.567227</ele>
        <time>2021-11-17T23:44:17.318Z</time>
      </trkpt>
      <trkpt lat="47.641858" lon="7.742708">
        <ele>329.570109</ele>
        <time>2021-11-17T23:44:18.344Z</time>
      </trkpt>
      <trkpt lat="47.641802" lon="7.742982">
        <ele>329.579314</ele>
        <time>2021-11-17T23:44:21.403Z</time>
      </trkpt>
      <trkpt lat="47.641773" lon="7.743087">
        <ele>329.582962</ele>
        <time>2021-11-17T23:44:22.536Z</time>
      </trkpt>
      <trkpt lat="47.641651" lon="7.743319">
        <ele>329.621705</ele>
        <time>2021-11-17T23:44:25.885Z</time>
      </trkpt>
      <trkpt lat="47.641543" lon="7.743498">
        <ele>329.689059</ele>
        <time>2021-11-17T23:44:28.317Z</time>
      </trkpt>
      <trkpt lat="47.641440" lon="7.743669">
        <ele>329.753355</ele>
        <time>2021-11-17T23:44:30.941Z</time>
      </trkpt>
      <trkpt lat="47.641133" lon="7.744182">
        <ele>329.945690</ele>
        <time>2021-11-17T23:44:38.802Z</time>
      </trkpt>
      <trkpt lat="47.641118" lon="7.744203">
        <ele>329.954268</ele>
        <time>2021-11-17T23:44:39.191Z</time>
      </trkpt>
      <trkpt lat="47.641021" lon="7.744322">
        <ele>330.006626</ele>
        <time>2021-11-17T23:44:41.348Z</time>
      </trkpt>
      <trkpt lat="47.641089" lon="7.744504">
        <ele>330.064963</ele>
        <time>2021-11-17T23:44:43.857Z</time>
      </trkpt>
      <trkpt lat="47.641098" lon="7.744530">
        <ele>330.073157</ele>
        <time>2021-11-17T23:44:44.137Z</time>
      </trkpt>
      <trkpt lat="47.641149" lon="7.744754">
        <ele>330.139436</ele>
        <time>2021-11-17T23:44:46.782Z</time>
      </trkpt>
      <trkpt lat="47.641056" lon="7.744855">
        <ele>330.187380</ele>
        <time>2021-11-17T23:44:48.764Z</time>
      </trkpt>
      <trkpt lat="47.640998" lon="7.744824">
        <ele>330.213027</ele>
        <time>2021-11-17T23:44:49.741Z</time>
      </trkpt>
      <trkpt lat="47.640958" lon="7.744746">
        <ele>330.240505</ele>
        <time>2021-11-17T23:44:50.749Z</time>
      </trkpt>
      <trkpt lat="47.640859" lon="7.744671">
        <ele>330.286748</ele>
        <time>2021-11-17T23:44:52.547Z</time>
      </trkpt>
      <trkpt lat="47.640802" lon="7.744697">
        <ele>330.311557</ele>
        <time>2021-11-17T23:44:53.505Z</time>
      </trkpt>
      <trkpt lat="47.640698" lon="7.744798">
        <ele>330.435815</ele>
        <time>2021-11-17T23:44:55.566Z</time>
      </trkpt>
      <trkpt lat="47.640175" lon="7.745392">
        <ele>331.464893</ele>
        <time>2021-11-17T23:45:05.867Z</time>
      </trkpt>
      <trkpt lat="47.639661" lon="7.744599">
        <ele>332.623421</ele>
        <time>2021-11-17T23:45:19.684Z</time>
      </trkpt>
      <trkpt lat="47.639515" lon="7.744455">
        <ele>332.897345</ele>
        <time>2021-11-17T23:45:23.607Z</time>
      </trkpt>
      <trkpt lat="47.639286" lon="7.744230">
        <ele>334.246485</ele>
        <time>2021-11-17T23:45:31.089Z</time>
      </trkpt>
      <trkpt lat="47.639124" lon="7.743936">
        <ele>336.701725</ele>
        <time>2021-11-17T23:45:41.436Z</time>
      </trkpt>
      <trkpt lat="47.639034" lon="7.743640">
        <ele>338.801088</ele>
        <time>2021-11-17T23:45:52.158Z</time>
      </trkpt>
      <trkpt lat="47.638834" lon="7.743716">
        <ele>340.781875</ele>
        <time>2021-11-17T23:46:04.447Z</time>
      </trkpt>
      <trkpt lat="47.638586" lon="7.743801">
        <ele>343.223922</ele>
        <time>2021-11-17T23:46:20.637Z</time>
      </trkpt>
      <trkpt lat="47.638337" lon="7.743810">
        <ele>345.613643</ele>
        <time>2021-11-17T23:46:35.037Z</time>
      </trkpt>
      <trkpt lat="47.638011" lon="7.743662">
        <ele>348.884498</ele>
        <time>2021-11-17T23:46:56.392Z</time>
      </trkpt>
      <trkpt lat="47.637785" lon="7.743491">
        <ele>351.471166</ele>
        <time>2021-11-17T23:47:13.322Z</time>
      </trkpt>
      <trkpt lat="47.637644" lon="7.743238">
        <ele>353.948574</ele>
        <time>2021-11-17T23:47:29.271Z</time>
      </trkpt>
      <trkpt lat="47.637552" lon="7.742900">
        <ele>356.699220</ele>
        <time>2021-11-17T23:47:45.037Z</time>
      </trkpt>
      <trkpt lat="47.637523" lon="7.742385">
        <ele>360.598767</ele>
        <time>2021-11-17T23:48:07.894Z</time>
      </trkpt>
      <trkpt lat="47.637556" lon="7.741902">
        <ele>364.261994</ele>
        <time>2021-11-17T23:48:28.579Z</time>
      </trkpt>
      <trkpt lat="47.637528" lon="7.741566">
        <ele>366.816642</ele>
        <time>2021-11-17T23:48:42.830Z</time>
      </trkpt>
      <trkpt lat="47.637507" lon="7.741319">
        <ele>368.695191</ele>
        <time>2021-11-17T23:48:52.543Z</time>
      </trkpt>
      <trkpt lat="47.637359" lon="7.740737">
        <ele>371.945509</ele>
        <time>2021-11-17T23:49:09.895Z</time>
      </trkpt>
      <trkpt lat="47.637115" lon="7.740401">
        <ele>373.780187</ele>
        <time>2021-11-17T23:49:20.648Z</time>
      </trkpt>
      <trkpt lat="47.636771" lon="7.740116">
        <ele>375.951726</ele>
        <time>2021-11-17T23:49:33.769Z</time>
      </trkpt>
      <trkpt lat="47.636317" lon="7.740109">
        <ele>378.454256</ele>
        <time>2021-11-17T23:49:49.275Z</time>
      </trkpt>
      <trkpt lat="47.636139" lon="7.739987">
        <ele>379.534952</ele>
        <time>2021-11-17T23:49:55.749Z</time>
      </trkpt>
      <trkpt lat="47.635963" lon="7.739717">
        <ele>380.869419</ele>
        <time>2021-11-17T23:50:04.351Z</time>
      </trkpt>
      <trkpt lat="47.635790" lon="7.739028">
        <ele>383.247221</ele>
        <time>2021-11-17T23:50:21.675Z</time>
      </trkpt>
      <trkpt lat="47.635441" lon="7.738683">
        <ele>385.259709</ele>
        <time>2021-11-17T23:50:36.780Z</time>
      </trkpt>
      <trkpt lat="47.634316" lon="7.737920">
        <ele>390.641694</ele>
        <time>2021-11-17T23:51:17.942Z</time>
      </trkpt>
      <trkpt lat="47.632595" lon="7.737266">
        <ele>396.571704</ele>
        <time>2021-11-17T23:52:06.584Z</time>
      </trkpt>
      <trkpt lat="47.632395" lon="7.737249">
        <ele>397.111494</ele>
        <time>2021-11-17T23:52:11.625Z</time>
      </trkpt>
      <trkpt lat="47.632230" lon="7.737357">
        <ele>397.597421</ele>
        <time>2021-11-17T23:52:16.266Z</time>
      </trkpt>
      <trkpt lat="47.631655" lon="7.738144">
        <ele>399.705188</ele>
        <time>2021-11-17T23:52:35.329Z</time>
      </trkpt>
      <trkpt lat="47.631444" lon="7.738356">
        <ele>400.404165</ele>
        <time>2021-11-17T23:52:42.114Z</time>
      </trkpt>
      <trkpt lat="47.631444" lon="7.738356">
        <ele>400.404165</ele>
        <time>2021-11-17T23:52:42.115Z</time>
      </trkpt>
      <trkpt lat="47.631444" lon="7.738356">
        <ele>400.404165</ele>
        <time>2021-11-17T23:52:42.128Z</time>
      </trkpt>
      <trkpt lat="47.631083" lon="7.738808">
        <ele>401.842230</ele>
        <time>2021-11-17T23:52:54.003Z</time>
      </trkpt>
      <trkpt lat="47.630948" lon="7.739058">
        <ele>402.499525</ele>
        <time>2021-11-17T23:53:00.052Z</time>
      </trkpt>
      <trkpt lat="47.630891" lon="7.739335">
        <ele>403.093762</ele>
        <time>2021-11-17T23:53:04.768Z</time>
      </trkpt>
      <trkpt lat="47.630944" lon="7.739673">
        <ele>403.805777</ele>
        <time>2021-11-17T23:53:11.674Z</time>
      </trkpt>
      <trkpt lat="47.630907" lon="7.739873">
        <ele>404.231306</ele>
        <time>2021-11-17T23:53:15.102Z</time>
      </trkpt>
      <trkpt lat="47.630897" lon="7.740046">
        <ele>404.587561</ele>
        <time>2021-11-17T23:53:18.948Z</time>
      </trkpt>
      <trkpt lat="47.630863" lon="7.740423">
        <ele>405.367965</ele>
        <time>2021-11-17T23:53:25.536Z</time>
      </trkpt>
      <trkpt lat="47.630897" lon="7.740602">
        <ele>405.749536</ele>
        <time>2021-11-17T23:53:29.396Z</time>
      </trkpt>
      <trkpt lat="47.631280" lon="7.741275">
        <ele>408.291971</ele>
        <time>2021-11-17T23:53:46.350Z</time>
      </trkpt>
      <trkpt lat="47.631424" lon="7.741490">
        <ele>409.170156</ele>
        <time>2021-11-17T23:53:53.161Z</time>
      </trkpt>
      <trkpt lat="47.631477" lon="7.741795">
        <ele>410.082673</ele>
        <time>2021-11-17T23:54:00.085Z</time>
      </trkpt>
      <trkpt lat="47.631282" lon="7.742608">
        <ele>412.582751</ele>
        <time>2021-11-17T23:54:19.621Z</time>
      </trkpt>
      <trkpt lat="47.631260" lon="7.742819">
        <ele>413.201313</ele>
        <time>2021-11-17T23:54:24.595Z</time>
      </trkpt>
      <trkpt lat="47.631202" lon="7.744011">
        <ele>417.239631</ele>
        <time>2021-11-17T23:54:52.896Z</time>
      </trkpt>
      <trkpt lat="47.631185" lon="7.744218">
        <ele>417.953937</ele>
        <time>2021-11-17T23:54:57.684Z</time>
      </trkpt>
      <trkpt lat="47.631075" lon="7.745596">
        <ele>422.697723</ele>
        <time>2021-11-17T23:55:31.735Z</time>
      </trkpt>
      <trkpt lat="47.631034" lon="7.745824">
        <ele>423.378177</ele>
        <time>2021-11-17T23:55:36.820Z</time>
      </trkpt>
      <trkpt lat="47.630948" lon="7.746031">
        <ele>424.079388</ele>
        <time>2021-11-17T23:55:42.675Z</time>
      </trkpt>
      <trkpt lat="47.630697" lon="7.746375">
        <ele>425.541385</ele>
        <time>2021-11-17T23:55:53.953Z</time>
      </trkpt>
      <trkpt lat="47.629711" lon="7.747557">
        <ele>430.916336</ele>
        <time>2021-11-17T23:56:32.572Z</time>
      </trkpt>
      <trkpt lat="47.629452" lon="7.747871">
        <ele>432.235042</ele>
        <time>2021-11-17T23:56:42.809Z</time>
      </trkpt>
      <trkpt lat="47.629212" lon="7.748211">
        <ele>433.543346</ele>
        <time>2021-11-17T23:56:52.874Z</time>
      </trkpt>
      <trkpt lat="47.628729" lon="7.749001">
        <ele>436.377656</ele>
        <time>2021-11-17T23:57:14.955Z</time>
      </trkpt>
      <trkpt lat="47.628604" lon="7.749202">
        <ele>437.104409</ele>
        <time>2021-11-17T23:57:20.232Z</time>
      </trkpt>
      <trkpt lat="47.628584" lon="7.749233">
        <ele>437.218444</ele>
        <time>2021-11-17T23:57:21.907Z</time>
      </trkpt>
      <trkpt lat="47.627609" lon="7.750299">
        <ele>441.243688</ele>
        <time>2021-11-17T23:57:58.227Z</time>
      </trkpt>
      <trkpt lat="47.625761" lon="7.752304">
        <ele>446.619528</ele>
        <time>2021-11-17T23:58:53.480Z</time>
      </trkpt>
      <trkpt lat="47.624838" lon="7.753339">
        <ele>446.989852</ele>
        <time>2021-11-17T23:59:11.570Z</time>
      </trkpt>
      <trkpt lat="47.624277" lon="7.754101">
        <ele>447.042600</ele>
        <time>2021-11-17T23:59:21.447Z</time>
      </trkpt>
      <trkpt lat="47.622712" lon="7.756863">
        <ele>445.722635</ele>
        <time>2021-11-17T23:59:54.483Z</time>
      </trkpt>
      <trkpt lat="47.622511" lon="7.757074">
        <ele>445.481461</ele>
        <time>2021-11-17T23:59:57.563Z</time>
      </trkpt>
      <trkpt lat="47.622401" lon="7.757191">
        <ele>445.348890</ele>
        <time>2021-11-17T23:59:59.095Z</time>
      </trkpt>
      <trkpt lat="47.621775" lon="7.757496">
        <ele>444.703514</ele>
        <time>2021-11-18T00:00:06.690Z</time>
      </trkpt>
      <trkpt lat="47.621392" lon="7.757689">
        <ele>444.522967</ele>
        <time>2021-11-18T00:00:11.384Z</time>
      </trkpt>
      <trkpt lat="47.621012" lon="7.757974">
        <ele>444.478148</ele>
        <time>2021-11-18T00:00:16.698Z</time>
      </trkpt>
      <trkpt lat="47.620828" lon="7.758215">
        <ele>444.452312</ele>
        <time>2021-11-18T00:00:20.032Z</time>
      </trkpt>
      <trkpt lat="47.620566" lon="7.758657">
        <ele>444.410550</ele>
        <time>2021-11-18T00:00:25.738Z</time>
      </trkpt>
      <trkpt lat="47.620058" lon="7.759513">
        <ele>445.136305</ele>
        <time>2021-11-18T00:00:39.975Z</time>
      </trkpt>
      <trkpt lat="47.619245" lon="7.761370">
        <ele>449.207471</ele>
        <time>2021-11-18T00:01:22.462Z</time>
      </trkpt>
      <trkpt lat="47.618940" lon="7.761783">
        <ele>449.749016</ele>
        <time>2021-11-18T00:01:33.060Z</time>
      </trkpt>
      <trkpt lat="47.618742" lon="7.761992">
        <ele>450.048955</ele>
        <time>2021-11-18T00:01:38.858Z</time>
      </trkpt>
      <trkpt lat="47.618586" lon="7.762088">
        <ele>450.257413</ele>
        <time>2021-11-18T00:01:42.517Z</time>
      </trkpt>
      <trkpt lat="47.618125" lon="7.762615">
        <ele>450.975760</ele>
        <time>2021-11-18T00:01:53.123Z</time>
      </trkpt>
      <trkpt lat="47.617894" lon="7.763136">
        <ele>451.475769</ele>
        <time>2021-11-18T00:01:59.064Z</time>
      </trkpt>
      <trkpt lat="47.617553" lon="7.762928">
        <ele>450.967596</ele>
        <time>2021-11-18T00:02:03.672Z</time>
      </trkpt>
      <trkpt lat="47.617386" lon="7.762826">
        <ele>450.718678</ele>
        <time>2021-11-18T00:02:05.641Z</time>
      </trkpt>
      <trkpt lat="47.616849" lon="7.762442">
        <ele>449.897041</ele>
        <time>2021-11-18T00:02:11.967Z</time>
      </trkpt>
      <trkpt lat="47.615919" lon="7.761819">
        <ele>449.094877</ele>
        <time>2021-11-18T00:02:24.301Z</time>
      </trkpt>
      <trkpt lat="47.615769" lon="7.761789">
        <ele>449.130539</ele>
        <time>2021-11-18T00:02:26.312Z</time>
      </trkpt>
      <trkpt lat="47.615620" lon="7.761773">
        <ele>449.165737</ele>
        <time>2021-11-18T00:02:28.315Z</time>
      </trkpt>
      <trkpt lat="47.615529" lon="7.761749">
        <ele>449.187514</ele>
        <time>2021-11-18T00:02:30.398Z</time>
      </trkpt>
      <trkpt lat="47.615007" lon="7.761358">
        <ele>449.325294</ele>
        <time>2021-11-18T00:02:39.378Z</time>
      </trkpt>
      <trkpt lat="47.614820" lon="7.761190">
        <ele>449.376804</ele>
        <time>2021-11-18T00:02:43.924Z</time>
      </trkpt>
      <trkpt lat="47.614766" lon="7.761162">
        <ele>449.390282</ele>
        <time>2021-11-18T00:02:44.822Z</time>
      </trkpt>
      <trkpt lat="47.614706" lon="7.761147">
        <ele>449.404618</ele>
        <time>2021-11-18T00:02:45.914Z</time>
      </trkpt>
      <trkpt lat="47.614392" lon="7.761173">
        <ele>449.686391</ele>
        <time>2021-11-18T00:02:52.834Z</time>
      </trkpt>
      <trkpt lat="47.614228" lon="7.761168">
        <ele>449.891315</ele>
        <time>2021-11-18T00:02:56.635Z</time>
      </trkpt>
      <trkpt lat="47.614092" lon="7.761125">
        <ele>450.065032</ele>
        <time>2021-11-18T00:03:00.132Z</time>
      </trkpt>
      <trkpt lat="47.613842" lon="7.761046">
        <ele>450.384358</ele>
        <time>2021-11-18T00:03:05.504Z</time>
      </trkpt>
      <trkpt lat="47.613657" lon="7.760988">
        <ele>450.620579</ele>
        <time>2021-11-18T00:03:09.628Z</time>
      </trkpt>
      <trkpt lat="47.613167" lon="7.760835">
        <ele>451.246136</ele>
        <time>2021-11-18T00:03:19.327Z</time>
      </trkpt>
      <trkpt lat="47.613078" lon="7.760746">
        <ele>451.380227</ele>
        <time>2021-11-18T00:03:20.937Z</time>
      </trkpt>
      <trkpt lat="47.613059" lon="7.760674">
        <ele>451.445344</ele>
        <time>2021-11-18T00:03:22.126Z</time>
      </trkpt>
      <trkpt lat="47.612960" lon="7.760706">
        <ele>451.571924</ele>
        <time>2021-11-18T00:03:23.777Z</time>
      </trkpt>
      <trkpt lat="47.612812" lon="7.760726">
        <ele>451.710534</ele>
        <time>2021-11-18T00:03:26.045Z</time>
      </trkpt>
      <trkpt lat="47.612630" lon="7.760759">
        <ele>451.805123</ele>
        <time>2021-11-18T00:03:29.360Z</time>
      </trkpt>
      <trkpt lat="47.612523" lon="7.760811">
        <ele>451.863210</ele>
        <time>2021-11-18T00:03:31.169Z</time>
      </trkpt>
      <trkpt lat="47.612441" lon="7.760890">
        <ele>451.913651</ele>
        <time>2021-11-18T00:03:32.693Z</time>
      </trkpt>
      <trkpt lat="47.612127" lon="7.761383">
        <ele>452.149526</ele>
        <time>2021-11-18T00:03:40.677Z</time>
      </trkpt>
      <trkpt lat="47.612075" lon="7.761435">
        <ele>452.181879</ele>
        <time>2021-11-18T00:03:41.661Z</time>
      </trkpt>
      <trkpt lat="47.612022" lon="7.761449">
        <ele>452.209651</ele>
        <time>2021-11-18T00:03:42.534Z</time>
      </trkpt>
      <trkpt lat="47.611933" lon="7.761457">
        <ele>452.255649</ele>
        <time>2021-11-18T00:03:43.907Z</time>
      </trkpt>
      <trkpt lat="47.610854" lon="7.761285">
        <ele>453.200220</ele>
        <time>2021-11-18T00:04:01.815Z</time>
      </trkpt>
      <trkpt lat="47.610760" lon="7.761304">
        <ele>453.338755</ele>
        <time>2021-11-18T00:04:03.475Z</time>
      </trkpt>
      <trkpt lat="47.610601" lon="7.761374">
        <ele>453.580949</ele>
        <time>2021-11-18T00:04:06.747Z</time>
      </trkpt>
      <trkpt lat="47.610565" lon="7.761273">
        <ele>453.693421</ele>
        <time>2021-11-18T00:04:08.289Z</time>
      </trkpt>
      <trkpt lat="47.610488" lon="7.761190">
        <ele>453.832417</ele>
        <time>2021-11-18T00:04:10.086Z</time>
      </trkpt>
      <trkpt lat="47.610076" lon="7.761100">
        <ele>454.440538</ele>
        <time>2021-11-18T00:04:18.981Z</time>
      </trkpt>
      <trkpt lat="47.608938" lon="7.760829">
        <ele>456.381160</ele>
        <time>2021-11-18T00:04:47.321Z</time>
      </trkpt>
      <trkpt lat="47.607825" lon="7.760537">
        <ele>458.508354</ele>
        <time>2021-11-18T00:05:12.812Z</time>
      </trkpt>
      <trkpt lat="47.607246" lon="7.760369">
        <ele>458.745790</ele>
        <time>2021-11-18T00:05:22.815Z</time>
      </trkpt>
      <trkpt lat="47.606171" lon="7.760045">
        <ele>459.011394</ele>
        <time>2021-11-18T00:05:38.179Z</time>
      </trkpt>
      <trkpt lat="47.605536" lon="7.759853">
        <ele>459.332510</ele>
        <time>2021-11-18T00:05:48.249Z</time>
      </trkpt>
      <trkpt lat="47.605325" lon="7.759787">
        <ele>459.458695</ele>
        <time>2021-11-18T00:05:52.059Z</time>
      </trkpt>
      <trkpt lat="47.604633" lon="7.759635">
        <ele>459.868043</ele>
        <time>2021-11-18T00:06:05.226Z</time>
      </trkpt>
      <trkpt lat="47.604421" lon="7.759606">
        <ele>459.992623</ele>
        <time>2021-11-18T00:06:09.450Z</time>
      </trkpt>
      <trkpt lat="47.604088" lon="7.759601">
        <ele>459.847529</ele>
        <time>2021-11-18T00:06:15.390Z</time>
      </trkpt>
      <trkpt lat="47.603613" lon="7.759659">
        <ele>458.978465</ele>
        <time>2021-11-18T00:06:22.245Z</time>
      </trkpt>
      <trkpt lat="47.603173" lon="7.759766">
        <ele>458.165439</ele>
        <time>2021-11-18T00:06:27.495Z</time>
      </trkpt>
      <trkpt lat="47.602902" lon="7.759841">
        <ele>457.662757</ele>
        <time>2021-11-18T00:06:30.474Z</time>
      </trkpt>
      <trkpt lat="47.602078" lon="7.760047">
        <ele>454.512548</ele>
        <time>2021-11-18T00:06:38.452Z</time>
      </trkpt>
      <trkpt lat="47.601600" lon="7.760073">
        <ele>451.572820</ele>
        <time>2021-11-18T00:06:42.850Z</time>
      </trkpt>
      <trkpt lat="47.601336" lon="7.760030">
        <ele>449.940540</ele>
        <time>2021-11-18T00:06:45.246Z</time>
      </trkpt>
      <trkpt lat="47.601032" lon="7.760002">
        <ele>448.068579</ele>
        <time>2021-11-18T00:06:47.983Z</time>
      </trkpt>
      <trkpt lat="47.600757" lon="7.759977">
        <ele>446.375277</ele>
        <time>2021-11-18T00:06:50.423Z</time>
      </trkpt>
      <trkpt lat="47.599976" lon="7.759788">
        <ele>440.766297</ele>
        <time>2021-11-18T00:06:57.518Z</time>
      </trkpt>
      <trkpt lat="47.599727" lon="7.759652">
        <ele>438.850004</ele>
        <time>2021-11-18T00:06:59.862Z</time>
      </trkpt>
      <trkpt lat="47.599495" lon="7.759407">
        <ele>436.793177</ele>
        <time>2021-11-18T00:07:02.406Z</time>
      </trkpt>
      <trkpt lat="47.599369" lon="7.759291">
        <ele>435.722157</ele>
        <time>2021-11-18T00:07:03.716Z</time>
      </trkpt>
      <trkpt lat="47.599038" lon="7.759240">
        <ele>433.318892</ele>
        <time>2021-11-18T00:07:06.737Z</time>
      </trkpt>
      <trkpt lat="47.598636" lon="7.759436">
        <ele>430.270345</ele>
        <time>2021-11-18T00:07:10.568Z</time>
      </trkpt>
      <trkpt lat="47.598492" lon="7.759485">
        <ele>429.206554</ele>
        <time>2021-11-18T00:07:11.902Z</time>
      </trkpt>
      <trkpt lat="47.598314" lon="7.759510">
        <ele>427.919161</ele>
        <time>2021-11-18T00:07:13.482Z</time>
      </trkpt>
      <trkpt lat="47.597328" lon="7.759556">
        <ele>420.816130</ele>
        <time>2021-11-18T00:07:22.362Z</time>
      </trkpt>
      <trkpt lat="47.596893" lon="7.759520">
        <ele>417.125449</ele>
        <time>2021-11-18T00:07:26.217Z</time>
      </trkpt>
      <trkpt lat="47.596644" lon="7.759494">
        <ele>414.865626</ele>
        <time>2021-11-18T00:07:28.369Z</time>
      </trkpt>
      <trkpt lat="47.596241" lon="7.759593">
        <ele>411.167471</ele>
        <time>2021-11-18T00:07:31.951Z</time>
      </trkpt>
      <trkpt lat="47.596134" lon="7.759703">
        <ele>409.988766</ele>
        <time>2021-11-18T00:07:33.095Z</time>
      </trkpt>
      <trkpt lat="47.596041" lon="7.759870">
        <ele>408.666519</ele>
        <time>2021-11-18T00:07:34.330Z</time>
      </trkpt>
      <trkpt lat="47.595854" lon="7.760335">
        <ele>405.361200</ele>
        <time>2021-11-18T00:07:37.471Z</time>
      </trkpt>
      <trkpt lat="47.595755" lon="7.760659">
        <ele>403.197783</ele>
        <time>2021-11-18T00:07:39.579Z</time>
      </trkpt>
      <trkpt lat="47.595685" lon="7.760825">
        <ele>402.029931</ele>
        <time>2021-11-18T00:07:40.689Z</time>
      </trkpt>
      <trkpt lat="47.595483" lon="7.761108">
        <ele>399.571815</ele>
        <time>2021-11-18T00:07:43.120Z</time>
      </trkpt>
      <trkpt lat="47.595252" lon="7.761235">
        <ele>397.392589</ele>
        <time>2021-11-18T00:07:45.255Z</time>
      </trkpt>
      <trkpt lat="47.595086" lon="7.761325">
        <ele>395.829169</ele>
        <time>2021-11-18T00:07:46.757Z</time>
      </trkpt>
      <trkpt lat="47.594411" lon="7.761312">
        <ele>389.857950</ele>
        <time>2021-11-18T00:07:52.660Z</time>
      </trkpt>
      <trkpt lat="47.593803" lon="7.761400">
        <ele>385.693818</ele>
        <time>2021-11-18T00:07:58.178Z</time>
      </trkpt>
      <trkpt lat="47.593513" lon="7.761296">
        <ele>384.082372</ele>
        <time>2021-11-18T00:08:00.931Z</time>
      </trkpt>
      <trkpt lat="47.593211" lon="7.761047">
        <ele>382.216078</ele>
        <time>2021-11-18T00:08:04.156Z</time>
      </trkpt>
      <trkpt lat="47.592736" lon="7.760559">
        <ele>379.094999</ele>
        <time>2021-11-18T00:08:09.667Z</time>
      </trkpt>
      <trkpt lat="47.592317" lon="7.760056">
        <ele>376.553886</ele>
        <time>2021-11-18T00:08:15.014Z</time>
      </trkpt>
      <trkpt lat="47.592205" lon="7.759833">
        <ele>375.756872</ele>
        <time>2021-11-18T00:08:16.818Z</time>
      </trkpt>
      <trkpt lat="47.591959" lon="7.759015">
        <ele>373.189512</ele>
        <time>2021-11-18T00:08:22.710Z</time>
      </trkpt>
      <trkpt lat="47.591911" lon="7.758184">
        <ele>370.798726</ele>
        <time>2021-11-18T00:08:28.242Z</time>
      </trkpt>
      <trkpt lat="47.591923" lon="7.757894">
        <ele>369.824887</ele>
        <time>2021-11-18T00:08:30.058Z</time>
      </trkpt>
      <trkpt lat="47.591970" lon="7.757544">
        <ele>368.339688</ele>
        <time>2021-11-18T00:08:32.334Z</time>
      </trkpt>
      <trkpt lat="47.592034" lon="7.757251">
        <ele>367.057940</ele>
        <time>2021-11-18T00:08:34.210Z</time>
      </trkpt>
      <trkpt lat="47.592097" lon="7.757042">
        <ele>366.105211</ele>
        <time>2021-11-18T00:08:35.633Z</time>
      </trkpt>
      <trkpt lat="47.592316" lon="7.756315">
        <ele>362.791541</ele>
        <time>2021-11-18T00:08:40.492Z</time>
      </trkpt>
      <trkpt lat="47.592371" lon="7.756099">
        <ele>361.830676</ele>
        <time>2021-11-18T00:08:41.906Z</time>
      </trkpt>
      <trkpt lat="47.592426" lon="7.755881">
        <ele>360.862020</ele>
        <time>2021-11-18T00:08:43.288Z</time>
      </trkpt>
      <trkpt lat="47.592484" lon="7.755586">
        <ele>359.583214</ele>
        <time>2021-11-18T00:08:45.161Z</time>
      </trkpt>
      <trkpt lat="47.592501" lon="7.755402">
        <ele>358.930483</ele>
        <time>2021-11-18T00:08:46.283Z</time>
      </trkpt>
      <trkpt lat="47.592485" lon="7.755255">
        <ele>358.513019</ele>
        <time>2021-11-18T00:08:47.189Z</time>
      </trkpt>
      <trkpt lat="47.592241" lon="7.754241">
        <ele>355.494610</ele>
        <time>2021-11-18T00:08:53.904Z</time>
      </trkpt>
      <trkpt lat="47.592004" lon="7.753676">
        <ele>353.629150</ele>
        <time>2021-11-18T00:08:58.241Z</time>
      </trkpt>
      <trkpt lat="47.591881" lon="7.753444">
        <ele>352.801781</ele>
        <time>2021-11-18T00:09:00.250Z</time>
      </trkpt>
      <trkpt lat="47.590881" lon="7.751756">
        <ele>352.826087</ele>
        <time>2021-11-18T00:09:24.626Z</time>
      </trkpt>
      <trkpt lat="47.590052" lon="7.749933">
        <ele>355.142161</ele>
        <time>2021-11-18T00:10:03.937Z</time>
      </trkpt>
      <trkpt lat="47.589642" lon="7.749241">
        <ele>356.353754</ele>
        <time>2021-11-18T00:10:17.762Z</time>
      </trkpt>
      <trkpt lat="47.588960" lon="7.748448">
        <ele>355.938541</ele>
        <time>2021-11-18T00:10:30.153Z</time>
      </trkpt>
      <trkpt lat="47.588856" lon="7.748365">
        <ele>355.770363</ele>
        <time>2021-11-18T00:10:31.620Z</time>
      </trkpt>
      <trkpt lat="47.588242" lon="7.747872">
        <ele>354.776104</ele>
        <time>2021-11-18T00:10:39.870Z</time>
      </trkpt>
      <trkpt lat="47.588045" lon="7.747762">
        <ele>354.476358</ele>
        <time>2021-11-18T00:10:41.989Z</time>
      </trkpt>
      <trkpt lat="47.587944" lon="7.747712">
        <ele>354.324737</ele>
        <time>2021-11-18T00:10:43.097Z</time>
      </trkpt>
      <trkpt lat="47.587676" lon="7.747616">
        <ele>352.892458</ele>
        <time>2021-11-18T00:10:45.726Z</time>
      </trkpt>
      <trkpt lat="47.587231" lon="7.747583">
        <ele>350.281947</ele>
        <time>2021-11-18T00:10:49.908Z</time>
      </trkpt>
      <trkpt lat="47.587012" lon="7.747608">
        <ele>348.995030</ele>
        <time>2021-11-18T00:10:51.906Z</time>
      </trkpt>
      <trkpt lat="47.586901" lon="7.747621">
        <ele>348.342657</ele>
        <time>2021-11-18T00:10:52.941Z</time>
      </trkpt>
      <trkpt lat="47.586219" lon="7.747726">
        <ele>344.325338</ele>
        <time>2021-11-18T00:10:59.131Z</time>
      </trkpt>
      <trkpt lat="47.585600" lon="7.747675">
        <ele>339.828321</ele>
        <time>2021-11-18T00:11:04.614Z</time>
      </trkpt>
      <trkpt lat="47.585275" lon="7.747497">
        <ele>337.219960</ele>
        <time>2021-11-18T00:11:07.631Z</time>
      </trkpt>
      <trkpt lat="47.584788" lon="7.747084">
        <ele>332.996177</ele>
        <time>2021-11-18T00:11:12.581Z</time>
      </trkpt>
      <trkpt lat="47.584325" lon="7.746826">
        <ele>329.685971</ele>
        <time>2021-11-18T00:11:17.076Z</time>
      </trkpt>
      <trkpt lat="47.583935" lon="7.746691">
        <ele>328.034679</ele>
        <time>2021-11-18T00:11:20.797Z</time>
      </trkpt>
      <trkpt lat="47.580800" lon="7.746847">
        <ele>316.915239</ele>
        <time>2021-11-18T00:11:52.610Z</time>
      </trkpt>
      <trkpt lat="47.580195" lon="7.746761">
        <ele>314.940854</ele>
        <time>2021-11-18T00:11:58.873Z</time>
      </trkpt>
      <trkpt lat="47.580176" lon="7.746758">
        <ele>314.878782</ele>
        <time>2021-11-18T00:11:59.041Z</time>
      </trkpt>
      <trkpt lat="47.579910" lon="7.746660">
        <ele>313.988383</ele>
        <time>2021-11-18T00:12:01.869Z</time>
      </trkpt>
      <trkpt lat="47.579370" lon="7.746311">
        <ele>312.074704</ele>
        <time>2021-11-18T00:12:07.778Z</time>
      </trkpt>
      <trkpt lat="47.578248" lon="7.745231">
        <ele>307.722206</ele>
        <time>2021-11-18T00:12:21.190Z</time>
      </trkpt>
      <trkpt lat="47.578014" lon="7.745032">
        <ele>306.844192</ele>
        <time>2021-11-18T00:12:23.935Z</time>
      </trkpt>
      <trkpt lat="47.577765" lon="7.744854">
        <ele>305.944475</ele>
        <time>2021-11-18T00:12:26.791Z</time>
      </trkpt>
      <trkpt lat="47.576822" lon="7.744396">
        <ele>302.968860</ele>
        <time>2021-11-18T00:12:36.962Z</time>
      </trkpt>
      <trkpt lat="47.575733" lon="7.744190">
        <ele>299.810041</ele>
        <time>2021-11-18T00:12:48.256Z</time>
      </trkpt>
      <trkpt lat="47.575417" lon="7.744166">
        <ele>299.068306</ele>
        <time>2021-11-18T00:12:51.541Z</time>
      </trkpt>
      <trkpt lat="47.575173" lon="7.744139">
        <ele>298.494733</ele>
        <time>2021-11-18T00:12:54.111Z</time>
      </trkpt>
      <trkpt lat="47.574918" lon="7.744046">
        <ele>297.879138</ele>
        <time>2021-11-18T00:12:56.889Z</time>
      </trkpt>
      <trkpt lat="47.574841" lon="7.744018">
        <ele>297.693284</ele>
        <time>2021-11-18T00:12:57.724Z</time>
      </trkpt>
      <trkpt lat="47.574546" lon="7.743745">
        <ele>296.878043</ele>
        <time>2021-11-18T00:13:01.479Z</time>
      </trkpt>
      <trkpt lat="47.574382" lon="7.743495">
        <ele>296.326578</ele>
        <time>2021-11-18T00:13:04.031Z</time>
      </trkpt>
      <trkpt lat="47.574090" lon="7.742826">
        <ele>295.594208</ele>
        <time>2021-11-18T00:13:10.070Z</time>
      </trkpt>
      <trkpt lat="47.573998" lon="7.742684">
        <ele>295.480528</ele>
        <time>2021-11-18T00:13:11.619Z</time>
      </trkpt>
      <trkpt lat="47.573895" lon="7.742636">
        <ele>295.388118</ele>
        <time>2021-11-18T00:13:12.959Z</time>
      </trkpt>
      <trkpt lat="47.573635" lon="7.742528">
        <ele>295.157015</ele>
        <time>2021-11-18T00:13:16.385Z</time>
      </trkpt>
      <trkpt lat="47.573477" lon="7.743683">
        <ele>294.476524</ele>
        <time>2021-11-18T00:13:27.333Z</time>
      </trkpt>
      <trkpt lat="47.573397" lon="7.744238">
        <ele>294.250837</ele>
        <time>2021-11-18T00:13:32.619Z</time>
      </trkpt>
      <trkpt lat="47.573383" lon="7.744318">
        <ele>294.226358</ele>
        <time>2021-11-18T00:13:33.404Z</time>
      </trkpt>
      <trkpt lat="47.573349" lon="7.744526">
        <ele>294.162969</ele>
        <time>2021-11-18T00:13:35.196Z</time>
      </trkpt>
      <trkpt lat="47.573329" lon="7.744647">
        <ele>294.126071</ele>
        <time>2021-11-18T00:13:36.809Z</time>
      </trkpt>
      <trkpt lat="47.573193" lon="7.745027">
        <ele>293.998664</ele>
        <time>2021-11-18T00:13:40.306Z</time>
      </trkpt>
      <trkpt lat="47.573070" lon="7.745225">
        <ele>293.918945</ele>
        <time>2021-11-18T00:13:43.271Z</time>
      </trkpt>
      <trkpt lat="47.572897" lon="7.745419">
        <ele>293.823707</ele>
        <time>2021-11-18T00:13:46.064Z</time>
      </trkpt>
      <trkpt lat="47.572693" lon="7.745654">
        <ele>293.710280</ele>
        <time>2021-11-18T00:13:49.497Z</time>
      </trkpt>
      <trkpt lat="47.572478" lon="7.745914">
        <ele>293.588461</ele>
        <time>2021-11-18T00:13:53.508Z</time>
      </trkpt>
      <trkpt lat="47.572312" lon="7.746125">
        <ele>293.377100</ele>
        <time>2021-11-18T00:13:56.498Z</time>
      </trkpt>
      <trkpt lat="47.572107" lon="7.746364">
        <ele>293.089191</ele>
        <time>2021-11-18T00:13:59.633Z</time>
      </trkpt>
      <trkpt lat="47.571996" lon="7.746510">
        <ele>292.925371</ele>
        <time>2021-11-18T00:14:01.600Z</time>
      </trkpt>
      <trkpt lat="47.571810" lon="7.746732">
        <ele>292.661757</ele>
        <time>2021-11-18T00:14:04.313Z</time>
      </trkpt>
      <trkpt lat="47.571732" lon="7.746831">
        <ele>292.548399</ele>
        <time>2021-11-18T00:14:05.559Z</time>
      </trkpt>
      <trkpt lat="47.571615" lon="7.746974">
        <ele>292.380998</ele>
        <time>2021-11-18T00:14:07.300Z</time>
      </trkpt>
      <trkpt lat="47.571591" lon="7.747005">
        <ele>292.345857</ele>
        <time>2021-11-18T00:14:07.647Z</time>
      </trkpt>
      <trkpt lat="47.571247" lon="7.747396">
        <ele>291.867320</ele>
        <time>2021-11-18T00:14:12.749Z</time>
      </trkpt>
      <trkpt lat="47.570998" lon="7.747803">
        <ele>291.418792</ele>
        <time>2021-11-18T00:14:17.129Z</time>
      </trkpt>
      <trkpt lat="47.570938" lon="7.747976">
        <ele>291.228323</ele>
        <time>2021-11-18T00:14:18.786Z</time>
      </trkpt>
      <trkpt lat="47.570885" lon="7.748211">
        <ele>290.985701</ele>
        <time>2021-11-18T00:14:20.799Z</time>
      </trkpt>
      <trkpt lat="47.570858" lon="7.749747">
        <ele>289.481175</ele>
        <time>2021-11-18T00:14:32.636Z</time>
      </trkpt>
      <trkpt lat="47.570866" lon="7.750436">
        <ele>288.855311</ele>
        <time>2021-11-18T00:14:37.912Z</time>
      </trkpt>
      <trkpt lat="47.570870" lon="7.750695">
        <ele>288.676214</ele>
        <time>2021-11-18T00:14:39.936Z</time>
      </trkpt>
      <trkpt lat="47.570876" lon="7.751057">
        <ele>288.425882</ele>
        <time>2021-11-18T00:14:42.847Z</time>
      </trkpt>
      <trkpt lat="47.570885" lon="7.751787">
        <ele>287.921137</ele>
        <time>2021-11-18T00:14:48.734Z</time>
      </trkpt>
      <trkpt lat="47.570869" lon="7.752048">
        <ele>287.739960</ele>
        <time>2021-11-18T00:14:50.909Z</time>
      </trkpt>
      <trkpt lat="47.570854" lon="7.752277">
        <ele>287.580905</ele>
        <time>2021-11-18T00:14:52.792Z</time>
      </trkpt>
      <trkpt lat="47.570840" lon="7.752506">
        <ele>287.421945</ele>
        <time>2021-11-18T00:14:54.777Z</time>
      </trkpt>
      <trkpt lat="47.570759" lon="7.753008">
        <ele>287.100116</ele>
        <time>2021-11-18T00:14:59.284Z</time>
      </trkpt>
      <trkpt lat="47.570466" lon="7.754138">
        <ele>286.716606</ele>
        <time>2021-11-18T00:15:10.919Z</time>
      </trkpt>
      <trkpt lat="47.570185" lon="7.755068">
        <ele>286.393785</ele>
        <time>2021-11-18T00:15:20.370Z</time>
      </trkpt>
      <trkpt lat="47.569898" lon="7.756021">
        <ele>285.805925</ele>
        <time>2021-11-18T00:15:29.041Z</time>
      </trkpt>
      <trkpt lat="47.569743" lon="7.756603">
        <ele>285.378014</ele>
        <time>2021-11-18T00:15:34.162Z</time>
      </trkpt>
      <trkpt lat="47.569564" lon="7.757554">
        <ele>284.702797</ele>
        <time>2021-11-18T00:15:42.179Z</time>
      </trkpt>
      <trkpt lat="47.569423" lon="7.758505">
        <ele>284.080800</ele>
        <time>2021-11-18T00:15:49.928Z</time>
      </trkpt>
      <trkpt lat="47.569394" lon="7.758678">
        <ele>283.971480</ele>
        <time>2021-11-18T00:15:51.412Z</time>
      </trkpt>
      <trkpt lat="47.569371" lon="7.758806">
        <ele>283.890247</ele>
        <time>2021-11-18T00:15:52.491Z</time>
      </trkpt>
      <trkpt lat="47.569318" lon="7.759087">
        <ele>283.711314</ele>
        <time>2021-11-18T00:15:54.825Z</time>
      </trkpt>
      <trkpt lat="47.569287" lon="7.759231">
        <ele>283.618618</ele>
        <time>2021-11-18T00:15:56.164Z</time>
      </trkpt>
      <trkpt lat="47.569052" lon="7.760178">
        <ele>282.999822</ele>
        <time>2021-11-18T00:16:04.850Z</time>
      </trkpt>
      <trkpt lat="47.568658" lon="7.761470">
        <ele>282.367267</ele>
        <time>2021-11-18T00:16:17.395Z</time>
      </trkpt>
      <trkpt lat="47.568588" lon="7.761697">
        <ele>282.266254</ele>
        <time>2021-11-18T00:16:19.523Z</time>
      </trkpt>
      <trkpt lat="47.568566" lon="7.761768">
        <ele>282.234633</ele>
        <time>2021-11-18T00:16:20.183Z</time>
      </trkpt>
      <trkpt lat="47.568495" lon="7.761994">
        <ele>282.133736</ele>
        <time>2021-11-18T00:16:22.335Z</time>
      </trkpt>
      <trkpt lat="47.568423" lon="7.762232">
        <ele>282.028173</ele>
        <time>2021-11-18T00:16:24.534Z</time>
      </trkpt>
      <trkpt lat="47.568377" lon="7.762379">
        <ele>281.962591</ele>
        <time>2021-11-18T00:16:25.945Z</time>
      </trkpt>
      <trkpt lat="47.567932" lon="7.763827">
        <ele>281.547847</ele>
        <time>2021-11-18T00:16:40.442Z</time>
      </trkpt>
      <trkpt lat="47.567739" lon="7.764462">
        <ele>281.416379</ele>
        <time>2021-11-18T00:16:47.274Z</time>
      </trkpt>
      <trkpt lat="47.567574" lon="7.765017">
        <ele>281.301893</ele>
        <time>2021-11-18T00:16:53.122Z</time>
      </trkpt>
      <trkpt lat="47.567427" lon="7.765503">
        <ele>281.180847</ele>
        <time>2021-11-18T00:16:58.170Z</time>
      </trkpt>
      <trkpt lat="47.566939" lon="7.766996">
        <ele>280.720539</ele>
        <time>2021-11-18T00:17:13.120Z</time>
      </trkpt>
      <trkpt lat="47.566747" lon="7.767407">
        <ele>280.581834</ele>
        <time>2021-11-18T00:17:17.609Z</time>
      </trkpt>
      <trkpt lat="47.566290" lon="7.768111">
        <ele>280.403484</ele>
        <time>2021-11-18T00:17:26.412Z</time>
      </trkpt>
      <trkpt lat="47.565945" lon="7.768659">
        <ele>280.294615</ele>
        <time>2021-11-18T00:17:33.294Z</time>
      </trkpt>
      <trkpt lat="47.565887" lon="7.768778">
        <ele>280.273291</ele>
        <time>2021-11-18T00:17:34.925Z</time>
      </trkpt>
      <trkpt lat="47.565730" lon="7.769200">
        <ele>280.203292</ele>
        <time>2021-11-18T00:17:39.522Z</time>
      </trkpt>
      <trkpt lat="47.565639" lon="7.769724">
        <ele>280.124696</ele>
        <time>2021-11-18T00:17:44.983Z</time>
      </trkpt>
      <trkpt lat="47.565623" lon="7.769892">
        <ele>280.136918</ele>
        <time>2021-11-18T00:17:46.873Z</time>
      </trkpt>
      <trkpt lat="47.565618" lon="7.770120">
        <ele>280.171341</ele>
        <time>2021-11-18T00:17:48.943Z</time>
      </trkpt>
      <trkpt lat="47.565625" lon="7.770603">
        <ele>280.244242</ele>
        <time>2021-11-18T00:17:54.015Z</time>
      </trkpt>
      <trkpt lat="47.565623" lon="7.771401">
        <ele>280.364659</ele>
        <time>2021-11-18T00:18:02.867Z</time>
      </trkpt>
      <trkpt lat="47.565557" lon="7.771818">
        <ele>280.429292</ele>
        <time>2021-11-18T00:18:07.474Z</time>
      </trkpt>
      <trkpt lat="47.565452" lon="7.772236">
        <ele>280.496596</ele>
        <time>2021-11-18T00:18:12.324Z</time>
      </trkpt>
      <trkpt lat="47.565274" lon="7.772804">
        <ele>280.666703</ele>
        <time>2021-11-18T00:18:18.802Z</time>
      </trkpt>
      <trkpt lat="47.565215" lon="7.772993">
        <ele>280.731720</ele>
        <time>2021-11-18T00:18:21.106Z</time>
      </trkpt>
      <trkpt lat="47.565082" lon="7.773413">
        <ele>280.876571</ele>
        <time>2021-11-18T00:18:26.175Z</time>
      </trkpt>
      <trkpt lat="47.565017" lon="7.773684">
        <ele>280.966367</ele>
        <time>2021-11-18T00:18:29.458Z</time>
      </trkpt>
      <trkpt lat="47.564949" lon="7.774019">
        <ele>281.075588</ele>
        <time>2021-11-18T00:18:33.417Z</time>
      </trkpt>
      <trkpt lat="47.564938" lon="7.774103">
        <ele>281.102303</ele>
        <time>2021-11-18T00:18:34.428Z</time>
      </trkpt>
      <trkpt lat="47.564907" lon="7.774234">
        <ele>281.145645</ele>
        <time>2021-11-18T00:18:35.948Z</time>
      </trkpt>
      <trkpt lat="47.564861" lon="7.774427">
        <ele>281.209551</ele>
        <time>2021-11-18T00:18:38.338Z</time>
      </trkpt>
      <trkpt lat="47.564815" lon="7.774448">
        <ele>281.231823</ele>
        <time>2021-11-18T00:18:39.254Z</time>
      </trkpt>
      <trkpt lat="47.564709" lon="7.774675">
        <ele>281.318011</ele>
        <time>2021-11-18T00:18:42.507Z</time>
      </trkpt>
      <trkpt lat="47.564712" lon="7.774747">
        <ele>281.340533</ele>
        <time>2021-11-18T00:18:43.386Z</time>
      </trkpt>
      <trkpt lat="47.564658" lon="7.774885">
        <ele>281.398381</ele>
        <time>2021-11-18T00:18:45.357Z</time>
      </trkpt>
      <trkpt lat="47.564621" lon="7.774969">
        <ele>281.436377</ele>
        <time>2021-11-18T00:18:46.604Z</time>
      </trkpt>
      <trkpt lat="47.564601" lon="7.775042">
        <ele>281.466220</ele>
        <time>2021-11-18T00:18:47.587Z</time>
      </trkpt>
      <trkpt lat="47.564226" lon="7.776836">
        <ele>282.177597</ele>
        <time>2021-11-18T00:19:09.418Z</time>
      </trkpt>
      <trkpt lat="47.564027" lon="7.778327">
        <ele>282.285817</ele>
        <time>2021-11-18T00:19:25.658Z</time>
      </trkpt>
      <trkpt lat="47.563988" lon="7.778618">
        <ele>282.263843</ele>
        <time>2021-11-18T00:19:28.715Z</time>
      </trkpt>
      <trkpt lat="47.563956" lon="7.778868">
        <ele>282.244996</ele>
        <time>2021-11-18T00:19:31.437Z</time>
      </trkpt>
      <trkpt lat="47.563901" lon="7.779085">
        <ele>282.227828</ele>
        <time>2021-11-18T00:19:33.542Z</time>
      </trkpt>
      <trkpt lat="47.563891" lon="7.779124">
        <ele>282.224738</ele>
        <time>2021-11-18T00:19:33.951Z</time>
      </trkpt>
      <trkpt lat="47.563838" lon="7.779303">
        <ele>282.210260</ele>
        <time>2021-11-18T00:19:35.843Z</time>
      </trkpt>
      <trkpt lat="47.563771" lon="7.779469">
        <ele>282.195933</ele>
        <time>2021-11-18T00:19:37.510Z</time>
      </trkpt>
      <trkpt lat="47.563704" lon="7.779626">
        <ele>282.182174</ele>
        <time>2021-11-18T00:19:39.134Z</time>
      </trkpt>
      <trkpt lat="47.563652" lon="7.779747">
        <ele>282.171549</ele>
        <time>2021-11-18T00:19:40.418Z</time>
      </trkpt>
      <trkpt lat="47.563533" lon="7.779944">
        <ele>282.072515</ele>
        <time>2021-11-18T00:19:42.608Z</time>
      </trkpt>
      <trkpt lat="47.563492" lon="7.780014">
        <ele>282.023311</ele>
        <time>2021-11-18T00:19:43.388Z</time>
      </trkpt>
      <trkpt lat="47.563386" lon="7.780199">
        <ele>281.894477</ele>
        <time>2021-11-18T00:19:45.467Z</time>
      </trkpt>
      <trkpt lat="47.563299" lon="7.780330">
        <ele>281.796906</ele>
        <time>2021-11-18T00:19:46.927Z</time>
      </trkpt>
      <trkpt lat="47.563211" lon="7.780461">
        <ele>281.698781</ele>
        <time>2021-11-18T00:19:48.465Z</time>
      </trkpt>
      <trkpt lat="47.562775" lon="7.781130">
        <ele>281.205052</ele>
        <time>2021-11-18T00:19:56.354Z</time>
      </trkpt>
      <trkpt lat="47.562657" lon="7.781311">
        <ele>281.071450</ele>
        <time>2021-11-18T00:19:58.520Z</time>
      </trkpt>
      <trkpt lat="47.562099" lon="7.782166">
        <ele>280.509961</ele>
        <time>2021-11-18T00:20:08.698Z</time>
      </trkpt>
      <trkpt lat="47.561943" lon="7.782422">
        <ele>280.368182</ele>
        <time>2021-11-18T00:20:11.637Z</time>
      </trkpt>
      <trkpt lat="47.561822" lon="7.782640">
        <ele>280.252161</ele>
        <time>2021-11-18T00:20:14.010Z</time>
      </trkpt>
      <trkpt lat="47.561610" lon="7.782977">
        <ele>280.062787</ele>
        <time>2021-11-18T00:20:17.973Z</time>
      </trkpt>
      <trkpt lat="47.561406" lon="7.783302">
        <ele>279.880344</ele>
        <time>2021-11-18T00:20:21.947Z</time>
      </trkpt>
      <trkpt lat="47.561312" lon="7.783440">
        <ele>279.799748</ele>
        <time>2021-11-18T00:20:23.723Z</time>
      </trkpt>
      <trkpt lat="47.561041" lon="7.783716">
        <ele>279.624118</ele>
        <time>2021-11-18T00:20:28.230Z</time>
      </trkpt>
      <trkpt lat="47.560877" lon="7.783815">
        <ele>279.564776</ele>
        <time>2021-11-18T00:20:30.798Z</time>
      </trkpt>
      <trkpt lat="47.560427" lon="7.783951">
        <ele>279.410873</ele>
        <time>2021-11-18T00:20:37.333Z</time>
      </trkpt>
      <trkpt lat="47.559876" lon="7.784127">
        <ele>279.221988</ele>
        <time>2021-11-18T00:20:45.159Z</time>
      </trkpt>
      <trkpt lat="47.559415" lon="7.784281">
        <ele>279.063626</ele>
        <time>2021-11-18T00:20:51.435Z</time>
      </trkpt>
      <trkpt lat="47.559319" lon="7.784326">
        <ele>278.983461</ele>
        <time>2021-11-18T00:20:52.764Z</time>
      </trkpt>
      <trkpt lat="47.559229" lon="7.784376">
        <ele>278.882214</ele>
        <time>2021-11-18T00:20:54.036Z</time>
      </trkpt>
      <trkpt lat="47.559117" lon="7.784473">
        <ele>278.745564</ele>
        <time>2021-11-18T00:20:55.738Z</time>
      </trkpt>
      <trkpt lat="47.559008" lon="7.784639">
        <ele>278.580921</ele>
        <time>2021-11-18T00:20:57.815Z</time>
      </trkpt>
      <trkpt lat="47.558986" lon="7.784674">
        <ele>278.546921</ele>
        <time>2021-11-18T00:20:58.244Z</time>
      </trkpt>
      <trkpt lat="47.558920" lon="7.784817">
        <ele>278.423769</ele>
        <time>2021-11-18T00:20:59.784Z</time>
      </trkpt>
      <trkpt lat="47.558822" lon="7.785030">
        <ele>278.240515</ele>
        <time>2021-11-18T00:21:02.060Z</time>
      </trkpt>
      <trkpt lat="47.558782" lon="7.785128">
        <ele>278.159101</ele>
        <time>2021-11-18T00:21:03.065Z</time>
      </trkpt>
      <trkpt lat="47.558747" lon="7.785215">
        <ele>278.087101</ele>
        <time>2021-11-18T00:21:03.940Z</time>
      </trkpt>
      <trkpt lat="47.558660" lon="7.785434">
        <ele>277.906453</ele>
        <time>2021-11-18T00:21:06.131Z</time>
      </trkpt>
      <trkpt lat="47.558577" lon="7.785598">
        <ele>277.760731</ele>
        <time>2021-11-18T00:21:07.883Z</time>
      </trkpt>
      <trkpt lat="47.558367" lon="7.785913">
        <ele>277.445973</ele>
        <time>2021-11-18T00:21:11.502Z</time>
      </trkpt>
      <trkpt lat="47.558166" lon="7.786166">
        <ele>277.168172</ele>
        <time>2021-11-18T00:21:14.436Z</time>
      </trkpt>
      <trkpt lat="47.558071" lon="7.786282">
        <ele>276.725152</ele>
        <time>2021-11-18T00:21:15.759Z</time>
      </trkpt>
      <trkpt lat="47.558006" lon="7.786349">
        <ele>276.421009</ele>
        <time>2021-11-18T00:21:16.598Z</time>
      </trkpt>
      <trkpt lat="47.557921" lon="7.786413">
        <ele>276.054777</ele>
        <time>2021-11-18T00:21:17.592Z</time>
      </trkpt>
      <trkpt lat="47.557901" lon="7.786427">
        <ele>275.969813</ele>
        <time>2021-11-18T00:21:17.809Z</time>
      </trkpt>
      <trkpt lat="47.557823" lon="7.786486">
        <ele>275.633422</ele>
        <time>2021-11-18T00:21:18.706Z</time>
      </trkpt>
      <trkpt lat="47.557711" lon="7.786536">
        <ele>275.184109</ele>
        <time>2021-11-18T00:21:19.879Z</time>
      </trkpt>
      <trkpt lat="47.557562" lon="7.786575">
        <ele>274.602911</ele>
        <time>2021-11-18T00:21:21.351Z</time>
      </trkpt>
      <trkpt lat="47.557490" lon="7.786586">
        <ele>274.324879</ele>
        <time>2021-11-18T00:21:22.058Z</time>
      </trkpt>
      <trkpt lat="47.557180" lon="7.786638">
        <ele>273.126505</ele>
        <time>2021-11-18T00:21:25.027Z</time>
      </trkpt>
      <trkpt lat="47.557118" lon="7.786638">
        <ele>272.888351</ele>
        <time>2021-11-18T00:21:25.610Z</time>
      </trkpt>
      <trkpt lat="47.557035" lon="7.786628">
        <ele>272.568480</ele>
        <time>2021-11-18T00:21:26.389Z</time>
      </trkpt>
      <trkpt lat="47.556958" lon="7.786609">
        <ele>272.268636</ele>
        <time>2021-11-18T00:21:27.128Z</time>
      </trkpt>
      <trkpt lat="47.556914" lon="7.786662">
        <ele>272.050826</ele>
        <time>2021-11-18T00:21:27.664Z</time>
      </trkpt>
      <trkpt lat="47.556883" lon="7.786718">
        <ele>271.863069</ele>
        <time>2021-11-18T00:21:28.118Z</time>
      </trkpt>
      <trkpt lat="47.556812" lon="7.787001">
        <ele>271.080406</ele>
        <time>2021-11-18T00:21:30.054Z</time>
      </trkpt>
      <trkpt lat="47.556783" lon="7.787207">
        <ele>270.534905</ele>
        <time>2021-11-18T00:21:31.413Z</time>
      </trkpt>
      <trkpt lat="47.556658" lon="7.787468">
        <ele>269.960908</ele>
        <time>2021-11-18T00:21:33.493Z</time>
      </trkpt>
      <trkpt lat="47.556539" lon="7.787710">
        <ele>269.550339</ele>
        <time>2021-11-18T00:21:35.462Z</time>
      </trkpt>
      <trkpt lat="47.556357" lon="7.788058">
        <ele>268.946656</ele>
        <time>2021-11-18T00:21:38.429Z</time>
      </trkpt>
      <trkpt lat="47.556249" lon="7.788270">
        <ele>268.582441</ele>
        <time>2021-11-18T00:21:40.249Z</time>
      </trkpt>
      <trkpt lat="47.556137" lon="7.788488">
        <ele>268.206761</ele>
        <time>2021-11-18T00:21:42.156Z</time>
      </trkpt>
      <trkpt lat="47.556111" lon="7.788537">
        <ele>268.121292</ele>
        <time>2021-11-18T00:21:42.581Z</time>
      </trkpt>
      <trkpt lat="47.556069" lon="7.788614">
        <ele>267.985536</ele>
        <time>2021-11-18T00:21:43.325Z</time>
      </trkpt>
      <trkpt lat="47.555936" lon="7.788828">
        <ele>267.586629</ele>
        <time>2021-11-18T00:21:45.569Z</time>
      </trkpt>
      <trkpt lat="47.555085" lon="7.789685">
        <ele>267.846135</ele>
        <time>2021-11-18T00:22:27.804Z</time>
      </trkpt>
      <trkpt lat="47.555062" lon="7.789726">
        <ele>267.929577</ele>
        <time>2021-11-18T00:22:29.509Z</time>
      </trkpt>
      <trkpt lat="47.555052" lon="7.789771">
        <ele>268.003726</ele>
        <time>2021-11-18T00:22:30.945Z</time>
      </trkpt>
      <trkpt lat="47.555031" lon="7.789894">
        <ele>268.202296</ele>
        <time>2021-11-18T00:22:35.239Z</time>
      </trkpt>
      <trkpt lat="47.554999" lon="7.790090">
        <ele>268.517902</ele>
        <time>2021-11-18T00:22:42.400Z</time>
      </trkpt>
      <trkpt lat="47.554865" lon="7.790678">
        <ele>269.489225</ele>
        <time>2021-11-18T00:23:03.525Z</time>
      </trkpt>
      <trkpt lat="47.554858" lon="7.790696">
        <ele>269.521739</ele>
        <time>2021-11-18T00:23:04.515Z</time>
      </trkpt>
      <trkpt lat="47.554788" lon="7.790844">
        <ele>269.804593</ele>
        <time>2021-11-18T00:23:10.081Z</time>
      </trkpt>
      <trkpt lat="47.554756" lon="7.790897">
        <ele>269.915894</ele>
        <time>2021-11-18T00:23:12.695Z</time>
      </trkpt>
      <trkpt lat="47.554858" lon="7.791267">
        <ele>270.541427</ele>
        <time>2021-11-18T00:23:25.686Z</time>
      </trkpt>
      <trkpt lat="47.554911" lon="7.791459">
        <ele>270.854132</ele>
        <time>2021-11-18T00:23:32.554Z</time>
      </trkpt>
      <trkpt lat="47.555027" lon="7.791948">
        <ele>271.569736</ele>
        <time>2021-11-18T00:23:48.789Z</time>
      </trkpt>
      <trkpt lat="47.555085" lon="7.792163">
        <ele>271.889400</ele>
        <time>2021-11-18T00:23:55.997Z</time>
      </trkpt>
      <trkpt lat="47.555127" lon="7.792307">
        <ele>272.105977</ele>
        <time>2021-11-18T00:24:00.390Z</time>
      </trkpt>
      <trkpt lat="47.555237" lon="7.792734">
        <ele>272.736978</ele>
        <time>2021-11-18T00:24:14.498Z</time>
      </trkpt>
      <trkpt lat="47.555277" lon="7.793131">
        <ele>273.291148</ele>
        <time>2021-11-18T00:24:26.685Z</time>
      </trkpt>
      <trkpt lat="47.555274" lon="7.793423">
        <ele>273.694327</ele>
        <time>2021-11-18T00:24:35.195Z</time>
      </trkpt>
      <trkpt lat="47.555281" lon="7.793955">
        <ele>274.428941</ele>
        <time>2021-11-18T00:24:50.769Z</time>
      </trkpt>
      <trkpt lat="47.555282" lon="7.794033">
        <ele>274.549765</ele>
        <time>2021-11-18T00:24:53.051Z</time>
      </trkpt>
      <trkpt lat="47.555288" lon="7.794318">
        <ele>274.999237</ele>
        <time>2021-11-18T00:25:01.746Z</time>
      </trkpt>
      <trkpt lat="47.555288" lon="7.794496">
        <ele>275.279824</ele>
        <time>2021-11-18T00:25:06.616Z</time>
      </trkpt>
      <trkpt lat="47.555141" lon="7.794516">
        <ele>275.624620</ele>
        <time>2021-11-18T00:25:13.197Z</time>
      </trkpt>
      <trkpt lat="47.555010" lon="7.794553">
        <ele>275.936109</ele>
        <time>2021-11-18T00:25:19.049Z</time>
      </trkpt>
      <trkpt lat="47.554864" lon="7.794599">
        <ele>276.284749</ele>
        <time>2021-11-18T00:25:25.397Z</time>
      </trkpt>
      <trkpt lat="47.554864" lon="7.794599">
        <ele>276.284749</ele>
        <time>2021-11-18T00:25:25.475Z</time>
      </trkpt>
      <trkpt lat="47.554495" lon="7.794723">
        <ele>277.168518</ele>
        <time>2021-11-18T00:25:42.878Z</time>
      </trkpt>
      <trkpt lat="47.554352" lon="7.794791">
        <ele>277.519306</ele>
        <time>2021-11-18T00:25:50.128Z</time>
      </trkpt>
      <trkpt lat="47.554254" lon="7.794823">
        <ele>277.753699</ele>
        <time>2021-11-18T00:25:54.685Z</time>
      </trkpt>
      <trkpt lat="47.554004" lon="7.794824">
        <ele>278.337632</ele>
        <time>2021-11-18T00:26:07.141Z</time>
      </trkpt>
      <trkpt lat="47.553930" lon="7.794811">
        <ele>278.511686</ele>
        <time>2021-11-18T00:26:10.875Z</time>
      </trkpt>
      <trkpt lat="47.553883" lon="7.794947">
        <ele>278.824298</ele>
        <time>2021-11-18T00:26:14.157Z</time>
      </trkpt>
      <trkpt lat="47.553854" lon="7.795042">
        <ele>279.098580</ele>
        <time>2021-11-18T00:26:16.689Z</time>
      </trkpt>
      <trkpt lat="47.553847" lon="7.795063">
        <ele>279.160194</ele>
        <time>2021-11-18T00:26:17.246Z</time>
      </trkpt>
      <trkpt lat="47.553724" lon="7.795281">
        <ele>279.907671</ele>
        <time>2021-11-18T00:26:24.247Z</time>
      </trkpt>
      <trkpt lat="47.553702" lon="7.795313">
        <ele>280.027835</ele>
        <time>2021-11-18T00:26:25.351Z</time>
      </trkpt>
      <trkpt lat="47.553628" lon="7.795414">
        <ele>280.419993</ele>
        <time>2021-11-18T00:26:28.879Z</time>
      </trkpt>
      <trkpt lat="47.553580" lon="7.795460">
        <ele>280.642809</ele>
        <time>2021-11-18T00:26:30.964Z</time>
      </trkpt>
      <trkpt lat="47.553379" lon="7.795607">
        <ele>281.516503</ele>
        <time>2021-11-18T00:26:39.117Z</time>
      </trkpt>
      <trkpt lat="47.553256" lon="7.795697">
        <ele>282.051203</ele>
        <time>2021-11-18T00:26:43.936Z</time>
      </trkpt>
      <trkpt lat="47.553218" lon="7.795662">
        <ele>282.225604</ele>
        <time>2021-11-18T00:26:45.159Z</time>
      </trkpt>
      <trkpt lat="47.553188" lon="7.795642">
        <ele>282.353829</ele>
        <time>2021-11-18T00:26:46.119Z</time>
      </trkpt>
      <trkpt lat="47.553162" lon="7.795633">
        <ele>282.457900</ele>
        <time>2021-11-18T00:26:47.074Z</time>
      </trkpt>
      <trkpt lat="47.553139" lon="7.795630">
        <ele>282.547896</ele>
        <time>2021-11-18T00:26:47.776Z</time>
      </trkpt>
      <trkpt lat="47.552930" lon="7.795600">
        <ele>283.366347</ele>
        <time>2021-11-18T00:26:53.929Z</time>
      </trkpt>
      <trkpt lat="47.552908" lon="7.795789">
        <ele>283.870881</ele>
        <time>2021-11-18T00:26:57.764Z</time>
      </trkpt>
      <trkpt lat="47.552886" lon="7.795976">
        <ele>284.370231</ele>
        <time>2021-11-18T00:27:01.672Z</time>
      </trkpt>
      <trkpt lat="47.552817" lon="7.796239">
        <ele>285.112529</ele>
        <time>2021-11-18T00:27:07.809Z</time>
      </trkpt>
      <trkpt lat="47.552762" lon="7.796425">
        <ele>285.646733</ele>
        <time>2021-11-18T00:27:12.489Z</time>
      </trkpt>
      <trkpt lat="47.552493" lon="7.797048">
        <ele>287.823283</ele>
        <time>2021-11-18T00:27:29.311Z</time>
      </trkpt>
      <trkpt lat="47.552152" lon="7.797876">
        <ele>290.679327</ele>
        <time>2021-11-18T00:27:51.375Z</time>
      </trkpt>
      <trkpt lat="47.552084" lon="7.798083">
        <ele>291.357191</ele>
        <time>2021-11-18T00:27:56.914Z</time>
      </trkpt>
      <trkpt lat="47.551948" lon="7.798607">
        <ele>293.010236</ele>
        <time>2021-11-18T00:28:08.724Z</time>
      </trkpt>
      <trkpt lat="47.551805" lon="7.799326">
        <ele>294.472505</ele>
        <time>2021-11-18T00:28:22.611Z</time>
      </trkpt>
      <trkpt lat="47.551793" lon="7.799434">
        <ele>294.654778</ele>
        <time>2021-11-18T00:28:24.895Z</time>
      </trkpt>
      <trkpt lat="47.551754" lon="7.799766">
        <ele>295.215969</ele>
        <time>2021-11-18T00:28:31.245Z</time>
      </trkpt>
      <trkpt lat="47.551712" lon="7.800249">
        <ele>296.026957</ele>
        <time>2021-11-18T00:28:40.165Z</time>
      </trkpt>
      <trkpt lat="47.551704" lon="7.800451">
        <ele>296.363926</ele>
        <time>2021-11-18T00:28:43.351Z</time>
      </trkpt>
      <trkpt lat="47.551672" lon="7.801147">
        <ele>297.525662</ele>
        <time>2021-11-18T00:28:52.374Z</time>
      </trkpt>
      <trkpt lat="47.551669" lon="7.801438">
        <ele>297.966060</ele>
        <time>2021-11-18T00:28:56.953Z</time>
      </trkpt>
      <trkpt lat="47.551666" lon="7.801632">
        <ele>298.083412</ele>
        <time>2021-11-18T00:28:58.966Z</time>
      </trkpt>
      <trkpt lat="47.551669" lon="7.801853">
        <ele>298.217088</ele>
        <time>2021-11-18T00:29:02.223Z</time>
      </trkpt>
      <trkpt lat="47.551671" lon="7.802077">
        <ele>298.352564</ele>
        <time>2021-11-18T00:29:04.540Z</time>
      </trkpt>
      <trkpt lat="47.551679" lon="7.802228">
        <ele>298.444162</ele>
        <time>2021-11-18T00:29:05.660Z</time>
      </trkpt>
      <trkpt lat="47.551688" lon="7.802394">
        <ele>298.544874</ele>
        <time>2021-11-18T00:29:08.617Z</time>
      </trkpt>
      <trkpt lat="47.551700" lon="7.802648">
        <ele>298.698855</ele>
        <time>2021-11-18T00:29:10.896Z</time>
      </trkpt>
      <trkpt lat="47.551732" lon="7.803125">
        <ele>298.988742</ele>
        <time>2021-11-18T00:29:17.047Z</time>
      </trkpt>
      <trkpt lat="47.551744" lon="7.803277">
        <ele>299.081290</ele>
        <time>2021-11-18T00:29:18.255Z</time>
      </trkpt>
      <trkpt lat="47.551751" lon="7.803369">
        <ele>299.137279</ele>
        <time>2021-11-18T00:29:19.929Z</time>
      </trkpt>
      <trkpt lat="47.551692" lon="7.803510">
        <ele>299.237607</ele>
        <time>2021-11-18T00:29:23.517Z</time>
      </trkpt>
      <trkpt lat="47.551741" lon="7.804294">
        <ele>299.697939</ele>
        <time>2021-11-18T00:29:36.114Z</time>
      </trkpt>
      <trkpt lat="47.551744" lon="7.804473">
        <ele>299.795603</ele>
        <time>2021-11-18T00:29:39.150Z</time>
      </trkpt>
      <trkpt lat="47.551731" lon="7.804667">
        <ele>299.901940</ele>
        <time>2021-11-18T00:29:43.250Z</time>
      </trkpt>
      <trkpt lat="47.551709" lon="7.805000">
        <ele>300.084440</ele>
        <time>2021-11-18T00:29:47.790Z</time>
      </trkpt>
      <trkpt lat="47.551681" lon="7.805477">
        <ele>300.345599</ele>
        <time>2021-11-18T00:29:55.537Z</time>
      </trkpt>
      <trkpt lat="47.551671" lon="7.806117">
        <ele>300.694777</ele>
        <time>2021-11-18T00:30:05.626Z</time>
      </trkpt>
      <trkpt lat="47.551651" lon="7.806246">
        <ele>300.766972</ele>
        <time>2021-11-18T00:30:08.529Z</time>
      </trkpt>
      <trkpt lat="47.551895" lon="7.806278">
        <ele>300.964932</ele>
        <time>2021-11-18T00:30:12.054Z</time>
      </trkpt>
      <trkpt lat="47.552015" lon="7.806307">
        <ele>300.984842</ele>
        <time>2021-11-18T00:30:14.924Z</time>
      </trkpt>
      <trkpt lat="47.552068" lon="7.806445">
        <ele>300.952741</ele>
        <time>2021-11-18T00:30:16.381Z</time>
      </trkpt>
      <trkpt lat="47.552398" lon="7.808880">
        <ele>300.429724</ele>
        <time>2021-11-18T00:30:38.524Z</time>
      </trkpt>
      <trkpt lat="47.552566" lon="7.810386">
        <ele>299.732898</ele>
        <time>2021-11-18T00:30:51.535Z</time>
      </trkpt>
      <trkpt lat="47.552711" lon="7.812955">
        <ele>298.597968</ele>
        <time>2021-11-18T00:31:14.144Z</time>
      </trkpt>
      <trkpt lat="47.552844" lon="7.816432">
        <ele>297.372350</ele>
        <time>2021-11-18T00:31:44.637Z</time>
      </trkpt>
      <trkpt lat="47.552948" lon="7.819358">
        <ele>297.727363</ele>
        <time>2021-11-18T00:32:15.867Z</time>
      </trkpt>
      <trkpt lat="47.552896" lon="7.820699">
        <ele>298.354975</ele>
        <time>2021-11-18T00:32:31.950Z</time>
      </trkpt>
      <trkpt lat="47.552567" lon="7.824508">
        <ele>300.252164</ele>
        <time>2021-11-18T00:33:18.435Z</time>
      </trkpt>
      <trkpt lat="47.552491" lon="7.827227">
        <ele>301.590198</ele>
        <time>2021-11-18T00:33:50.175Z</time>
      </trkpt>
      <trkpt lat="47.552515" lon="7.828094">
        <ele>302.480553</ele>
        <time>2021-11-18T00:34:01.885Z</time>
      </trkpt>
      <trkpt lat="47.552477" lon="7.828294">
        <ele>302.717208</ele>
        <time>2021-11-18T00:34:04.502Z</time>
      </trkpt>
      <trkpt lat="47.552421" lon="7.828481">
        <ele>302.950226</ele>
        <time>2021-11-18T00:34:07.433Z</time>
      </trkpt>
      <trkpt lat="47.552404" lon="7.828582">
        <ele>303.068789</ele>
        <time>2021-11-18T00:34:09.118Z</time>
      </trkpt>
      <trkpt lat="47.552416" lon="7.828822">
        <ele>303.342899</ele>
        <time>2021-11-18T00:34:12.352Z</time>
      </trkpt>
      <trkpt lat="47.552554" lon="7.829266">
        <ele>303.899664</ele>
        <time>2021-11-18T00:34:19.703Z</time>
      </trkpt>
      <trkpt lat="47.552645" lon="7.830686">
        <ele>306.107315</ele>
        <time>2021-11-18T00:34:43.009Z</time>
      </trkpt>
      <trkpt lat="47.552690" lon="7.832598">
        <ele>309.827270</ele>
        <time>2021-11-18T00:35:18.486Z</time>
      </trkpt>
      <trkpt lat="47.552616" lon="7.832891">
        <ele>310.402494</ele>
        <time>2021-11-18T00:35:23.850Z</time>
      </trkpt>
      <trkpt lat="47.552556" lon="7.832977">
        <ele>310.628639</ele>
        <time>2021-11-18T00:35:26.581Z</time>
      </trkpt>
      <trkpt lat="47.552511" lon="7.833072">
        <ele>310.840839</ele>
        <time>2021-11-18T00:35:28.607Z</time>
      </trkpt>
      <trkpt lat="47.552467" lon="7.833198">
        <ele>311.100217</ele>
        <time>2021-11-18T00:35:31.009Z</time>
      </trkpt>
      <trkpt lat="47.552452" lon="7.833284">
        <ele>311.262619</ele>
        <time>2021-11-18T00:35:32.620Z</time>
      </trkpt>
      <trkpt lat="47.552696" lon="7.833789">
        <ele>312.398131</ele>
        <time>2021-11-18T00:35:43.651Z</time>
      </trkpt>
      <trkpt lat="47.552700" lon="7.833938">
        <ele>312.670766</ele>
        <time>2021-11-18T00:35:46.596Z</time>
      </trkpt>
      <trkpt lat="47.552714" lon="7.835010">
        <ele>314.631085</ele>
        <time>2021-11-18T00:36:05.073Z</time>
      </trkpt>
      <trkpt lat="47.552719" lon="7.836790">
        <ele>316.650050</ele>
        <time>2021-11-18T00:36:30.356Z</time>
      </trkpt>
      <trkpt lat="47.552697" lon="7.838068">
        <ele>318.044271</ele>
        <time>2021-11-18T00:36:47.998Z</time>
      </trkpt>
      <trkpt lat="47.552736" lon="7.838578">
        <ele>318.579479</ele>
        <time>2021-11-18T00:36:55.125Z</time>
      </trkpt>
      <trkpt lat="47.552802" lon="7.839009">
        <ele>319.040331</ele>
        <time>2021-11-18T00:37:01.344Z</time>
      </trkpt>
      <trkpt lat="47.552939" lon="7.839526">
        <ele>319.619500</ele>
        <time>2021-11-18T00:37:09.134Z</time>
      </trkpt>
      <trkpt lat="47.553231" lon="7.841529">
        <ele>321.645821</ele>
        <time>2021-11-18T00:37:39.263Z</time>
      </trkpt>
      <trkpt lat="47.553216" lon="7.841849">
        <ele>321.951280</ele>
        <time>2021-11-18T00:37:43.787Z</time>
      </trkpt>
      <trkpt lat="47.553123" lon="7.842222">
        <ele>322.329938</ele>
        <time>2021-11-18T00:37:49.017Z</time>
      </trkpt>
      <trkpt lat="47.553133" lon="7.842431">
        <ele>322.529460</ele>
        <time>2021-11-18T00:37:52.147Z</time>
      </trkpt>
      <trkpt lat="47.552833" lon="7.842495">
        <ele>322.957113</ele>
        <time>2021-11-18T00:37:59.391Z</time>
      </trkpt>
      <trkpt lat="47.552380" lon="7.842592">
        <ele>323.187787</ele>
        <time>2021-11-18T00:38:09.898Z</time>
      </trkpt>
      <trkpt lat="47.551922" lon="7.842704">
        <ele>323.375528</ele>
        <time>2021-11-18T00:38:19.820Z</time>
      </trkpt>
      <trkpt lat="47.551668" lon="7.842770">
        <ele>323.479825</ele>
        <time>2021-11-18T00:38:25.374Z</time>
      </trkpt>
      <trkpt lat="47.551454" lon="7.842815">
        <ele>323.567243</ele>
        <time>2021-11-18T00:38:29.553Z</time>
      </trkpt>
      <trkpt lat="47.551243" lon="7.842849">
        <ele>323.653084</ele>
        <time>2021-11-18T00:38:33.543Z</time>
      </trkpt>
      <trkpt lat="47.549927" lon="7.842747">
        <ele>324.902350</ele>
        <time>2021-11-18T00:39:03.250Z</time>
      </trkpt>
      <trkpt lat="47.549582" lon="7.842702">
        <ele>325.271685</ele>
        <time>2021-11-18T00:39:12.168Z</time>
      </trkpt>
      <trkpt lat="47.549188" lon="7.842622">
        <ele>325.723390</ele>
        <time>2021-11-18T00:39:23.698Z</time>
      </trkpt>
      <trkpt lat="47.548105" lon="7.842284">
        <ele>328.017530</ele>
        <time>2021-11-18T00:39:56.738Z</time>
      </trkpt>
      <trkpt lat="47.548037" lon="7.842282">
        <ele>328.158510</ele>
        <time>2021-11-18T00:39:59.098Z</time>
      </trkpt>
      <trkpt lat="47.547674" lon="7.842266">
        <ele>328.911279</ele>
        <time>2021-11-18T00:40:09.312Z</time>
      </trkpt>
      <trkpt lat="47.547549" lon="7.842268">
        <ele>329.170398</ele>
        <time>2021-11-18T00:40:12.386Z</time>
      </trkpt>
      <trkpt lat="47.547448" lon="7.842262">
        <ele>329.379922</ele>
        <time>2021-11-18T00:40:14.872Z</time>
      </trkpt>
      <trkpt lat="47.547354" lon="7.842839">
        <ele>329.846071</ele>
        <time>2021-11-18T00:40:24.845Z</time>
      </trkpt>
      <trkpt lat="47.547313" lon="7.843735">
        <ele>330.541292</ele>
        <time>2021-11-18T00:40:40.147Z</time>
      </trkpt>
      <trkpt lat="47.547295" lon="7.844722">
        <ele>331.305646</ele>
        <time>2021-11-18T00:40:55.669Z</time>
      </trkpt>
      <trkpt lat="47.547274" lon="7.845536">
        <ele>332.176670</ele>
        <time>2021-11-18T00:41:09.121Z</time>
      </trkpt>
      <trkpt lat="47.547124" lon="7.848795">
        <ele>336.193013</ele>
        <time>2021-11-18T00:42:11.275Z</time>
      </trkpt>
      <trkpt lat="47.547143" lon="7.849985">
        <ele>337.789353</ele>
        <time>2021-11-18T00:42:34.126Z</time>
      </trkpt>
      <trkpt lat="47.547141" lon="7.850355">
        <ele>338.212251</ele>
        <time>2021-11-18T00:42:41.226Z</time>
      </trkpt>
      <trkpt lat="47.546945" lon="7.851719">
        <ele>339.198577</ele>
        <time>2021-11-18T00:43:05.759Z</time>
      </trkpt>
      <trkpt lat="47.546582" lon="7.856413">
        <ele>340.678424</ele>
        <time>2021-11-18T00:44:14.071Z</time>
      </trkpt>
      <trkpt lat="47.546537" lon="7.857497">
        <ele>340.863448</ele>
        <time>2021-11-18T00:44:29.379Z</time>
      </trkpt>
      <trkpt lat="47.546487" lon="7.859119">
        <ele>341.189942</ele>
        <time>2021-11-18T00:44:52.826Z</time>
      </trkpt>
      <trkpt lat="47.546526" lon="7.861665">
        <ele>341.236538</ele>
        <time>2021-11-18T00:45:30.001Z</time>
      </trkpt>
      <trkpt lat="47.546592" lon="7.863006">
        <ele>340.694924</ele>
        <time>2021-11-18T00:45:46.468Z</time>
      </trkpt>
      <trkpt lat="47.546877" lon="7.864345">
        <ele>339.291435</ele>
        <time>2021-11-18T00:46:01.637Z</time>
      </trkpt>
      <trkpt lat="47.546885" lon="7.864500">
        <ele>339.086675</ele>
        <time>2021-11-18T00:46:03.316Z</time>
      </trkpt>
      <trkpt lat="47.546894" lon="7.864837">
        <ele>338.642436</ele>
        <time>2021-11-18T00:46:06.795Z</time>
      </trkpt>
      <trkpt lat="47.546889" lon="7.865225">
        <ele>338.131274</ele>
        <time>2021-11-18T00:46:10.916Z</time>
      </trkpt>
      <trkpt lat="47.546819" lon="7.865489">
        <ele>337.757669</ele>
        <time>2021-11-18T00:46:13.994Z</time>
      </trkpt>
      <trkpt lat="47.546510" lon="7.865766">
        <ele>337.052884</ele>
        <time>2021-11-18T00:46:19.689Z</time>
      </trkpt>
      <trkpt lat="47.546327" lon="7.865959">
        <ele>336.780186</ele>
        <time>2021-11-18T00:46:23.020Z</time>
      </trkpt>
      <trkpt lat="47.546096" lon="7.866147">
        <ele>336.493636</ele>
        <time>2021-11-18T00:46:27.086Z</time>
      </trkpt>
      <trkpt lat="47.545240" lon="7.866887">
        <ele>335.416110</ele>
        <time>2021-11-18T00:46:43.760Z</time>
      </trkpt>
      <trkpt lat="47.545160" lon="7.866985">
        <ele>335.303249</ele>
        <time>2021-11-18T00:46:45.715Z</time>
      </trkpt>
      <trkpt lat="47.545003" lon="7.867278">
        <ele>335.037958</ele>
        <time>2021-11-18T00:46:51.384Z</time>
      </trkpt>
      <trkpt lat="47.544568" lon="7.867693">
        <ele>335.669012</ele>
        <time>2021-11-18T00:47:04.174Z</time>
      </trkpt>
      <trkpt lat="47.544469" lon="7.867776">
        <ele>335.807755</ele>
        <time>2021-11-18T00:47:07.037Z</time>
      </trkpt>
      <trkpt lat="47.544410" lon="7.867825">
        <ele>335.890252</ele>
        <time>2021-11-18T00:47:09.125Z</time>
      </trkpt>
      <trkpt lat="47.544246" lon="7.867967">
        <ele>336.121938</ele>
        <time>2021-11-18T00:47:13.809Z</time>
      </trkpt>
      <trkpt lat="47.544214" lon="7.867988">
        <ele>336.164626</ele>
        <time>2021-11-18T00:47:14.656Z</time>
      </trkpt>
      <trkpt lat="47.543801" lon="7.868269">
        <ele>336.718938</ele>
        <time>2021-11-18T00:47:26.261Z</time>
      </trkpt>
      <trkpt lat="47.543657" lon="7.868359">
        <ele>336.909562</ele>
        <time>2021-11-18T00:47:30.614Z</time>
      </trkpt>
      <trkpt lat="47.543201" lon="7.868657">
        <ele>337.226825</ele>
        <time>2021-11-18T00:47:41.045Z</time>
      </trkpt>
      <trkpt lat="47.543105" lon="7.868711">
        <ele>337.226825</ele>
        <time>2021-11-18T00:47:43.693Z</time>
      </trkpt>
      <trkpt lat="47.543049" lon="7.868759">
        <ele>337.226825</ele>
        <time>2021-11-18T00:47:45.073Z</time>
      </trkpt>
      <trkpt lat="47.542722" lon="7.869201">
        <ele>337.226825</ele>
        <time>2021-11-18T00:47:54.672Z</time>
      </trkpt>
      <trkpt lat="47.542696" lon="7.869257">
        <ele>337.226825</ele>
        <time>2021-11-18T00:47:55.415Z</time>
      </trkpt>
      <trkpt lat="47.542657" lon="7.869354">
        <ele>337.226825</ele>
        <time>2021-11-18T00:47:56.823Z</time>
      </trkpt>
      <trkpt lat="47.542454" lon="7.869633">
        <ele>337.226825</ele>
        <time>2021-11-18T00:48:01.974Z</time>
      </trkpt>
    </trkseg>
  </trk>
</gpx>